[[{"header":{"parameterUnit":"m.s-1","parameterCategory":1,"la1":30.6,"la2":28.766,"lo1":-90.7593,"lo2":-88.6598,"dy":0.0162,"dx":0.0183,"nx":116,"ny":114,"refTime":"2024-07-09T06:00:00:Z","depth":0,"parameterNumber":2,"parameterNumberName":"U-component_of_WINDS"},"data":[0.0,0.0,0.0,0.0,0.0,0.0,0.0,0.0,0.0,0.0,0.0,0.0,0.0,0.0,0.0,0.0,0.0,0.0,0.0,0.0,0.0,0.0,0.0,0.0,0.0,0.0,0.0,0.0,0.0,0.0,0.0,0.0,0.0,0.0,0.0,0.0,0.0,0.0,0.0,0.0,0.0,0.0,0.0,0.0,0.0,0.0,0.0,0.0,0.0,0.0,0.0,0.0,0.0,0.0,0.0,0.0,0.0,0.0,0.0,0.0,0.0,0.0,0.0,0.0,0.0,0.0,0.0,0.0,0.0,0.0,0.0,0.0,0.0,0.0,0.0,0.0,0.0,0.0,0.0,0.0,0.0,0.0,0.0,0.0,0.0,0.0,0.0,0.0,0.0,0.0,0.0,0.0,0.0,0.0,0.0,0.0,0.0,0.0,0.0,0.0,0.0,0.0,0.0,0.0,0.0,0.0,0.0,0.0,0.0,0.0,0.0,0.0,0.0,0.0,0.0,0.0,0.0,0.0,0.0,0.0,0.0,0.0,0.0,0.0,0.0,0.0,0.0,0.0,0.0,0.0,0.0,0.0,0.0,0.0,0.0,0.0,0.0,0.0,0.0,0.0,0.0,0.0,0.0,0.0,0.0,0.0,0.0,0.0,0.0,0.0,0.0,0.0,0.0,0.0,0.0,0.0,0.0,0.0,0.0,0.0,0.0,0.0,0.0,0.0,0.0,0.0,0.0,0.0,0.0,0.0,0.0,0.0,0.0,0.0,0.0,0.0,0.0,0.0,0.0,0.0,0.0,0.0,0.0,0.0,0.0,0.0,0.0,0.0,0.0,0.0,0.0,0.0,0.0,0.0,0.0,0.0,0.0,0.0,0.0,0.0,0.0,0.0,0.0,0.0,0.0,0.0,0.0,0.0,0.0,0.0,0.0,0.0,0.0,0.0,0.0,0.0,0.0,0.0,0.0,0.0,0.0,0.0,0.0,0.0,0.0,0.0,0.0,0.0,0.0,0.0,0.0,0.0,0.0,0.0,0.0,0.0,0.0,0.0,0.0,0.0,0.0,0.0,0.0,0.0,0.0,0.0,0.0,0.0,0.0,0.0,0.0,0.0,0.0,0.0,0.0,0.0,0.0,0.0,0.0,0.0,0.0,0.0,0.0,0.0,0.0,0.0,0.0,0.0,0.0,0.0,0.0,0.0,0.0,0.0,0.0,0.0,0.0,0.0,0.0,0.0,0.0,0.0,0.0,0.0,0.0,0.0,0.0,0.0,0.0,0.0,0.0,0.0,0.0,0.0,0.0,0.0,0.0,0.0,0.0,0.0,0.0,0.0,0.0,0.0,0.0,0.0,0.0,0.0,0.0,0.0,0.0,0.0,0.0,0.0,0.0,0.0,0.0,0.0,0.0,0.0,0.0,0.0,0.0,0.0,0.0,0.0,0.0,0.0,0.0,0.0,0.0,0.0,0.0,0.0,0.0,0.0,0.0,0.0,0.0,0.0,0.0,0.0,0.0,0.0,0.0,0.0,0.0,0.0,0.0,0.0,0.0,0.0,0.0,0.0,0.0,0.0,0.0,0.0,0.0,0.0,0.0,0.0,0.0,0.0,0.0,0.0,0.0,0.0,0.0,0.0,0.0,0.0,0.0,0.0,0.0,0.0,0.0,0.0,0.0,0.0,0.0,0.0,0.0,0.0,0.0,0.0,0.0,0.0,0.0,0.0,0.0,0.0,0.0,0.0,0.0,0.0,0.0,0.0,0.0,0.0,0.0,0.0,0.0,0.0,0.0,0.0,0.0,0.0,0.0,0.0,0.0,0.0,0.0,0.0,0.0,0.0,0.0,0.0,0.0,0.0,0.0,0.0,0.0,0.0,0.0,0.0,0.0,0.0,0.0,0.0,0.0,0.0,0.0,0.0,0.0,0.0,0.0,0.0,0.0,0.0,0.0,0.0,0.0,0.0,0.0,0.0,0.0,0.0,0.0,0.0,0.0,0.0,0.0,0.0,0.0,0.0,0.0,0.0,0.0,0.0,0.0,0.0,0.0,0.0,0.0,0.0,0.0,0.0,0.0,0.0,0.0,0.0,0.0,0.0,0.0,0.0,0.0,0.0,0.0,0.0,0.0,0.0,0.0,0.0,0.0,0.0,0.0,0.0,0.0,0.0,0.0,0.0,0.0,0.0,0.0,0.0,0.0,0.0,0.0,0.0,0.0,0.0,0.0,0.0,0.0,0.0,0.0,0.0,0.0,0.0,0.0,0.0,0.0,0.0,0.0,0.0,0.0,0.0,0.0,0.0,0.0,0.0,0.0,0.0,0.0,0.0,0.0,0.0,0.0,0.0,0.0,0.0,0.0,0.0,0.0,0.0,0.0,0.0,0.0,0.0,0.0,0.0,0.0,0.0,0.0,0.0,0.0,0.0,0.0,0.0,0.0,0.0,0.0,0.0,0.0,0.0,0.0,0.0,0.0,0.0,0.0,0.0,0.0,0.0,0.0,0.0,0.0,0.0,0.0,0.0,0.0,0.0,0.0,0.0,0.0,0.0,0.0,0.0,0.0,0.0,0.0,0.0,0.0,0.0,0.0,0.0,0.0,0.0,0.0,0.0,0.0,0.0,0.0,0.0,0.0,0.0,0.0,0.0,0.0,0.0,0.0,0.0,0.0,0.0,0.0,0.0,0.0,0.0,0.0,0.0,0.0,0.0,0.0,0.0,0.0,0.0,0.0,0.0,0.0,0.0,0.0,0.0,0.0,0.0,0.0,0.0,0.0,0.0,0.0,0.0,0.0,0.0,0.0,0.0,0.0,0.0,0.0,0.0,0.0,0.0,0.0,0.0,0.0,0.0,0.0,0.0,0.0,0.0,0.0,0.0,0.0,0.0,0.0,0.0,0.0,0.0,0.0,0.0,0.0,0.0,0.0,0.0,0.0,0.0,0.0,0.0,0.0,0.0,0.0,0.0,0.0,0.0,0.0,0.0,0.0,0.0,0.0,0.0,0.0,0.0,0.0,0.0,0.0,0.0,0.0,0.0,0.0,0.0,0.0,0.0,0.0,0.0,0.0,0.0,0.0,0.0,0.0,0.0,0.0,0.0,0.0,0.0,0.0,0.0,0.0,0.0,0.0,0.0,0.0,0.0,0.0,0.0,0.0,0.0,0.0,0.0,0.0,0.0,0.0,0.0,0.0,0.0,0.0,0.0,0.0,0.0,0.0,0.0,0.0,0.0,0.0,0.0,0.0,0.0,0.0,0.0,0.0,0.0,0.0,0.0,0.0,0.0,0.0,0.0,0.0,0.0,0.0,0.0,0.0,0.0,0.0,0.0,0.0,0.0,0.0,0.0,0.0,0.0,0.0,0.0,0.0,0.0,0.0,0.0,0.0,0.0,0.0,0.0,0.0,0.0,0.0,0.0,0.0,0.0,0.0,0.0,0.0,0.0,0.0,0.0,0.0,0.0,0.0,0.0,0.0,0.0,0.0,0.0,0.0,0.0,0.0,0.0,0.0,0.0,0.0,0.0,0.0,0.0,0.0,0.0,0.0,0.0,0.0,0.0,0.0,0.0,0.0,0.0,0.0,0.0,0.0,0.0,0.0,0.0,0.0,0.0,0.0,0.0,0.0,0.0,0.0,0.0,0.0,0.0,0.0,0.0,0.0,0.0,0.0,0.0,0.0,0.0,0.0,0.0,0.0,0.0,0.0,0.0,0.0,0.0,0.0,0.0,0.0,0.0,0.0,0.0,0.0,0.0,0.0,0.0,0.0,0.0,0.0,0.0,0.0,0.0,0.0,0.0,0.0,0.0,0.0,0.0,0.0,0.0,0.0,0.0,0.0,0.0,0.0,0.0,0.0,0.0,0.0,0.0,0.0,0.0,0.0,0.0,0.0,0.0,0.0,0.0,0.0,0.0,0.0,0.0,0.0,0.0,0.0,0.0,0.0,0.0,0.0,0.0,0.0,0.0,0.0,0.0,0.0,0.0,0.0,0.0,0.0,0.0,0.0,0.0,0.0,0.0,0.0,0.0,0.0,0.0,0.0,0.0,0.0,0.0,0.0,0.0,0.0,0.0,0.0,0.0,0.0,0.0,0.0,0.0,0.0,0.0,0.0,0.0,0.0,0.0,0.0,0.0,0.0,0.0,0.0,0.0,0.0,0.0,0.0,0.0,0.0,0.0,0.0,0.0,0.0,0.0,0.0,0.0,0.0,0.0,0.0,0.0,0.0,0.0,0.0,0.0,0.0,0.0,0.0,0.0,0.0,0.0,0.0,0.0,0.0,0.0,0.0,0.0,0.0,0.0,0.0,0.0,0.0,0.0,0.0,0.0,0.0,0.0,0.0,0.0,0.0,0.0,0.0,0.0,0.0,0.0,0.0,0.0,0.0,0.0,0.0,0.0,0.0,0.0,0.0,0.0,0.0,0.0,0.0,0.0,0.0,0.0,0.0,0.0,0.0,0.0,0.0,0.0,0.0,0.0,0.0,0.0,0.0,0.0,0.0,0.0,0.0,0.0,0.0,0.0,0.0,0.0,0.0,0.0,0.0,0.0,0.0,0.0,0.0,0.0,0.0,0.0,0.0,0.0,0.0,0.0,0.0,0.0,0.0,0.0,0.0,0.0,0.0,0.0,0.0,0.0,0.0,0.0,0.0,0.0,0.0,0.0,0.0,0.0,0.0,0.0,0.0,0.0,0.0,0.0,0.0,0.0,0.0,0.0,0.0,0.0,0.0,0.0,0.0,0.0,0.0,0.0,0.0,0.0,0.0,0.0,0.0,0.0,0.0,0.0,0.0,0.0,0.0,0.0,0.0,0.0,0.0,0.0,0.0,0.0,0.0,0.0,0.0,0.0,0.0,0.0,0.0,0.0,0.0,0.0,0.0,0.0,0.0,0.0,0.0,0.0,0.0,0.0,0.0,0.0,0.0,0.0,0.0,0.0,0.0,0.0,0.0,0.0,0.0,0.0,0.0,0.0,0.0,0.0,0.0,0.0,0.0,0.0,0.0,0.0,0.0,0.0,0.0,0.0,0.0,0.0,0.0,0.0,0.0,0.0,0.0,0.0,0.0,0.0,0.0,0.0,0.0,0.0,0.0,0.0,0.0,0.0,0.0,0.0,0.0,0.0,0.0,0.0,0.0,0.0,0.0,0.0,0.0,0.0,0.0,0.0,0.0,0.0,0.0,0.0,0.0,0.0,0.0,0.0,0.0,0.0,0.0,0.0,0.0,0.0,0.0,0.0,0.0,0.0,0.0,0.0,0.0,0.0,0.0,0.0,0.0,0.0,0.0,0.0,0.0,0.0,0.0,0.0,0.0,0.0,0.0,0.0,0.0,0.0,0.0,0.0,0.0,0.0,0.0,0.0,0.0,0.0,0.0,0.0,0.0,0.0,0.0,0.0,0.0,0.0,0.0,0.0,0.0,0.0,0.0,0.0,0.0,0.0,0.0,0.0,0.0,0.0,0.0,0.0,0.0,0.0,0.0,0.0,0.0,0.0,0.0,0.0,0.0,0.0,0.0,0.0,0.0,0.0,0.0,0.0,0.0,0.0,0.0,0.0,0.0,0.0,0.0,0.0,0.0,0.0,0.0,0.0,0.0,0.0,0.0,0.0,0.0,0.0,0.0,0.0,0.0,0.0,0.0,0.0,0.0,0.0,0.0,0.0,0.0,0.0,0.0,0.0,0.0,0.0,0.0,0.0,0.0,0.0,0.0,0.0,0.0,0.0,0.0,0.0,0.0,0.0,0.0,0.0,0.0,0.0,0.0,0.0,0.0,0.0,0.0,0.0,0.0,0.0,0.0,0.0,0.0,0.0,0.0,0.0,0.0,0.0,0.0,0.0,0.0,0.0,0.0,0.0,0.0,0.0,0.0,0.0,0.0,0.0,0.0,0.0,0.0,0.0,0.0,0.0,0.0,0.0,0.0,0.0,0.0,0.0,0.0,0.0,0.0,0.0,0.0,0.0,0.0,0.0,0.0,0.0,0.0,0.0,0.0,0.0,0.0,0.0,0.0,0.0,0.0,0.0,0.0,0.0,0.0,0.0,0.0,0.0,0.0,0.0,0.0,0.0,0.0,0.0,0.0,0.0,0.0,0.0,0.0,0.0,-4.0992,0.0,0.0,0.0,0.0,0.0,0.0,0.0,0.0,0.0,0.0,0.0,0.0,0.0,0.0,0.0,0.0,0.0,0.0,0.0,0.0,0.0,0.0,0.0,0.0,-1.4912,-1.5728,-1.6289,-1.6332,-1.646,-1.673,0.0,0.0,0.0,0.0,0.0,-1.7997,-1.8321,-1.9405,-2.1254,-2.2216,-2.3489,-2.5039,-2.4126,-2.3193,-2.2159,0.0,0.0,0.0,0.0,0.0,0.0,0.0,0.0,0.0,0.0,0.0,0.0,0.0,0.0,0.0,0.0,0.0,0.0,0.0,0.0,0.0,0.0,0.0,0.0,0.0,0.0,0.0,0.0,0.0,0.0,0.0,0.0,0.0,0.0,0.0,0.0,0.0,0.0,0.0,0.0,0.0,0.0,0.0,0.0,0.0,0.0,0.0,0.0,0.0,0.0,0.0,0.0,0.0,0.0,0.0,0.0,0.0,0.0,0.0,0.0,0.0,0.0,0.0,0.0,0.0,0.0,0.0,0.0,0.0,0.0,0.0,-4.2734,0.0,0.0,0.0,0.0,0.0,0.0,0.0,0.0,0.0,0.0,0.0,0.0,0.0,0.0,0.0,0.0,0.0,0.0,0.0,0.0,0.0,-1.4118,-1.5351,-1.6319,-1.735,-1.8521,-1.8519,-1.8484,-1.8583,-1.8472,0.0,0.0,0.0,-1.8635,-1.9198,-1.9885,-2.1204,-2.3212,-2.4933,-2.6757,-2.8633,-2.9495,-2.873,-2.644,-2.3217,0.0,0.0,0.0,0.0,0.0,0.0,0.0,0.0,0.0,0.0,0.0,0.0,0.0,0.0,0.0,0.0,0.0,0.0,0.0,0.0,0.0,0.0,0.0,0.0,0.0,0.0,0.0,0.0,0.0,0.0,0.0,0.0,0.0,0.0,0.0,0.0,0.0,0.0,0.0,0.0,0.0,0.0,0.0,0.0,0.0,0.0,0.0,0.0,0.0,0.0,0.0,0.0,0.0,0.0,0.0,0.0,0.0,0.0,0.0,0.0,0.0,0.0,0.0,0.0,-5.6444,-5.6293,-5.3207,-5.279,-5.423,-5.1161,-4.8446,-4.5974,0.0,0.0,0.0,0.0,0.0,0.0,0.0,0.0,0.0,0.0,0.0,0.0,0.0,0.0,0.0,0.0,0.0,0.0,0.0,0.0,-1.5997,-1.7691,-1.8398,-1.9265,-2.0584,-2.0172,-2.0014,-2.0501,-1.9984,0.0,0.0,-1.9479,-1.9812,-2.0444,-2.1118,-2.2709,-2.5226,-2.882,-3.1301,-3.2736,-3.3455,-3.348,-3.2901,-3.0835,-2.723,-2.2521,0.0,0.0,0.0,0.0,0.0,0.0,0.0,0.0,0.0,0.0,0.0,0.0,0.0,0.0,0.0,0.0,0.0,0.0,0.0,0.0,0.0,0.0,0.0,0.0,0.0,0.0,0.0,0.0,0.0,0.0,0.0,0.0,0.0,0.0,0.0,0.0,0.0,0.0,0.0,0.0,0.0,-3.0496,-3.7161,0.0,0.0,0.0,0.0,0.0,0.0,0.0,0.0,0.0,0.0,0.0,0.0,0.0,0.0,-5.1122,-5.3065,-5.5564,-5.8602,-5.7963,-5.7506,-5.7123,-5.6652,-5.6264,-5.5905,-5.5421,0.0,-4.8937,-4.7531,0.0,0.0,0.0,0.0,0.0,0.0,0.0,0.0,0.0,0.0,0.0,0.0,0.0,0.0,0.0,0.0,0.0,0.0,0.0,0.0,0.0,-1.988,-2.1176,-2.2403,-2.2942,-2.2973,-2.2435,-2.1836,-2.1267,-2.0827,-2.0468,-2.0737,-2.1784,-2.3191,-2.5914,-3.0043,-3.2527,-3.4412,-3.5699,-3.5998,-3.5596,-3.4611,-3.4747,-3.2312,-2.7885,-2.548,0.0,0.0,0.0,0.0,0.0,0.0,0.0,0.0,0.0,0.0,0.0,0.0,0.0,0.0,0.0,0.0,0.0,0.0,0.0,0.0,0.0,0.0,0.0,0.0,0.0,0.0,0.0,0.0,0.0,0.0,0.0,0.0,0.0,0.0,0.0,0.0,0.0,0.0,0.0,-2.7803,-3.2131,-3.7236,-3.6376,-3.4809,0.0,0.0,0.0,0.0,0.0,0.0,0.0,0.0,0.0,-4.1187,-4.7883,-5.3088,-5.6598,-5.7545,-5.8261,-5.8641,-5.8723,-5.8468,-5.7921,-5.8025,-5.79,-5.76,-5.7298,-5.6068,-5.4059,-5.1373,-4.9364,-4.7807,0.0,0.0,0.0,0.0,0.0,-4.6185,0.0,0.0,0.0,0.0,0.0,0.0,0.0,0.0,0.0,0.0,0.0,0.0,-2.0002,-2.1649,-2.3216,-2.4754,-2.5465,-2.5495,-2.4657,-2.3571,-2.2733,-2.2203,-2.1395,-2.1665,-2.3131,-2.5944,-2.9475,-3.3754,-3.5429,-3.6806,-3.7913,-3.7933,-3.7222,-3.6093,-3.7368,-3.5346,-3.1011,-3.0306,-2.7708,0.0,0.0,0.0,0.0,0.0,0.0,0.0,0.0,0.0,0.0,0.0,0.0,0.0,0.0,0.0,0.0,0.0,0.0,0.0,0.0,0.0,0.0,0.0,0.0,0.0,0.0,0.0,0.0,0.0,0.0,0.0,0.0,0.0,0.0,0.0,0.0,0.0,0.0,-2.8579,-3.275,-3.7547,-3.9559,-3.9249,0.0,0.0,0.0,0.0,0.0,0.0,-4.4769,-4.3675,-4.4681,-4.8433,-5.2459,-5.6162,-5.9477,-5.932,-5.9045,-5.8604,-5.9161,-5.9364,-5.9135,-5.9284,-5.9357,-5.9332,-5.8905,-5.873,-5.8453,-5.4863,-5.2955,-5.2176,-5.0469,-4.9565,-4.9364,-5.0469,-5.0419,-5.0167,0.0,0.0,0.0,0.0,0.0,0.0,0.0,0.0,0.0,0.0,0.0,-2.0079,-2.3067,-2.4044,-2.5508,-2.8128,-2.723,-2.6806,0.0,-2.5009,-2.355,-2.352,-2.2323,-2.2562,-2.4455,-2.9507,-3.2916,-3.4444,-3.6985,-3.8601,-3.9284,-3.9297,-3.9276,-3.9182,-3.9279,-3.5761,-3.0136,-3.3625,-3.3333,-3.0192,0.0,0.0,0.0,0.0,0.0,0.0,0.0,0.0,0.0,0.0,0.0,0.0,0.0,0.0,0.0,0.0,0.0,0.0,0.0,0.0,0.0,0.0,0.0,0.0,0.0,0.0,0.0,0.0,0.0,0.0,0.0,0.0,0.0,0.0,0.0,0.0,0.0,0.0,0.0,-4.1631,-4.276,0.0,0.0,0.0,0.0,-4.2479,-4.5389,-4.7931,-4.9916,-4.8445,-4.9779,-5.4527,-5.7604,-5.9267,-5.9496,-5.8803,-5.911,-6.0429,-5.979,-6.0088,-6.104,-6.104,-6.1065,-6.1065,-6.104,-6.1014,-6.0788,-5.7951,-5.6143,-5.5164,-5.5064,-5.4059,-5.2804,-5.3909,-5.3632,-5.2879,0.0,0.0,0.0,-1.4315,-1.4497,-1.4584,-1.4858,-1.5462,-1.6268,-1.7348,-1.9028,-2.103,-2.3349,-2.5345,-2.726,-2.9056,-2.9564,-2.9505,-2.8933,-2.6782,-2.5914,-2.6782,-2.5136,-2.6123,-3.0253,-3.2587,-3.504,-3.7644,-3.8026,-3.8911,-4.0241,-4.0547,-4.0232,-3.9463,-4.0275,-3.9858,-3.8547,-3.909,-3.7669,-3.4788,-3.0966,-2.7794,0.0,0.0,0.0,0.0,0.0,0.0,0.0,0.0,0.0,0.0,0.0,0.0,0.0,0.0,0.0,0.0,0.0,0.0,0.0,0.0,0.0,0.0,0.0,0.0,0.0,0.0,0.0,0.0,0.0,0.0,0.0,0.0,0.0,0.0,0.0,0.0,0.0,-4.6486,-4.5982,0.0,0.0,-4.3721,-4.5615,-4.7154,-4.9515,-5.1289,-5.196,-5.3236,-5.452,-5.5803,-5.8907,-6.0482,-6.0202,-6.0453,-6.07,-6.0975,-6.0939,-6.101,-6.119,-6.1933,-6.1802,-6.119,-6.119,-6.119,-6.109,-5.9709,-5.8704,-5.7951,-5.7273,-5.6646,-5.6168,-5.657,-5.6219,-5.5641,-1.2288,-1.2803,0.0,-1.4299,-1.4726,-1.5023,-1.5299,-1.6089,-1.6991,-1.7905,-2.015,-2.2443,-2.4388,-2.6806,-2.8813,-3.0133,-3.0821,-3.0883,-3.0283,-2.8368,-2.7769,-2.8876,-2.8068,-2.9445,-3.3395,-3.5011,-3.6828,-3.8954,-3.8987,-3.9661,-4.0931,-4.1224,-4.1148,-4.0761,-4.165,-4.2505,-4.3235,-4.2393,-4.0691,-3.8179,-3.4651,-3.2068,-3.0046,0.0,0.0,0.0,0.0,0.0,0.0,0.0,0.0,0.0,0.0,0.0,0.0,0.0,0.0,0.0,0.0,0.0,0.0,0.0,0.0,0.0,0.0,0.0,0.0,0.0,0.0,0.0,0.0,0.0,0.0,0.0,0.0,0.0,0.0,0.0,-4.4212,-4.7519,-4.8284,-4.7381,-4.4378,-4.7681,-5.0182,-5.0705,-5.2767,-5.4148,-5.4394,-5.6699,-5.7851,-5.7624,-6.0045,-6.1165,-6.0831,-6.1331,-6.15,-6.1336,-6.1582,-6.1682,-6.1743,-6.2512,-6.2381,-6.1743,-6.1743,-6.1743,-6.1692,-6.1115,-6.0563,-5.996,-5.8855,-5.8328,-5.8177,-5.8177,-5.7801,-5.7298,-1.0966,-1.2494,-1.3931,-1.4346,-1.5165,-1.5802,-1.58,-1.6877,-1.7938,-1.8612,-2.1545,-2.4358,-2.6363,-2.8423,-3.0103,-3.1391,-3.0913,-3.0821,-3.1451,-2.9687,-2.8936,-2.9681,-3.0943,-3.2288,-3.3634,-3.6806,-3.8365,-3.8243,-3.9906,-4.0961,-4.1448,-4.1448,-4.2168,-4.3419,-4.3389,-4.3349,-4.3379,-4.3349,-4.2381,-4.0531,-3.6946,-3.5516,-3.5155,0.0,0.0,0.0,0.0,0.0,0.0,0.0,0.0,0.0,0.0,0.0,0.0,0.0,0.0,0.0,0.0,0.0,0.0,0.0,0.0,0.0,0.0,0.0,0.0,0.0,0.0,0.0,0.0,0.0,0.0,0.0,0.0,0.0,-3.7936,-4.3022,-4.6011,-4.4957,-4.9583,-5.1245,-4.6908,-5.0486,-5.3003,-5.3063,-5.5029,-5.6548,-5.735,-5.8702,-5.9784,-6.0337,-6.1198,-6.158,-6.1215,-6.1215,-6.1386,-6.1757,-6.1757,-6.2083,-6.2822,-6.2822,-6.2822,-6.2822,-6.2822,-6.2822,-6.2797,-6.2245,-6.1692,-6.109,-5.996,-5.9207,-5.8755,-5.8755,-5.8378,-5.7801,-1.156,-1.2987,-1.427,-1.4381,-1.5183,-1.5816,-1.5784,-1.6877,-1.7938,-1.8612,-2.1545,-2.4358,-2.6363,-2.8423,-3.0103,-3.1391,-3.1331,-3.1301,-3.1481,-3.0133,-3.0043,-3.1629,-3.3903,-3.5968,-3.7764,-3.8661,-3.9725,-4.0948,-4.1139,-4.1742,-4.2792,-4.2792,-4.4018,-4.6163,-4.4881,-4.4648,-4.524,-4.4866,-4.4197,-4.309,-4.0688,-3.8573,-3.6776,0.0,0.0,0.0,0.0,0.0,0.0,0.0,0.0,0.0,0.0,0.0,0.0,0.0,0.0,0.0,0.0,0.0,0.0,0.0,0.0,0.0,0.0,0.0,0.0,0.0,0.0,0.0,0.0,0.0,0.0,0.0,0.0,-3.7107,-3.4933,-4.2747,-4.9165,-5.0434,-5.2001,-5.2429,-5.1209,-5.3632,-5.566,-5.6479,-5.7073,-5.7849,-5.8854,-5.9837,-6.0619,-6.1303,-6.1752,-6.1898,-6.1793,-6.2169,-6.2446,-6.249,-6.249,-6.2565,-6.2822,-6.2822,-6.2822,-6.2822,-6.2822,-6.2822,-6.2797,-6.2245,-6.1918,-6.1667,-6.0537,-5.9759,-5.9282,-5.9282,-5.8704,-5.7801,-1.179,-1.3058,-1.4132,-1.4132,-1.506,-1.5799,-1.5799,-1.6877,-1.8027,-1.9001,-2.1994,-2.4687,-2.6393,-2.8423,-2.9894,-3.0642,-3.0941,-3.0972,-3.0731,-3.0761,-3.1689,-3.3664,-3.6028,-3.7943,-3.9379,-4.0217,-4.101,-4.1751,-4.2049,-4.2574,-4.329,-4.3858,-4.4861,-4.6164,-4.5322,-4.5248,-4.568,-4.5406,-4.5065,-4.4616,-4.318,-4.1354,-3.9445,-3.9154,-3.7131,-3.4382,-3.4361,-3.3186,-3.1304,-2.9117,0.0,0.0,0.0,0.0,0.0,0.0,0.0,0.0,0.0,0.0,0.0,0.0,0.0,0.0,0.0,0.0,0.0,0.0,0.0,0.0,0.0,0.0,0.0,0.0,-3.7965,-4.0112,-4.1215,-4.69,-5.1129,-5.1472,-5.2316,-5.3283,-5.4215,-5.5491,-5.6889,-5.8442,-5.7724,-5.7861,-5.9426,-6.0767,-6.1475,-6.1517,-6.2044,-6.2345,-6.2345,-6.2672,-6.2822,-6.2822,-6.2822,-6.2822,-6.2822,-6.2822,-6.2822,0.0,-6.2822,-6.2822,-6.2797,-6.2471,-6.222,0.0,0.0,0.0,0.0,0.0,-5.8805,-5.7851,-1.192,-1.2987,-1.3902,-1.3902,-1.4975,-1.5799,-1.5799,-1.6877,-1.8177,-1.9528,-2.2443,-2.4903,-2.6333,-2.8154,-2.9322,-2.9472,-3.0103,-3.0372,-3.0071,-3.1809,-3.3664,-3.5519,-3.7464,-3.8871,-3.9619,-4.1482,-4.2145,-4.1605,-4.2753,-4.3379,-4.3579,-4.474,-4.5202,-4.4989,-4.5286,-4.5454,-4.5514,-4.5514,-4.5484,-4.5364,-4.4766,-4.3718,-4.2381,-4.1085,-3.9798,-3.8452,-3.7255,-3.6058,-3.4614,-3.1756,0.0,0.0,0.0,0.0,0.0,0.0,0.0,0.0,0.0,0.0,0.0,0.0,0.0,0.0,0.0,0.0,0.0,0.0,0.0,0.0,0.0,0.0,0.0,0.0,-3.9833,-4.3636,-5.1731,-5.312,-5.2515,-5.0587,-5.2124,-5.4069,-5.6222,-5.6289,-5.712,-5.9336,-5.7918,-5.7745,-5.9615,0.0,0.0,0.0,0.0,-6.2822,-6.2822,-6.2822,-6.2822,-6.2822,-6.2822,-6.2822,-6.2822,-6.2822,-6.2822,-6.2822,-6.2822,-6.2822,-6.2822,-6.2822,-6.2496,-6.1893,-6.0763,-6.0286,-6.0161,-5.9684,-5.8855,0.0,-1.2715,-1.3688,-1.4603,-1.4603,-1.5289,-1.5799,-1.5799,-1.6877,-1.8177,-1.9528,-2.1684,-2.3759,-2.5585,-2.6602,-2.7645,-2.8697,-2.9834,-3.115,0.0,0.0,-3.534,-3.6267,-3.8182,-3.9768,-4.0965,-4.1931,-4.2581,-4.2912,-4.3169,-4.3867,-4.4941,-4.5199,-4.583,-4.678,-4.6316,-4.6411,-4.692,-4.692,-4.6621,-4.6112,-4.5992,-4.4784,-4.306,-4.2321,-4.1175,-3.9918,-3.914,-3.8691,-3.8072,-3.5659,-3.4057,-3.2674,-3.0319,0.0,0.0,0.0,0.0,0.0,0.0,0.0,0.0,0.0,0.0,0.0,0.0,0.0,0.0,0.0,0.0,0.0,0.0,0.0,0.0,-4.2103,-4.5191,-4.8876,-5.2427,-5.4414,-5.5373,-5.4974,-5.5284,-5.6074,-5.7473,-5.6724,-5.7099,-5.9313,-6.076,-6.1469,-6.1274,-6.2215,0.0,-6.2515,-6.2665,-6.2822,-6.2822,-6.2822,-6.2822,-6.2822,0.0,0.0,-6.2822,-6.2822,-6.2822,-6.2822,-6.2822,-6.2822,-6.2822,-6.2822,-6.2496,-6.1893,-6.0763,-6.006,-5.9633,-5.9533,-5.9106,-5.8504,-1.3913,-1.4346,-1.4796,-1.4796,-1.5335,-1.5904,-1.6189,-1.7071,-1.8177,-1.9528,-2.1337,-2.2919,-2.4021,-2.4942,-2.5621,-2.6057,-2.7889,0.0,0.0,-3.4562,-3.5938,-3.6896,-3.917,-4.0696,-4.1422,-4.2342,-4.3249,-4.3968,-4.3526,-4.4094,-4.5634,-4.6094,-4.6503,-4.6791,-4.6813,-4.701,-4.7309,-4.7309,-4.713,-4.68,-4.6471,-4.5514,-4.4257,-4.3599,-4.2521,-4.1294,-4.0636,-4.0187,-3.946,-3.665,-3.5552,-3.4973,-3.2519,-3.0675,-2.9066,0.0,0.0,0.0,0.0,0.0,0.0,0.0,0.0,0.0,0.0,0.0,0.0,0.0,0.0,-4.3363,-4.4425,0.0,-4.5158,-4.6876,-4.9487,-5.1647,-5.2735,-5.4353,-5.5586,-5.6168,-5.6204,-5.6454,-5.6967,-5.7524,-5.8328,-5.9437,-6.1061,-6.2078,-6.2244,-6.2563,-6.2809,-6.2822,-6.2822,-6.2822,-6.2822,-6.2822,-6.2822,-6.2822,-6.2822,-6.2822,-6.2822,-6.2822,-6.2822,-6.2822,-6.2822,-6.2822,-6.2822,-6.2822,-6.2496,-6.1918,-6.109,-6.0412,-5.9885,-5.9583,-5.9156,-5.8679,-1.5101,-1.5005,-1.5005,-1.5005,-1.5439,-1.5994,-1.6607,-1.7264,-1.8177,-1.9528,-2.1088,-2.224,-2.2566,-2.3498,-2.4112,0.0,0.0,0.0,0.0,-3.4681,-3.6327,-3.7375,-3.9948,-4.1422,-4.1422,-4.2671,-4.3688,-4.4417,-4.4035,-4.4553,-4.6022,-4.6918,-4.7001,-4.6531,-4.707,-4.7309,-4.7309,-4.7309,-4.7309,-4.7249,-4.6591,-4.5903,-4.5214,-4.4436,-4.3489,-4.2488,-4.1692,-4.0733,-3.9469,-3.6864,-3.6306,-3.6333,-3.4257,-3.2776,-3.1558,-3.0377,-2.8653,0.0,0.0,0.0,0.0,0.0,0.0,0.0,0.0,0.0,-3.7992,-3.9102,-4.2233,-4.5162,-4.6673,-4.648,-4.7191,-5.0702,-5.2201,-5.2901,-5.2879,-5.3663,-5.4628,-5.5624,-5.604,-5.6239,-5.6377,-5.8151,-5.944,-5.9814,-6.0742,-6.1702,-6.278,-6.2809,-6.2822,-6.2822,-6.2822,-6.2822,-6.2822,-6.2822,-6.2822,-6.2822,-6.2822,-6.2822,-6.2822,-6.2822,-6.2822,-6.2822,-6.2822,-6.2822,-6.2822,-6.2822,-6.2571,-6.2094,-6.1441,-6.0889,-6.0412,-5.9734,-5.9232,-5.8855,-1.5706,-1.5679,-1.5679,-1.5679,-1.5739,-1.5994,-1.6607,-1.7264,-1.8177,-1.9528,-2.0709,-2.1651,-2.2286,-2.2835,-2.4128,-2.6596,0.0,0.0,-3.3215,-3.5789,-3.7255,-3.7404,-3.9948,-4.1422,-4.1422,-4.2671,-4.3319,-4.3445,-4.4986,-4.5777,-4.6028,-4.689,-4.7292,-4.7189,-4.7279,-4.7309,-4.7309,-4.7309,-4.7309,-4.7249,-4.6591,-4.5903,-4.5155,-4.3958,-4.3367,-4.3051,-4.1828,-3.9866,-3.7866,-3.8007,-3.6937,-3.5589,-3.565,-3.4692,-3.3159,-3.1329,0.0,-3.0108,-3.3245,-3.446,-3.561,-3.8794,-3.7444,-3.6857,0.0,0.0,-4.3011,-4.552,-4.8582,-5.0487,-4.9467,-5.0322,-5.1262,-5.1277,-5.2197,-5.2879,-5.2929,-5.2978,-5.3423,-5.4144,-5.5408,-5.6446,-5.7075,-5.8001,-5.9212,-6.0907,-6.1382,-6.1962,-6.278,-6.2809,-6.2822,-6.2822,-6.2822,-6.2822,-6.2822,-6.2822,-6.2822,-6.2822,-6.2822,-6.2822,-6.2822,-6.2822,-6.2822,-6.2822,-6.2822,-6.2822,-6.2822,-6.2822,-6.2797,-6.2621,-6.1592,-6.114,-6.0964,-5.9885,-5.9458,-5.9332,-1.5814,-1.5808,-1.5812,-1.5788,-1.6097,-1.6533,-1.7174,-1.7848,-1.8642,-1.9588,-2.0526,-2.1133,-2.1118,-2.1321,-2.2288,-2.4407,-2.6573,-2.8936,-3.1569,-3.4981,-3.7015,-3.7404,-3.9948,-4.1422,-4.1422,-4.2671,-4.3589,-4.4116,-4.5106,-4.5969,-4.6761,-4.7113,-4.7309,-4.7309,-4.7309,-4.7309,-4.7309,-4.7309,-4.7309,-4.7249,-4.6591,-4.5903,-4.5125,-4.3419,-4.2073,-4.095,-4.0457,-3.9304,0.0,0.0,-3.6778,-3.6505,-3.6072,-3.4994,-3.3817,-3.3348,-3.282,0.0,-3.6656,-3.7482,-3.8152,0.0,-4.1411,-4.2045,-4.6795,-4.684,-4.6476,-4.8724,-5.0695,-5.1864,-5.1605,-5.211,-5.2484,0.0,-5.2591,-5.2929,-5.2929,-5.2903,-5.2989,-5.3348,-5.4491,-5.5669,-5.6526,-5.77,-5.9211,-6.1076,-6.1324,-6.1827,-6.2734,-6.2829,-6.2822,-6.2822,-6.2822,-6.2822,-6.2822,-6.2822,-6.2822,-6.2822,-6.2822,-6.2822,-6.2822,-6.2822,-6.2822,-6.2822,-6.2822,-6.2822,-6.2797,-6.2471,-6.2345,-6.2245,-6.1115,-6.0688,-6.0588,-5.9784,-5.9483,-5.9562,-1.5964,-1.5952,-1.5988,-1.6057,-1.6629,-1.7243,-1.7801,-1.8551,-1.9304,-1.9976,-2.0698,-2.1039,-2.0683,-2.065,-2.1241,-2.2738,-2.51,-2.765,-3.0313,-3.3903,-3.6357,-3.7375,-3.9619,-4.0995,-4.1422,-4.2491,-4.3479,-4.4317,-4.4866,-4.5698,-4.6768,-4.7152,-4.7173,-4.704,-4.7219,-4.7309,-4.7309,-4.71,-4.704,-4.695,-4.6112,-4.5364,-4.4556,-4.262,-4.0584,-3.8852,-3.8859,-3.7937,0.0,0.0,-3.579,-3.6364,-3.5711,-3.4877,-3.4249,-3.4994,-3.501,-3.5407,-3.8049,0.0,0.0,-4.263,-4.4156,-4.586,-4.8901,-4.9099,-4.9012,-5.0575,-5.1657,-5.2379,-5.2464,-5.2682,-5.2916,-5.2916,-5.2861,-5.2892,-5.2861,-5.2903,-5.2914,-5.2909,-5.3623,-5.4548,-5.5679,-5.7247,-5.8984,-6.0641,-6.1123,-6.1702,-6.2546,-6.2747,-6.2822,-6.2822,-6.2822,-6.2822,-6.2822,-6.2822,-6.2822,-6.2822,-6.2822,-6.2822,-6.2822,-6.2822,-6.2822,-6.2822,-6.2822,-6.2822,-6.2797,-6.2245,-6.1994,-6.1974,-6.1342,-6.1119,-6.1145,-6.1068,-6.071,-6.0532,-1.637,-1.6377,-1.6453,-1.6716,-1.7395,-1.798,-1.8345,-1.9293,-2.0191,-2.0863,-2.1322,-2.1582,-2.1567,-2.1567,-2.2021,-2.3173,-2.5127,-2.7509,-3.031,-3.3066,-3.54,-3.7315,-3.8721,-4.0068,-4.1354,-4.2081,-4.2733,-4.3345,-4.4276,-4.4948,-4.5406,-4.6665,-4.6924,-4.6339,-4.701,-4.7309,-4.7279,-4.6621,-4.6309,-4.619,-4.4915,-4.4018,-4.324,-4.1235,-3.923,-3.743,-3.7464,0.0,0.0,0.0,-3.3806,-3.4153,-3.4453,-3.4485,0.0,-3.564,-3.6129,0.0,0.0,0.0,-4.1601,-4.3338,-4.502,-4.6828,-4.9101,-4.9941,-5.0519,-5.1122,-5.2144,-5.254,-5.1515,-5.222,-5.2928,-5.2928,-5.2886,-5.2909,-5.2886,-5.2903,-5.2909,-5.2911,-5.2928,-5.3367,0.0,-5.6656,-5.8347,-5.9485,-6.0856,-6.1796,-6.1994,-6.2546,-6.2822,-6.2822,-6.2822,-6.2822,-6.2822,-6.2822,-6.2822,-6.2822,-6.2822,-6.2822,-6.2822,-6.2822,-6.2822,-6.2822,-6.2822,-6.2822,-6.2797,-6.2245,-6.1994,-6.2054,-6.2842,-6.3107,-6.3253,-6.4573,-6.3875,-6.2609,-1.6747,-1.6675,-1.695,-1.7831,-1.8202,-1.8705,-1.9722,-2.0035,-2.0283,-2.0517,-2.0926,0.0,0.0,0.0,0.0,0.0,-2.3896,-2.5993,-2.8419,-3.145,-3.3873,-3.54,-3.7554,-3.917,-4.0068,-4.0726,-4.1806,-4.3301,-4.3624,-4.3828,-4.3977,-4.4434,-4.5012,-4.5663,-4.5873,-4.5963,-4.5963,-4.5723,-4.5903,-4.6142,-4.3928,-4.315,-4.306,-4.0187,-3.8123,-3.6753,0.0,0.0,0.0,-3.2765,-3.2912,-3.3171,-3.4168,0.0,0.0,-3.4969,0.0,-3.8192,-3.9828,0.0,-4.3858,-4.5598,-4.6979,-4.8335,-4.9816,-5.0293,-5.0469,-5.067,-5.0685,-5.0821,-5.1254,-5.1405,-5.1798,-5.2766,-5.2911,-5.3394,-5.4868,-5.3828,-5.2878,-5.2911,-5.4214,0.0,0.0,0.0,0.0,-5.9332,-6.0292,-6.1097,-6.1788,-6.2415,-6.2822,-6.2822,-6.2822,-6.2822,-6.2822,-6.2822,-6.2822,-6.2822,-6.2822,-6.2822,-6.2822,-6.2822,-6.2822,-6.2822,-6.2822,-6.3767,-6.5422,-6.4639,-6.4682,-6.5297,-6.4706,-6.451,-6.47,-6.6454,-6.6747,-6.6174,-1.7885,-1.7519,-1.7565,-1.8867,-1.9565,0.0,0.0,0.0,0.0,0.0,0.0,0.0,0.0,0.0,0.0,0.0,0.0,-2.4884,-2.71,-2.9654,-3.1898,-3.3694,-3.5595,-3.7041,-3.8003,-3.8667,-4.0168,-4.2615,-4.2633,-4.2115,-4.119,-4.1685,-4.2486,-4.3569,-4.3808,-4.3898,-4.3868,-4.3658,-4.3808,-4.4047,-4.2102,-4.1294,-4.0995,-3.8601,-3.6746,0.0,0.0,0.0,0.0,-3.1687,-3.2018,-3.2736,0.0,0.0,0.0,0.0,-3.7593,-4.0275,-4.2456,-4.4116,-4.5623,-4.7193,-4.8385,-4.9289,-4.9987,-5.0127,-5.0222,-5.0484,-5.0002,-4.9406,-4.884,-4.7645,-4.7945,-5.1524,-5.2537,-5.3691,-5.5891,-5.428,-5.3162,-5.4004,-5.4653,-5.5501,0.0,0.0,0.0,-5.8957,-6.0065,-6.0842,-6.1251,-6.2289,-6.2822,-6.2822,-6.2822,-6.2822,-6.2822,-6.2822,-6.2822,-6.2822,-6.2822,-6.2822,-6.2822,-6.2822,-6.2822,-6.2797,-6.277,-6.3792,-6.5476,-6.6887,-6.74,-6.7384,-6.6845,-6.6469,-6.651,-6.8354,-6.9086,-6.9028,-1.9505,-1.8761,-1.8267,0.0,0.0,0.0,0.0,0.0,0.0,0.0,0.0,0.0,0.0,0.0,0.0,0.0,0.0,0.0,-2.6381,-2.7739,0.0,-3.2198,-3.2901,-3.3906,-3.537,-3.5947,-3.7833,-4.1103,-4.1175,-3.9819,-3.7207,-3.8502,-3.9505,-4.0277,-4.0935,-4.1272,-4.1175,-4.0576,-4.0307,-4.0277,-3.9529,-3.8482,-3.7285,-3.6626,0.0,0.0,0.0,0.0,0.0,0.0,0.0,0.0,0.0,0.0,0.0,0.0,0.0,-4.2381,-4.4274,-4.5598,-4.6742,-4.8234,-4.9099,-4.9601,-4.9526,-4.9521,-4.9659,-5.0234,-4.9738,-4.8137,-4.4527,0.0,-4.2185,-4.9001,-5.1623,-5.3647,-5.589,-5.4373,-5.3856,0.0,0.0,0.0,0.0,0.0,0.0,-5.8454,0.0,-6.0975,-6.0647,-6.1983,-6.2822,-6.2822,-6.2822,-6.2822,-6.2822,-6.2822,-6.2797,-6.2829,-6.2829,-6.2803,-6.2834,-6.3017,-6.3123,-6.3073,-6.3094,-6.3259,-6.3831,-6.8935,-7.0058,-6.8586,-6.9088,-6.8893,-6.8509,-7.0272,-7.0889,-7.0889,0.0,0.0,0.0,0.0,0.0,0.0,0.0,0.0,0.0,0.0,0.0,0.0,0.0,0.0,0.0,0.0,0.0,0.0,-2.5009,0.0,0.0,0.0,0.0,-3.2103,-3.3963,-3.4148,0.0,0.0,0.0,-3.7067,-3.4472,-3.4835,-3.6158,-3.8182,-3.8871,-3.914,-3.914,-3.896,-3.92,-3.9499,0.0,-3.6596,-3.6596,0.0,0.0,0.0,0.0,0.0,0.0,0.0,0.0,0.0,0.0,0.0,-3.8568,0.0,0.0,-4.3319,-4.625,-4.7494,-4.8234,-4.9576,-4.9791,-4.9389,-4.8509,-4.8021,-4.7316,-4.5851,-4.477,-4.3391,-4.1254,0.0,0.0,-4.2592,-4.7653,0.0,-5.5776,-5.5732,0.0,-5.6103,0.0,-5.8122,-5.8997,-5.9085,0.0,0.0,-5.9629,-6.0247,-6.1041,-6.2183,-6.2822,-6.2822,-6.2822,-6.2822,-6.2822,-6.2822,-6.2795,-6.278,-6.278,-6.279,-6.2868,-6.5956,-6.7319,-6.7368,-6.7354,-6.9065,-7.1846,-7.2576,-7.304,-7.3083,-7.1681,-7.1066,-7.0925,-7.0938,-7.0889,-7.0889,0.0,0.0,0.0,0.0,0.0,0.0,0.0,0.0,0.0,0.0,0.0,0.0,0.0,0.0,0.0,0.0,0.0,0.0,0.0,0.0,0.0,0.0,0.0,-2.986,-3.13,-3.2158,0.0,0.0,0.0,0.0,0.0,-3.199,-3.304,-3.4829,-3.5519,-3.5818,-3.5818,-3.6118,0.0,0.0,0.0,0.0,0.0,0.0,0.0,0.0,0.0,0.0,0.0,0.0,0.0,-4.0031,-3.9338,-4.0648,-4.2774,-4.4019,0.0,-4.5045,-4.7883,-4.8798,-4.9135,-4.9871,-4.9436,-4.8397,-4.6623,-4.6465,-4.5853,-4.2649,-4.1504,0.0,-3.7344,-3.989,0.0,0.0,0.0,0.0,-5.4239,-5.5591,-5.6522,0.0,-5.8703,0.0,-6.0201,-6.025,-6.0342,0.0,-6.0501,-6.0667,-6.116,-6.2258,-6.2822,-6.2822,-6.2822,-6.2822,-6.2822,-6.28,-6.2799,-6.279,-6.2819,-6.4025,-6.6508,-6.9968,-7.0894,-6.9782,0.0,-7.1735,-7.489,-7.4362,-7.4,-7.3619,-7.2937,-7.2152,-7.1398,-7.1038,-7.0889,-7.0889,0.0,0.0,0.0,0.0,0.0,0.0,0.0,0.0,0.0,-2.0667,0.0,0.0,0.0,0.0,0.0,0.0,0.0,0.0,0.0,0.0,0.0,0.0,0.0,-2.7666,-2.8577,0.0,0.0,0.0,0.0,0.0,0.0,0.0,0.0,0.0,0.0,0.0,0.0,0.0,0.0,0.0,0.0,0.0,0.0,0.0,0.0,0.0,0.0,0.0,0.0,0.0,-4.2822,-4.3901,-4.5653,-4.6338,-4.7082,-4.9885,-4.8811,-4.7182,-4.9482,-4.9909,-4.9741,-4.9716,-4.8682,-4.7132,-4.4883,-4.4954,-4.4245,-4.0,0.0,-3.7766,-3.3818,-3.6648,-3.9783,-4.0523,0.0,-4.815,-5.233,-5.4832,-5.6994,-5.9209,-5.9541,-5.997,-6.1059,-6.1287,-6.1612,-6.1943,-6.1913,-6.1702,-6.144,-6.2308,-6.2822,-6.2822,-6.2822,-6.2822,-6.2822,-6.277,-6.2763,-6.2819,-6.2783,-6.5822,-7.1482,-7.3822,-7.3633,-7.1471,0.0,0.0,-7.4898,-7.4922,-7.3903,-7.2447,-7.3207,-7.2523,-7.1038,-7.0949,-7.0889,-7.0889,0.0,0.0,0.0,0.0,0.0,0.0,0.0,0.0,0.0,0.0,-2.1602,-2.1203,0.0,0.0,0.0,0.0,0.0,0.0,0.0,0.0,0.0,0.0,0.0,0.0,0.0,0.0,0.0,0.0,0.0,0.0,0.0,0.0,0.0,0.0,0.0,0.0,0.0,0.0,0.0,0.0,0.0,0.0,0.0,0.0,0.0,0.0,0.0,0.0,0.0,0.0,-4.4043,-4.5383,-4.6748,-4.7865,-4.9152,-5.1596,-5.0624,-4.9374,-5.2145,-5.1692,-5.0496,-5.0293,-4.8407,-4.6491,-4.6,-4.3284,0.0,0.0,-3.542,-3.4514,-3.3289,-3.6225,-3.9016,-3.9761,0.0,0.0,0.0,0.0,-5.7023,0.0,0.0,0.0,0.0,0.0,0.0,0.0,0.0,0.0,-6.254,-6.2665,-6.2822,-6.2822,-6.2822,-6.2822,-6.2822,-6.2809,-6.2805,-6.2778,-6.2772,-6.6835,-7.4258,-7.4733,-7.4634,-7.4228,0.0,0.0,-7.4901,-7.4924,-7.4286,-7.3328,-7.313,-7.2559,-7.1918,-7.1128,-7.0889,-7.0889,0.0,0.0,0.0,0.0,0.0,0.0,0.0,0.0,-2.3615,-2.4435,-2.4438,-2.3958,-2.2804,-2.2607,0.0,0.0,0.0,0.0,0.0,0.0,0.0,0.0,0.0,0.0,0.0,0.0,0.0,0.0,0.0,0.0,0.0,0.0,0.0,0.0,0.0,0.0,0.0,0.0,0.0,0.0,0.0,0.0,0.0,0.0,0.0,0.0,0.0,0.0,0.0,0.0,-4.2512,-4.5345,-4.7887,-4.9135,-5.0313,-5.3683,-5.2715,-5.0905,-5.2668,-5.2481,-5.152,-5.0291,-4.856,-4.6696,-4.4981,0.0,0.0,0.0,-3.2632,-3.2139,-3.1512,0.0,0.0,0.0,0.0,0.0,0.0,0.0,0.0,0.0,0.0,0.0,0.0,0.0,0.0,0.0,0.0,0.0,-6.2822,-6.2822,-6.2822,-6.2822,-6.2822,-6.2815,-6.2792,-6.2792,-6.2793,-6.2865,-6.7102,-7.1109,-7.4869,-7.4869,-7.4869,-7.4869,-7.4869,0.0,-7.427,-7.4692,-7.4121,-7.293,-7.3677,-7.2942,-7.1463,-7.1038,-7.0894,-7.0903,0.0,0.0,0.0,0.0,0.0,0.0,0.0,-2.382,-2.5008,-2.6754,-2.7255,-2.6764,-2.4857,-2.4158,-2.3549,0.0,0.0,0.0,0.0,0.0,0.0,0.0,0.0,0.0,0.0,0.0,0.0,0.0,0.0,0.0,0.0,0.0,0.0,0.0,0.0,0.0,0.0,0.0,0.0,0.0,0.0,0.0,0.0,0.0,0.0,0.0,0.0,0.0,0.0,0.0,-3.9925,-4.2644,-4.7425,-4.9351,-5.061,-5.4613,-5.3669,-5.1585,-5.2788,-5.2651,-5.1727,-5.0053,-4.8738,-4.7189,-4.4335,-3.9556,0.0,0.0,-3.0638,-3.0548,-3.0105,0.0,0.0,0.0,0.0,0.0,0.0,0.0,0.0,0.0,0.0,0.0,0.0,0.0,0.0,0.0,0.0,0.0,0.0,-6.2822,-6.2822,-6.2822,-6.2822,-6.277,-6.2808,-6.4479,-6.45,-6.2928,-7.0991,-7.494,-7.4869,-7.4869,-7.4869,-7.4869,-7.4869,0.0,0.0,-7.4234,-7.358,-7.2313,-7.3532,-7.2767,-7.0889,-7.0889,-7.0933,-7.0821,0.0,0.0,0.0,0.0,0.0,0.0,0.0,-2.4726,-2.6695,-2.8918,-2.867,-2.8237,-2.814,-2.6481,-2.4882,0.0,0.0,0.0,0.0,0.0,0.0,0.0,0.0,0.0,0.0,0.0,0.0,0.0,0.0,0.0,0.0,0.0,0.0,0.0,0.0,0.0,0.0,0.0,0.0,0.0,0.0,0.0,0.0,0.0,0.0,0.0,0.0,0.0,0.0,0.0,0.0,-3.5247,-4.322,-4.7369,-4.9924,-5.2707,0.0,0.0,-5.3426,-5.2041,-4.9861,-4.9685,-4.8746,-4.7604,-4.6308,0.0,0.0,-3.0399,-2.9909,-3.0119,-3.0676,-3.0595,0.0,0.0,0.0,-4.0434,0.0,0.0,0.0,0.0,0.0,0.0,0.0,0.0,0.0,0.0,0.0,0.0,0.0,-6.2822,-6.2822,-6.2822,-6.2822,-6.2772,-6.2778,-7.0069,-7.009,-6.2888,-7.1035,-7.4897,-7.4869,-7.4869,-7.4869,-7.4869,0.0,0.0,0.0,-7.3253,-7.2721,-7.2128,-7.1528,-7.1103,-7.0889,-7.0889,-7.0933,-7.0577,0.0,0.0,0.0,0.0,0.0,0.0,0.0,-2.3929,-2.5468,-2.8472,-2.8303,-2.7963,-2.7997,-2.6916,-2.5495,0.0,0.0,0.0,0.0,0.0,0.0,0.0,0.0,0.0,0.0,0.0,0.0,0.0,0.0,0.0,0.0,0.0,0.0,0.0,0.0,0.0,0.0,0.0,0.0,0.0,0.0,0.0,0.0,0.0,0.0,0.0,0.0,0.0,0.0,0.0,0.0,0.0,-3.7396,-4.0203,0.0,0.0,-4.7943,-4.8922,-5.0462,-5.1182,-5.1028,-4.8851,-4.759,-4.6821,-4.6427,0.0,-3.087,-2.9955,-2.9802,-2.9918,-3.017,-3.0015,-3.0084,0.0,-3.4843,-3.8666,-4.1287,0.0,0.0,0.0,0.0,0.0,0.0,0.0,0.0,0.0,0.0,0.0,0.0,-6.2822,-6.2822,-6.2822,-6.2822,-6.279,-6.2825,-6.601,-6.6028,-6.287,-7.1033,-7.4856,-7.4906,-7.4906,-7.489,-7.4898,0.0,0.0,0.0,-7.4164,-7.3006,-7.1403,-7.1038,-7.0889,-7.0889,-7.0889,-7.0907,-7.0528,0.0,0.0,0.0,0.0,0.0,-2.1908,-2.3319,-2.3777,-2.4986,-2.7942,-2.8046,-2.7771,-2.7631,-2.6657,-2.5435,-2.4029,0.0,0.0,0.0,0.0,0.0,0.0,0.0,0.0,0.0,0.0,0.0,0.0,0.0,0.0,0.0,0.0,0.0,0.0,0.0,0.0,0.0,0.0,0.0,0.0,0.0,0.0,0.0,0.0,0.0,0.0,0.0,0.0,0.0,0.0,0.0,0.0,0.0,0.0,0.0,0.0,-4.4536,-4.6421,-4.7856,-4.9531,-5.0199,-4.7257,-4.5446,-4.4369,0.0,-3.7294,-3.0589,-2.9915,-2.9804,-2.9804,-2.9804,-3.0321,-3.0801,-3.0754,-3.3941,-3.7473,-4.0607,0.0,0.0,0.0,0.0,0.0,0.0,0.0,0.0,0.0,0.0,0.0,0.0,-6.2822,-6.2822,-6.2822,-6.2822,-6.282,-6.2831,-6.2795,-6.2825,-6.2856,-6.862,-7.1304,-7.1262,-7.0628,-7.0346,-7.0339,0.0,0.0,0.0,-7.3672,-7.3319,-7.0933,-7.0902,-7.0879,-7.0915,-7.0878,-7.0882,-7.0504,0.0,0.0,0.0,0.0,0.0,0.0,0.0,-2.4723,-2.6062,-2.7937,-2.8301,-2.8166,-2.7671,-2.5819,-2.4605,-2.4605,0.0,0.0,0.0,0.0,0.0,0.0,0.0,0.0,0.0,0.0,-2.9864,-3.0492,-3.1839,-3.2108,0.0,0.0,0.0,0.0,0.0,0.0,0.0,0.0,0.0,0.0,0.0,0.0,0.0,0.0,0.0,0.0,0.0,0.0,0.0,0.0,0.0,0.0,0.0,-3.3585,-3.4787,0.0,-4.2649,-4.3645,-4.6357,-4.6782,-4.6087,-4.4903,-4.2157,-3.9779,0.0,-3.6268,-3.2457,-3.0227,-2.9804,-2.9804,-2.9804,-3.1602,-3.3071,-3.3089,-3.4972,-3.6407,-3.6466,0.0,0.0,0.0,0.0,0.0,0.0,0.0,0.0,0.0,0.0,0.0,0.0,0.0,-6.2822,-6.2822,-6.2822,-6.2822,-6.2822,-6.2822,-6.2814,-6.2819,-6.2871,-6.2883,-6.2825,-6.065,0.0,0.0,0.0,0.0,0.0,-7.0692,-7.3297,-7.0905,-7.0886,-7.0916,-7.0867,-7.0921,-7.0882,-7.0537,0.0,0.0,0.0,0.0,0.0,0.0,0.0,-2.2249,-2.2636,-2.4652,-2.4282,-2.4254,-2.5417,-2.4581,-2.4096,-2.4575,0.0,0.0,0.0,0.0,0.0,0.0,0.0,0.0,0.0,-2.8364,-2.9921,-3.0492,-3.1839,-3.2437,-3.2377,-3.2378,0.0,0.0,0.0,0.0,0.0,0.0,0.0,0.0,0.0,0.0,0.0,0.0,0.0,0.0,0.0,0.0,0.0,0.0,0.0,0.0,0.0,0.0,0.0,-3.4328,-3.6502,-3.8381,-4.069,-4.1518,-4.149,-4.0385,-4.0287,-3.9521,-3.5993,-3.3327,-3.1247,-3.0063,-2.9804,-2.9804,-2.9804,-3.0992,-3.3416,-3.7957,-3.6763,0.0,0.0,0.0,0.0,0.0,0.0,0.0,0.0,0.0,0.0,0.0,0.0,0.0,0.0,0.0,-6.2835,-6.282,-6.282,-6.28,-6.2814,-6.2788,-6.2825,-6.2812,-6.1309,-6.0574,-6.0482,-5.9794,0.0,0.0,0.0,0.0,0.0,-6.3052,-6.3875,-6.3068,-6.3115,-6.6321,-7.0896,-7.0921,-7.0882,-7.0537,0.0,0.0,0.0,0.0,0.0,0.0,0.0,-2.1388,-2.1363,-2.2474,-2.2233,-2.2546,-2.4059,-2.364,-2.361,-2.4515,0.0,0.0,0.0,0.0,0.0,0.0,0.0,0.0,-2.5974,-2.8098,-2.9774,-3.0881,-3.1988,-3.2826,-3.345,-3.3696,-3.2766,-3.0895,0.0,0.0,0.0,0.0,0.0,0.0,0.0,0.0,-3.1516,0.0,0.0,0.0,0.0,0.0,0.0,0.0,0.0,0.0,0.0,0.0,0.0,0.0,-3.1883,-3.3884,0.0,-3.7597,-3.7616,-3.545,-3.6732,-3.7608,-3.427,-3.2364,-3.1025,-3.0002,-2.9804,-2.9804,-2.9804,-3.0795,-3.3065,-3.7482,-3.7531,0.0,0.0,0.0,0.0,0.0,0.0,0.0,0.0,0.0,0.0,0.0,0.0,0.0,0.0,0.0,-6.1525,-6.1521,-6.1567,-6.1542,-6.1555,-6.1555,-6.1584,-6.1537,-6.0168,-5.9483,-5.9498,0.0,0.0,0.0,0.0,0.0,0.0,-5.9489,-5.9506,-5.9502,-5.9484,-6.4152,-7.0886,-7.0938,-7.0882,-7.0537,0.0,0.0,0.0,0.0,0.0,0.0,0.0,0.0,0.0,-2.1259,-2.1817,-2.2524,-2.3314,-2.2942,-2.3101,-2.4365,0.0,0.0,0.0,0.0,0.0,0.0,0.0,0.0,-2.6512,-2.7919,-2.9624,-3.1511,-3.2198,-3.3275,-3.4683,-3.5299,-3.356,-2.9913,-3.0777,-3.0631,0.0,0.0,0.0,0.0,0.0,-3.1511,0.0,0.0,0.0,0.0,0.0,0.0,0.0,0.0,0.0,0.0,0.0,0.0,0.0,0.0,0.0,0.0,0.0,-3.4751,-3.428,-3.0675,-3.2117,-3.4325,-3.3962,-3.287,0.0,-3.0069,-2.9804,-2.9854,-3.0069,-3.116,-3.2387,-3.3462,0.0,0.0,0.0,0.0,0.0,0.0,0.0,0.0,0.0,0.0,0.0,0.0,0.0,0.0,0.0,0.0,0.0,-5.9491,-5.9474,-5.9464,-5.9464,-5.9464,-5.9474,-5.9491,-5.9491,-5.9473,-5.9483,0.0,0.0,0.0,0.0,0.0,0.0,-5.9483,-5.9483,-5.9461,-5.9513,-6.4193,-7.0902,-7.0918,-7.0916,-7.0507,0.0,0.0,0.0,0.0,0.0,0.0,0.0,0.0,0.0,0.0,-2.0492,-2.0939,-2.1345,-2.1724,-2.2263,0.0,0.0,0.0,0.0,0.0,0.0,0.0,0.0,0.0,-2.5824,-2.8158,-3.0073,-3.1511,-3.2706,-3.4294,-3.628,-3.6421,-3.4416,-3.0615,-2.8588,-2.8457,0.0,0.0,0.0,0.0,-3.1511,-3.1511,0.0,0.0,0.0,0.0,-3.1486,-3.1721,0.0,0.0,0.0,0.0,0.0,0.0,0.0,0.0,-2.7394,-2.7791,-3.0264,0.0,-3.1464,-3.0098,-3.0679,-3.1452,0.0,-3.0867,-3.0698,-2.9955,-2.9804,-3.05,-3.2749,-3.2592,-3.3607,0.0,0.0,0.0,0.0,0.0,0.0,0.0,0.0,0.0,0.0,0.0,0.0,0.0,0.0,0.0,0.0,0.0,0.0,-5.9531,-5.9528,-5.9501,-5.9501,-5.9501,-5.9528,-5.9531,-5.9531,-5.9481,-5.9483,-5.9483,0.0,0.0,0.0,0.0,-5.9483,-5.9483,-5.9483,-5.9461,-5.9513,-6.4127,-7.0894,-7.0915,-7.0899,-7.0518,0.0,0.0,0.0,0.0,0.0,0.0,0.0,0.0,0.0,0.0,0.0,0.0,0.0,0.0,0.0,0.0,0.0,0.0,0.0,0.0,0.0,0.0,0.0,-2.5615,-2.5615,-2.7919,-2.9924,-3.1511,-3.2527,-3.4144,-3.6184,-3.6228,-3.4531,-3.1456,-2.9062,-2.8663,0.0,0.0,0.0,0.0,-3.1511,0.0,0.0,0.0,0.0,0.0,-2.8135,-2.9332,0.0,-2.7643,-2.7608,-2.8734,0.0,0.0,0.0,0.0,-2.6731,-2.6742,-2.7952,-2.8966,-3.0087,-3.168,-3.1135,-3.0343,-3.0788,0.0,0.0,0.0,0.0,0.0,0.0,0.0,0.0,0.0,0.0,0.0,0.0,0.0,0.0,0.0,0.0,0.0,0.0,0.0,0.0,0.0,0.0,0.0,0.0,0.0,0.0,0.0,-5.9483,-5.9483,-5.9483,-5.9483,-5.9483,-5.9483,-5.9483,-5.9483,-5.9483,-5.9483,0.0,0.0,0.0,0.0,-5.9483,-5.9489,-5.9516,-5.9512,-5.9496,-6.4152,-7.076,-6.9565,-6.913,-6.887,0.0,0.0,0.0,0.0,0.0,0.0,0.0,0.0,0.0,0.0,0.0,0.0,0.0,0.0,0.0,0.0,0.0,0.0,0.0,0.0,0.0,0.0,-2.4858,-2.5634,-2.5669,-2.7693,-2.9632,-3.1426,-3.2348,-3.3784,-3.5639,-3.5759,-3.4496,-3.2069,-3.0159,-2.9414,0.0,0.0,0.0,0.0,0.0,0.0,0.0,0.0,0.0,0.0,0.0,0.0,0.0,-2.7364,-2.7334,-2.8196,-2.7074,0.0,0.0,0.0,0.0,0.0,-2.6492,-2.7819,-3.0121,-3.4012,-3.2592,-3.0615,-3.178,0.0,0.0,0.0,0.0,0.0,0.0,0.0,0.0,0.0,0.0,0.0,0.0,0.0,0.0,0.0,0.0,0.0,0.0,0.0,0.0,0.0,0.0,0.0,0.0,0.0,0.0,0.0,-5.9128,-5.9205,-5.913,-5.9307,-5.9357,-5.9357,-5.9307,-5.9359,-5.9359,-5.9257,0.0,0.0,0.0,0.0,-5.9029,-5.9338,-5.9327,-5.9071,-6.0198,-6.4584,-7.0045,-6.7826,-6.7008,-6.7019,0.0,0.0,0.0,0.0,0.0,0.0,0.0,0.0,0.0,0.0,0.0,0.0,0.0,0.0,0.0,0.0,0.0,0.0,0.0,0.0,0.0,-2.3519,-2.484,-2.5761,-2.61,-2.8296,-3.0008,-3.1168,-3.3204,-3.4921,-3.6357,-3.6866,-3.5287,-3.1802,-2.8484,-2.7511,-2.8494,-3.0601,0.0,0.0,0.0,0.0,0.0,0.0,0.0,0.0,0.0,0.0,0.0,-2.6008,-2.7825,-2.9319,-2.8204,0.0,0.0,0.0,0.0,0.0,-2.6502,-2.8927,-3.2264,-3.5372,-3.4334,-3.2397,-3.1671,0.0,0.0,0.0,0.0,0.0,0.0,0.0,0.0,0.0,0.0,0.0,0.0,0.0,0.0,0.0,0.0,0.0,0.0,0.0,0.0,0.0,0.0,0.0,0.0,0.0,0.0,0.0,0.0,-5.7973,-5.7649,-5.825,-5.8577,-5.8577,-5.8605,-5.8555,-5.853,-5.8278,-5.8152,0.0,0.0,-5.7449,-5.6847,-5.8731,-5.8419,-5.7338,-6.3484,-6.6536,-6.7552,-6.7145,-6.6959,-6.6997,0.0,0.0,0.0,0.0,0.0,0.0,0.0,0.0,0.0,0.0,0.0,0.0,0.0,0.0,0.0,0.0,0.0,0.0,0.0,0.0,-2.3695,-2.3936,-2.4916,-2.5923,-2.6877,-2.8589,-3.0455,-3.2425,-3.3806,-3.5013,-3.5938,-3.5489,-3.3901,-3.1304,-2.8917,-2.8124,-2.8715,-3.0689,-3.1511,-3.1511,0.0,0.0,0.0,0.0,0.0,0.0,0.0,0.0,0.0,0.0,-2.6161,-2.8129,-2.8812,0.0,0.0,0.0,0.0,0.0,-2.7198,-2.992,-3.2995,-3.4778,-3.5061,-3.4919,-3.4931,-3.4048,0.0,0.0,0.0,0.0,0.0,0.0,0.0,0.0,0.0,0.0,0.0,0.0,0.0,0.0,0.0,0.0,0.0,0.0,0.0,0.0,0.0,0.0,0.0,0.0,0.0,0.0,0.0,-5.7624,-5.7625,-5.7625,-5.7826,-5.8152,-5.8152,-5.8026,-5.7776,-5.7876,-5.7776,-5.76,0.0,-5.7225,-5.6825,-5.7472,-5.7146,-5.691,-6.4177,-6.6983,-6.7027,-6.7019,-6.6966,-6.6999,0.0,0.0,0.0,0.0,0.0,0.0,0.0,0.0,0.0,0.0,0.0,0.0,0.0,0.0,0.0,0.0,0.0,0.0,0.0,-2.3241,-2.3441,-2.4063,-2.4559,-2.5764,-2.7769,-2.9001,-3.0863,-3.3413,-3.4288,-3.507,-3.5699,-3.4532,-3.2908,-3.0949,-2.9942,-2.9305,-2.9097,-3.0807,-3.1511,-3.1511,0.0,0.0,0.0,0.0,0.0,0.0,0.0,0.0,0.0,0.0,0.0,0.0,0.0,0.0,0.0,-2.7032,-2.6681,-2.6726,-2.7792,-3.0262,-3.2767,-3.369,-3.4981,-3.6397,-3.7865,-3.6709,0.0,0.0,0.0,0.0,0.0,0.0,0.0,0.0,0.0,0.0,0.0,0.0,0.0,0.0,0.0,0.0,0.0,0.0,0.0,0.0,0.0,0.0,0.0,0.0,0.0,0.0,0.0,0.0,-5.7499,-5.7072,-5.7123,-5.77,-5.7575,-5.7349,-5.7025,-5.7374,-5.7349,-5.7,-5.6898,-5.6874,-5.7025,-5.6446,-5.6173,-5.6893,-6.4183,-6.6985,-6.7021,-6.6997,-6.6999,-6.6999,0.0,0.0,0.0,0.0,0.0,0.0,0.0,0.0,0.0,0.0,0.0,0.0,0.0,0.0,0.0,0.0,0.0,0.0,0.0,-2.2176,-2.2317,-2.3427,-2.3446,-2.511,-2.8636,-2.973,-3.1195,-3.3128,-3.4682,-3.5759,-3.6387,-3.5699,-3.3784,-3.0976,-3.0964,-3.0235,-2.9097,-3.0807,-3.1511,-3.1511,-3.1511,0.0,0.0,0.0,0.0,0.0,0.0,0.0,0.0,0.0,0.0,0.0,0.0,0.0,-2.681,-2.7714,-2.7279,-2.6735,-2.7822,-2.9391,-3.1179,-3.2769,-3.3999,-3.5533,-3.8216,-3.7864,0.0,-4.0322,0.0,0.0,0.0,0.0,0.0,0.0,0.0,0.0,0.0,0.0,0.0,0.0,0.0,0.0,0.0,0.0,0.0,0.0,0.0,0.0,0.0,0.0,0.0,0.0,0.0,0.0,-5.6344,-5.6294,-5.6545,-5.7097,-5.657,-5.6319,-5.6319,-5.6319,-5.6319,-5.6319,-5.6269,-5.6294,-5.6319,-5.6244,-5.6187,-5.69,-6.418,-6.6978,-6.7,-6.6989,-6.6999,-6.6999,0.0,0.0,0.0,0.0,0.0,0.0,0.0,0.0,0.0,0.0,0.0,0.0,0.0,0.0,0.0,0.0,0.0,0.0,0.0,-2.2464,-2.2653,-2.3375,-2.4141,-2.5412,-2.7262,-2.9187,-3.1636,-3.4614,-3.479,-3.522,-3.5848,-3.3755,-3.2452,-3.1695,-3.0727,-2.9797,-2.9111,-3.0778,-3.1511,-3.1511,-3.1511,-3.1501,0.0,0.0,0.0,0.0,0.0,0.0,0.0,0.0,-2.4621,-2.666,-2.7454,-2.7516,-2.7249,-2.767,-2.7419,-2.7218,-2.8306,-3.0059,-3.1981,-3.3687,-3.5194,0.0,0.0,-4.035,-4.148,-4.3915,-4.4166,0.0,0.0,0.0,0.0,0.0,0.0,0.0,0.0,0.0,0.0,0.0,0.0,0.0,0.0,0.0,0.0,0.0,0.0,0.0,0.0,0.0,0.0,0.0,0.0,0.0,0.0,-5.6219,-5.6319,-5.652,-5.6319,-5.6219,-5.6219,-5.6219,-5.6219,-5.6219,-5.6219,-5.6219,-5.6219,-5.6219,-5.6209,-5.6461,-5.9183,-6.3056,-6.7025,-6.7019,-6.6999,-6.6999,0.0,0.0,0.0,0.0,0.0,0.0,0.0,0.0,0.0,0.0,0.0,0.0,0.0,0.0,0.0,0.0,0.0,0.0,-2.2014,-2.1718,-2.1915,-2.2798,-2.3664,-2.4769,-2.6077,-2.8568,-3.13,-3.4262,-3.4203,-3.4412,-3.4799,-3.2526,-3.1582,-3.1695,-3.0403,-2.9383,-2.8844,-3.0712,-3.1516,-3.1516,-3.1515,-3.1485,0.0,0.0,0.0,0.0,0.0,0.0,0.0,0.0,-2.414,-2.5565,-2.6273,-2.6845,-2.7326,-2.7544,-2.7832,-2.8383,-2.9629,-3.1063,-3.2701,-3.4761,0.0,0.0,-4.0701,-4.2308,-4.4016,-4.6778,-4.6753,0.0,0.0,0.0,0.0,0.0,0.0,0.0,0.0,0.0,0.0,0.0,0.0,0.0,0.0,0.0,0.0,0.0,0.0,0.0,0.0,0.0,0.0,0.0,0.0,0.0,-5.6182,-5.6182,-5.6182,-5.6182,-5.6182,-5.6236,-5.6219,-5.6219,-5.6219,-5.6219,-5.6219,-5.6219,-5.6194,-5.6208,-5.6193,-5.6193,-5.6202,-6.0617,-6.7025,-6.7019,-6.6999,-6.6999,0.0,0.0,0.0,0.0,0.0,0.0,0.0,0.0,0.0,0.0,0.0,0.0,0.0,0.0,0.0,0.0,0.0,0.0,-2.0658,-1.9583,-1.9724,-2.1513,-2.1601,-2.283,-2.5411,-2.7997,-3.0017,-3.1511,-3.2826,-3.3484,-3.3454,-3.2492,-3.1626,-3.077,-3.0097,-2.9146,-2.8234,-3.0507,-3.1473,-3.1476,-3.1476,-3.1478,-3.0879,0.0,0.0,0.0,0.0,0.0,0.0,0.0,-2.3101,-2.3508,-2.5795,-2.6499,-2.6666,-2.7404,-2.865,-3.0151,-3.1841,-3.2277,-3.2954,0.0,0.0,0.0,-4.2258,-4.3438,-4.4945,-4.8812,0.0,-4.8284,-4.9389,0.0,0.0,0.0,0.0,0.0,0.0,0.0,0.0,0.0,0.0,0.0,0.0,0.0,0.0,0.0,0.0,0.0,0.0,0.0,0.0,0.0,0.0,0.0,-5.6167,-5.6238,-5.6167,-5.6142,-5.6142,-5.6213,-5.6194,-5.6194,-5.6194,-5.6194,-5.6219,-5.6219,-5.6216,-5.6289,-5.6297,-5.6278,-5.6268,-6.0677,-6.7025,-6.7019,-6.6999,-6.6999,0.0,0.0,0.0,0.0,0.0,0.0,0.0,0.0,0.0,0.0,0.0,0.0,0.0,0.0,0.0,0.0,0.0,0.0,-2.0658,-2.001,-2.0216,-2.162,-2.2225,-2.3065,-2.423,-2.6769,-2.9466,-3.2198,-3.2108,-3.202,-3.1855,-3.0457,-3.0235,-3.1009,-2.9547,-2.8287,-2.7397,-2.8639,-2.9381,-2.9778,-3.0162,-3.0069,-2.9351,0.0,0.0,0.0,0.0,0.0,0.0,0.0,0.0,0.0,-2.5413,-2.7154,-2.8762,-2.8376,-2.971,-3.152,-3.2299,-3.4407,0.0,0.0,0.0,0.0,0.0,-4.5748,0.0,0.0,0.0,0.0,0.0,0.0,0.0,0.0,0.0,0.0,0.0,0.0,0.0,0.0,0.0,0.0,0.0,0.0,0.0,0.0,0.0,0.0,0.0,0.0,0.0,0.0,0.0,0.0,-5.6167,-5.6238,-5.5411,-5.3836,-5.3836,-5.4712,-5.6162,-5.6162,-5.6162,-5.6188,-5.62,-5.6229,-5.6548,-6.17,-6.3806,-6.3807,-6.3823,-6.5153,-6.7025,-6.7019,-6.6999,-6.6999,0.0,0.0,0.0,0.0,0.0,0.0,0.0,0.0,0.0,0.0,-1.9497,-1.9387,0.0,0.0,0.0,0.0,0.0,0.0,0.0,-1.9614,-1.9823,-2.1248,-2.1809,-2.2971,-2.4798,-2.6396,-2.8304,-3.0552,-3.0702,-3.0655,-3.0543,-2.9984,-3.0369,-3.1501,-2.9923,-2.8645,-2.7631,-2.6913,-2.7234,-2.8312,-2.9865,-2.9881,-2.8695,0.0,0.0,0.0,0.0,0.0,0.0,0.0,0.0,0.0,-2.5205,0.0,-2.8092,-2.8844,-3.0726,-3.2992,-3.5013,0.0,0.0,0.0,0.0,0.0,0.0,0.0,0.0,0.0,0.0,0.0,0.0,0.0,0.0,0.0,0.0,0.0,0.0,0.0,0.0,0.0,0.0,0.0,0.0,0.0,0.0,0.0,0.0,0.0,0.0,0.0,0.0,0.0,0.0,0.0,-5.4873,-5.4873,-5.4245,-5.2878,-5.2878,-5.3573,-5.4899,-5.4845,-5.49,-5.4925,-5.5522,-5.6451,-5.8042,-6.4371,-6.6672,-6.6172,-6.5668,-6.5772,-6.6228,-6.6218,-6.6521,-6.7002,0.0,0.0,-1.9398,-1.8796,0.0,0.0,0.0,0.0,0.0,-1.9636,-1.9155,-1.8836,0.0,0.0,0.0,-1.8836,0.0,0.0,0.0,-1.8684,-1.8907,-2.0707,-2.1129,-2.2974,-2.6512,-2.6602,-2.6896,-2.7495,-2.8783,-2.9361,-2.9287,-3.0451,-3.1323,-3.1858,-3.0736,-2.9609,-2.8398,-2.5459,-2.5244,-2.7081,-2.9846,-3.0086,-2.8525,-2.5864,0.0,0.0,0.0,0.0,0.0,0.0,0.0,0.0,-2.5339,-2.5657,-2.6263,-2.9087,-3.1681,-3.4529,0.0,0.0,0.0,0.0,0.0,0.0,0.0,0.0,0.0,0.0,0.0,0.0,0.0,0.0,0.0,0.0,0.0,0.0,0.0,0.0,0.0,0.0,0.0,0.0,0.0,0.0,0.0,0.0,0.0,0.0,0.0,0.0,0.0,0.0,0.0,0.0,-5.2929,-5.2929,-5.2929,0.0,-5.2929,-5.2929,-5.2886,-5.2903,-5.2893,-5.2943,-5.434,-5.6598,-5.98,-6.4655,-6.5966,-6.4755,-6.3654,-6.3921,-6.4934,-6.4964,-6.5742,-6.6824,0.0,0.0,-1.8685,-1.8702,0.0,0.0,0.0,0.0,-1.9062,-1.9062,-1.8626,-1.8269,-1.8269,-1.8269,0.0,-1.8269,-1.8269,0.0,0.0,-1.8444,-1.9106,-2.1386,-2.3466,-2.5199,-2.6572,-2.6602,-2.6662,-2.6836,-2.7645,-2.7615,-2.6833,-2.9192,-3.0353,-3.0401,-2.9477,-2.8583,-2.7613,-2.5161,-2.478,-2.585,-2.6468,-2.7079,-2.741,-2.5775,-2.458,0.0,0.0,0.0,0.0,0.0,0.0,0.0,-2.6718,-2.8443,-3.0339,-3.0259,-3.2562,-3.5718,0.0,0.0,0.0,0.0,0.0,0.0,0.0,0.0,0.0,0.0,0.0,0.0,0.0,0.0,0.0,0.0,0.0,0.0,0.0,0.0,0.0,0.0,0.0,0.0,0.0,0.0,0.0,0.0,0.0,0.0,0.0,0.0,0.0,0.0,0.0,-5.2911,-5.2929,-5.2929,-5.2929,0.0,-5.2929,-5.2929,-5.2929,-5.2917,-5.2909,-5.2924,-5.3283,-5.5099,-5.8157,-6.223,-6.3733,-6.3535,-6.3951,-6.4308,-6.4606,-6.4905,-6.5173,-6.5562,0.0,0.0,0.0,0.0,0.0,0.0,0.0,0.0,-1.9295,-1.9295,-1.8607,-1.8092,-1.8092,-1.7854,0.0,0.0,-1.7933,-1.8327,0.0,0.0,-1.9449,-2.1615,-2.3909,-2.5146,-2.5212,-2.5212,-2.5189,-2.516,-2.5858,-2.6747,-2.7767,-3.0133,-3.156,-3.2083,-3.0862,-2.9592,-2.825,-2.5978,-2.538,-2.5986,-2.596,-2.6302,-2.671,-2.5731,-2.4613,-2.3521,-2.3221,0.0,0.0,0.0,0.0,0.0,0.0,0.0,-2.9886,-3.0587,-3.2632,-3.5502,0.0,0.0,0.0,0.0,0.0,0.0,0.0,0.0,0.0,0.0,0.0,0.0,0.0,0.0,0.0,0.0,0.0,0.0,0.0,0.0,0.0,0.0,0.0,0.0,0.0,0.0,0.0,0.0,0.0,0.0,0.0,0.0,0.0,0.0,-5.2929,-5.2929,-5.2929,-5.2929,-5.2929,-5.2929,-5.2929,-5.2929,-5.2929,-5.2929,-5.2867,-5.2948,-5.3767,-5.5444,-5.7852,-6.0399,-6.2116,-6.3149,-6.3563,-6.38,-6.38,-6.3978,-6.4127,-6.4159,0.0,0.0,0.0,0.0,0.0,0.0,0.0,0.0,0.0,-1.9424,-1.8482,-1.7814,-1.7814,-1.7435,-1.7188,0.0,0.0,0.0,-1.8855,0.0,0.0,-2.1794,-2.3409,-2.4118,-2.3739,-2.3484,-2.3468,-2.3614,-2.4234,-2.6447,-3.0144,-3.1631,-3.3035,-3.4191,-3.2695,-3.0993,-2.9117,-2.6862,-2.5964,-2.6006,-2.5876,-2.5874,-2.5827,-2.5108,-2.3964,-2.2819,-2.2819,-2.3246,-2.4035,-2.5313,0.0,0.0,0.0,0.0,-2.8273,-3.0454,-3.2135,-3.4442,0.0,0.0,0.0,0.0,0.0,0.0,0.0,0.0,0.0,0.0,0.0,0.0,0.0,0.0,0.0,0.0,0.0,0.0,0.0,0.0,0.0,0.0,0.0,0.0,0.0,0.0,0.0,0.0,0.0,0.0,0.0,0.0,-5.2929,-5.2929,-5.2929,-5.2929,-5.2929,-5.2929,-5.2929,-5.2929,-5.2929,-5.2929,-5.2929,-5.2929,-5.2929,-5.2998,-5.4366,-5.6141,-5.804,-5.9002,-6.0876,-6.3079,-6.3079,-6.3079,-6.3079,-6.3079,-6.3113,-6.3117,0.0,0.0,0.0,0.0,0.0,0.0,0.0,0.0,0.0,0.0,-1.7394,-1.671,-1.671,-1.6646,-1.6795,-1.725,-1.7374,-1.7814,0.0,0.0,0.0,-2.2493,-2.2823,-2.3244,-2.3757,-2.2714,-2.2632,-2.3689,-2.3826,-2.6678,-3.2028,-3.1753,-3.2255,-3.3296,-3.2072,-3.0478,-2.8566,-2.6474,-2.4984,-2.4019,-2.3385,-2.3472,-2.3843,-2.2528,-2.1891,-2.1719,-2.1719,-2.2372,-2.3538,-2.5659,-2.7063,0.0,0.0,0.0,0.0,0.0,-3.1183,-3.3066,0.0,0.0,0.0,0.0,0.0,0.0,0.0,0.0,0.0,0.0,0.0,0.0,0.0,0.0,0.0,0.0,0.0,0.0,0.0,0.0,0.0,0.0,0.0,0.0,0.0,0.0,0.0,0.0,0.0,0.0,0.0,-5.2929,-5.2929,-5.2929,-5.2929,-5.2929,-5.2929,-5.2929,-5.2929,-5.2929,-5.2929,-5.2929,-5.2929,-5.2929,-5.2929,-5.2929,-5.311,-5.5008,-5.8005,-5.8139,-6.0176,-6.3079,-6.3079,-6.3079,-6.3079,-6.3079,-6.3109,-6.3081,0.0,0.0,0.0,0.0,0.0,0.0,0.0,0.0,0.0,0.0,0.0,-1.6964,-1.6964,-1.6667,-1.6607,-1.6837,-1.7415,0.0,0.0,0.0,0.0,-2.1116,-2.1498,-2.1528,-2.1172,-2.06,-2.0724,-2.1509,-2.1955,-2.5128,-3.0794,-3.1662,-3.3716,-3.6591,-3.4584,-3.2815,-3.1161,-2.8007,-2.595,-2.4673,-2.3615,-2.4057,-2.5079,-2.261,-2.2546,-2.3552,-2.1722,-2.1744,-2.2926,-2.4669,-2.6339,-2.7753,-2.8162,0.0,0.0,0.0,0.0,0.0,0.0,0.0,0.0,0.0,0.0,0.0,0.0,0.0,0.0,0.0,0.0,0.0,0.0,0.0,0.0,0.0,0.0,0.0,0.0,0.0,0.0,0.0,0.0,0.0,0.0,0.0,0.0,0.0,0.0,0.0,-5.2929,-5.2929,-5.2929,-5.2929,-5.2929,0.0,-5.2929,-5.2929,-5.2929,-5.2929,-5.2929,-5.2929,-5.2929,-5.2929,-5.2929,-5.2904,-5.2903,-5.4853,-5.8068,-5.898,-6.0839,-6.3079,-6.3079,-6.3079,-6.3079,-6.3079,-6.3079,-6.3081,0.0,0.0,0.0,0.0,0.0,0.0,0.0,0.0,0.0,0.0,0.0,-1.7084,-1.7084,0.0,0.0,0.0,-1.7578,0.0,0.0,0.0,0.0,0.0,-2.0229,-1.9999,-1.9101,-1.9076,-1.9296,-1.9783,-2.0716,-2.4188,-3.0007,-3.1867,-3.54,-4.0038,-3.7404,-3.513,-3.3036,-2.9714,-2.7528,-2.6231,-2.5172,-2.552,-2.6463,-2.457,-2.5211,-2.6747,-2.359,-2.3309,-2.4491,-2.5168,-2.6376,-2.7595,0.0,0.0,0.0,0.0,0.0,0.0,0.0,0.0,0.0,0.0,0.0,0.0,0.0,0.0,0.0,0.0,0.0,0.0,0.0,0.0,0.0,0.0,0.0,0.0,0.0,0.0,0.0,0.0,0.0,0.0,0.0,0.0,0.0,0.0,0.0,0.0,-5.2929,-5.2929,-5.2929,-5.2929,-5.2929,-5.2929,-5.2929,-5.2929,-5.2929,-5.2929,-5.2929,-5.2929,-5.2929,-5.2929,-5.2929,-5.2904,-5.2928,-5.4826,-5.8068,-5.8856,-6.075,-6.3049,-6.2466,-6.2612,-6.3079,-6.3079,-6.3079,-6.3083,0.0,0.0,0.0,0.0,0.0,0.0,0.0,0.0,0.0,0.0,0.0,-1.6543,-1.6543,-1.6522,-1.6689,-1.7209,-1.7753,0.0,0.0,0.0,0.0,0.0,0.0,0.0,-1.9093,-1.8984,-1.9216,-1.9811,-2.1182,-2.5098,-3.1346,-3.276,-3.6567,-4.2141,-3.9409,-3.6118,-3.2467,-3.0971,-2.9537,-2.8196,-2.7684,-2.7149,-2.6824,-2.8678,-3.0209,-3.1029,-2.8324,-2.8509,-2.9901,-2.877,-2.8367,-2.848,-2.9233,-2.8667,-2.7705,0.0,0.0,0.0,0.0,0.0,0.0,0.0,0.0,0.0,0.0,0.0,0.0,0.0,0.0,0.0,0.0,0.0,0.0,0.0,0.0,0.0,0.0,0.0,0.0,0.0,0.0,0.0,0.0,0.0,0.0,0.0,0.0,0.0,-5.2929,-5.2929,-5.2929,-5.2929,-5.2929,-5.2929,-5.2929,-5.2929,-5.2929,-5.2929,-5.2929,-5.2929,-5.2929,-5.2929,-5.2929,-5.2929,-5.2879,-5.4849,-5.7878,-5.631,-5.8606,-6.2903,-6.07,-6.1232,-6.3079,-6.3079,-6.3079,-6.3083,0.0,0.0,0.0,0.0,0.0,0.0,0.0,0.0,0.0,0.0,0.0,0.0,0.0,-1.65,-1.6586,-1.6774,-1.7271,0.0,0.0,0.0,0.0,0.0,0.0,0.0,-1.7955,-1.865,-1.9078,-1.9208,-2.0152,-2.3247,-2.8364,-3.0567,-3.3155,-3.6088,-3.7255,-3.7195,-3.6058,-3.2617,-3.0251,-2.889,-2.9357,-3.0301,-3.1431,-3.1559,-3.3457,-3.5648,-3.2589,-3.1299,-3.1071,-3.1079,-3.048,-2.9668,-2.9642,-2.8992,-2.8068,-2.7225,-2.7884,0.0,0.0,0.0,0.0,0.0,0.0,0.0,0.0,0.0,0.0,0.0,0.0,0.0,0.0,0.0,0.0,0.0,0.0,0.0,0.0,0.0,0.0,0.0,0.0,0.0,0.0,0.0,0.0,0.0,0.0,0.0,-5.2886,-5.2911,-5.2911,-5.2911,-5.2911,-5.2909,-5.2929,-5.2929,-5.2929,-5.2929,-5.2929,-5.2929,-5.2929,-5.2929,-5.2929,-5.2929,-5.2929,-5.357,-5.4772,-5.5591,-5.7505,-5.9924,-6.1351,-6.2398,-6.3097,-6.3097,-6.3097,-6.3091,0.0,0.0,0.0,-1.7105,0.0,-1.6921,-1.6565,-1.65,-1.65,-1.65,0.0,0.0,0.0,0.0,-1.6586,-1.6752,-1.7084,-1.7537,-1.8052,-1.7913,0.0,0.0,0.0,0.0,-1.8181,-1.9381,-1.9823,-1.9503,-2.0405,-2.2703,-2.6327,-2.8482,-3.0702,-3.2886,-3.4203,-3.5759,-3.7225,-3.4141,-3.2096,-3.1019,-3.2622,-3.3923,-3.4992,-3.6153,-3.8364,-4.0435,-3.7557,0.0,0.0,0.0,-3.3595,-3.1982,-3.1156,-2.9684,-2.8064,-2.6931,-2.7859,-2.9535,-3.0851,0.0,0.0,0.0,0.0,0.0,0.0,0.0,0.0,0.0,0.0,0.0,0.0,0.0,0.0,0.0,0.0,0.0,0.0,0.0,0.0,0.0,0.0,0.0,0.0,0.0,0.0,0.0,0.0,0.0,-5.1806,-5.1806,-5.1804,-5.1798,-5.218,-5.2555,-5.2876,-5.2909,-5.2891,-5.2891,-5.2879,-5.2929,-5.2929,-5.2929,-5.2929,-5.2929,-5.2929,-5.2928,-5.2991,-5.4545,-5.6501,-5.8681,-5.9384,-6.109,-6.2853,-6.0491,-5.9662,-5.9675,-1.7517,-1.7291,-1.7105,-1.6607,-1.65,-1.6525,-1.6525,-1.6525,-1.6525,-1.655,0.0,0.0,0.0,0.0,0.0,-1.7329,-1.7344,-1.7544,-1.808,-1.7619,0.0,0.0,0.0,0.0,-1.9872,-2.1109,-2.1395,-2.0688,-2.2024,-2.3661,-2.5555,-2.6896,-2.9592,-3.3215,-3.0672,-3.1719,-3.537,-3.534,-3.5008,-3.469,-3.7336,-3.7703,-3.7186,-4.2472,-4.4903,-4.5261,-4.33,-4.2977,0.0,-4.0457,0.0,-3.54,-3.3933,-3.0819,-2.7525,-2.6896,-2.7619,-2.8697,0.0,0.0,0.0,0.0,0.0,0.0,0.0,0.0,0.0,0.0,0.0,0.0,0.0,0.0,0.0,0.0,0.0,0.0,0.0,0.0,0.0,0.0,0.0,0.0,0.0,0.0,0.0,0.0,0.0,-5.2173,-4.9975,-4.9861,-4.9852,-4.9735,-5.0793,-5.1806,-5.2838,-5.286,-5.2877,-5.2928,-5.2891,-5.2929,-5.2929,-5.2929,-5.2929,-5.2929,-5.2929,-5.2928,-5.2884,-5.2919,-5.5523,-5.9078,-5.4655,-5.6931,-6.1975,-5.532,-5.2907,-5.2911,-1.7374,-1.7005,-1.6667,-1.6543,-1.6873,-1.7149,-1.7149,-1.7149,-1.7275,0.0,0.0,0.0,-1.7953,-1.8204,-1.8541,-1.9189,-1.8435,-1.82,-1.8782,-1.7854,-1.7558,-1.8072,-1.9567,-2.0251,-1.9921,-2.1573,-2.1844,-2.0688,-2.1545,-2.2503,-2.3541,-2.4837,-2.6782,-2.9232,-2.8966,-3.0013,-3.1869,-3.142,-3.2902,-3.5607,-3.6123,-3.8535,-4.2034,0.0,0.0,0.0,0.0,-4.6572,-4.5334,0.0,-4.1624,-3.8392,-3.4681,-3.145,-2.9022,-2.8843,-2.9684,-3.0494,-2.9564,0.0,0.0,0.0,0.0,0.0,0.0,0.0,0.0,0.0,0.0,0.0,0.0,0.0,0.0,0.0,0.0,0.0,0.0,0.0,0.0,0.0,0.0,0.0,0.0,0.0,0.0,0.0,-5.8032,-5.7103,-5.6469,-5.6497,-5.5414,-5.316,-5.3123,-5.2556,-5.1339,-5.1632,-5.2144,-5.2903,-5.2868,-5.2909,-5.2929,-5.2929,-5.2929,-5.2929,-5.2929,-5.2941,-5.2876,-5.2898,-5.364,-5.464,-5.336,-5.409,-5.5517,-5.3612,-5.2902,-5.2886,-1.7001,-1.6913,-1.6873,-1.6873,-1.7526,-1.8078,-1.8078,-1.8078,-1.8254,0.0,0.0,0.0,-1.8857,-2.0042,-2.0603,-2.0054,-1.9634,-1.9302,-1.9121,-1.8447,-1.8167,-1.8433,-2.003,-2.0814,-2.0645,-2.2239,-2.2562,-2.1545,-2.1954,-2.2313,-2.2703,-2.346,-2.4717,-2.6333,-2.6452,-2.756,-2.9235,-2.8308,-3.0656,-3.5179,-3.7436,0.0,0.0,-4.5615,-4.7578,0.0,0.0,0.0,-4.7489,-4.71,-4.4407,0.0,-3.6118,-3.3514,-3.1839,-3.0731,-3.1509,-3.2467,-3.115,-3.2138,-3.3574,-3.3872,0.0,0.0,0.0,0.0,0.0,0.0,0.0,0.0,0.0,0.0,0.0,0.0,0.0,0.0,0.0,0.0,0.0,0.0,0.0,0.0,0.0,0.0,0.0,0.0,-5.9088,-5.9103,-5.9126,-5.6593,-5.5516,-5.634,-5.3581,-5.1479,-5.0265,-5.0494,-5.0863,-5.1515,-5.2464,-5.2868,-5.2934,-5.2923,-5.2929,-5.2929,-5.2929,-5.2929,-5.2929,-5.2929,-5.2929,-5.2929,-5.2929,-5.2929,-5.2929,-5.2929,-5.2929,-5.2929,0.0,-1.7024,-1.7448,-1.7574,-1.843,-1.9133,-1.9259,-1.9233,-1.9409,0.0,-1.981,-1.9837,-2.0623,-2.242,-2.2883,-2.1088,-2.1148,-2.0823,-1.9768,-1.9398,-1.9216,-1.9199,-2.0358,-2.1252,-2.1814,-2.2981,-2.3281,-2.2703,-2.2703,-2.2703,-2.2703,-2.2703,-2.334,-2.4455,-2.3879,-2.5009,-2.7315,-2.6422,-2.8966,-3.4083,-3.9475,-4.2111,0.0,0.0,-4.9269,-4.9553,-5.0152,-4.9972,-4.9509,-4.9359,-4.6424,0.0,-3.8422,-3.6746,-3.5639,-3.3035,-3.3604,-3.4773,-3.3514,-3.3634,-3.4651,-3.6776,-3.5699,0.0,-3.8901,-3.899,0.0,0.0,0.0,0.0,0.0,0.0,0.0,0.0,0.0,0.0,0.0,0.0,0.0,0.0,0.0,0.0,0.0,0.0,-5.8783,-5.8677,-5.8911,-5.9098,-5.9093,-5.375,-5.3163,-5.8545,-5.3136,-5.0095,-4.9961,-4.9733,-4.9585,-4.966,-5.1615,-5.2641,-5.2928,-5.2916,-5.2929,-5.2929,-5.2929,-5.2929,-5.2929,-5.2929,-5.2929,-5.2929,-5.2929,-5.2929,-5.2929,-5.2929,-5.2929,-5.2929,-1.7146,-1.7322,-1.7652,-1.8531,-1.9233,-1.9962,-2.0865,-2.0666,-2.0865,-2.2268,-2.2799,-2.3857,-2.608,-2.538,-2.5307,-2.6634,-2.4084,-2.271,-2.3496,-2.1141,-2.0164,-2.1119,-2.1406,-2.1853,-2.2493,-2.3221,-2.3281,-2.2703,-2.2703,-2.2703,-2.2703,-2.2703,-2.3092,-2.3789,-2.367,-2.4477,-2.6123,-2.8008,-3.0939,-3.4474,-3.6148,0.0,-4.5723,-4.713,-4.9015,-5.084,-5.099,-5.096,-5.069,-4.9659,-4.7608,-4.5125,0.0,-4.1175,-3.9828,-3.7674,-3.7704,-3.8272,-3.7464,-3.7734,-3.8003,-3.6926,0.0,0.0,-3.6028,-3.6656,0.0,0.0,0.0,0.0,0.0,0.0,0.0,0.0,0.0,0.0,0.0,0.0,0.0,0.0,0.0,0.0,0.0,0.0,-5.7042,-5.6034,-5.7925,-5.9115,-5.9121,-5.7902,-5.7027,-5.6564,-5.4547,-5.3052,-5.2165,-5.0449,-4.9621,-4.9635,-5.0008,-5.1205,-5.2928,-5.2916,-5.2929,-5.2929,-5.2929,-5.2929,-5.2929,-5.2929,-5.2929,-5.2929,-5.2929,-5.2929,-5.2929,-5.2929,-5.2929,-5.2929,-1.7348,-1.7827,-1.8455,-1.9259,-2.0399,-2.1451,-2.2204,-2.2413,-2.2936,-2.4186,-2.5735,-2.7025,-2.7841,-2.8012,-2.8174,-2.8397,-2.6402,-2.4971,-2.4619,-2.2807,-2.173,-2.1695,-2.2024,-2.2493,-2.3131,-2.343,-2.361,-2.364,-2.331,-2.3152,-2.3152,-2.3152,-2.4021,-2.5578,-2.4896,-2.6063,-2.8581,-2.9295,-3.1299,-3.4294,-3.7618,0.0,-4.6459,-4.8147,-4.9793,-5.1229,-5.1229,-5.1439,-5.1349,-4.9075,-4.8057,0.0,-4.4246,-4.3569,-4.3329,0.0,-4.0606,-4.1115,-3.9768,-3.9888,-4.0157,-3.917,0.0,0.0,0.0,0.0,0.0,0.0,0.0,0.0,0.0,0.0,0.0,0.0,0.0,0.0,0.0,0.0,0.0,0.0,0.0,0.0,0.0,0.0,-5.5891,-5.524,-5.6415,-5.7123,-5.7123,-5.7773,-5.7719,-5.6848,-5.4938,-5.4011,-5.4336,-5.121,-4.9608,-4.9581,-4.9578,-5.0797,-5.2877,-5.2868,-5.2916,-5.2929,-5.2929,-5.2929,-5.2929,-5.2929,-5.2929,-5.2879,-5.2928,-5.2894,-5.2879,-5.2928,-5.2894,-5.2929,-1.7398,-1.8179,-1.9033,-1.9685,-2.1248,-2.2574,-2.316,-2.3816,-2.4784,-2.6212,-2.8525,-2.9944,-2.9666,-3.0965,-3.1481,-3.0598,-2.9312,-2.7916,-2.6422,-2.5115,-2.3993,-2.3071,-2.2942,-2.3302,-2.4148,-2.3789,-2.3879,-2.4425,-2.3879,-2.361,-2.361,-2.3729,-2.5076,-2.7375,-2.6542,-2.8222,-3.163,-3.0731,0.0,-3.5459,0.0,-4.3599,-4.5514,-4.8492,-5.0092,-5.069,-5.1079,-5.1648,-5.1768,-4.8835,-4.8656,-4.8985,-4.5274,-4.5352,0.0,0.0,0.0,0.0,0.0,0.0,0.0,0.0,0.0,-4.039,0.0,0.0,0.0,-3.9433,0.0,0.0,0.0,0.0,0.0,0.0,0.0,0.0,0.0,0.0,0.0,0.0,0.0,0.0,0.0,0.0,-5.4655,-5.518,-5.5218,-5.5181,-5.519,-5.6166,-5.7006,-5.7511,-5.4996,-5.456,-5.6526,-5.1949,-4.9618,-4.962,-4.9606,-5.0554,-5.2266,-5.2717,-5.2919,-5.2898,-5.2904,-5.2929,-5.2929,-5.2929,-5.2929,-5.2923,-5.2941,-5.3721,-5.4689,-5.3387,-5.2877,-5.2904,-1.7398,-1.7877,-1.8606,-1.9635,-2.0821,-2.2135,-2.3653,-2.3997,-2.5288,-2.8792,-3.0847,-3.3006,-3.5674,-3.5094,-3.5549,-3.7942,-3.4455,-3.2238,-3.2466,-2.9265,-2.7481,-2.7794,-2.5046,-2.4358,-2.6213,-2.4507,-2.364,-2.3699,-2.364,-2.361,-2.361,-2.4216,-2.5262,-2.6752,-2.7799,0.0,0.0,0.0,-3.5938,0.0,-4.2491,-4.2342,0.0,-4.5963,-4.8057,-4.8865,-5.0601,-5.1648,-5.1977,0.0,-5.0391,-5.0511,0.0,-4.7818,-4.8431,-4.5663,0.0,0.0,0.0,0.0,0.0,0.0,-4.3479,0.0,0.0,0.0,-3.8373,-3.7858,0.0,0.0,0.0,0.0,0.0,0.0,0.0,0.0,0.0,0.0,0.0,0.0,0.0,0.0,0.0,0.0,0.0,-5.4992,-5.5189,-5.521,-5.5209,-5.5329,-5.5783,-5.6594,-5.523,-5.5819,-5.8681,-5.2647,-4.9585,-4.9563,-4.959,-4.9709,-5.0015,-5.1976,-5.2928,-5.2911,-5.2872,-5.2929,-5.2929,-5.2929,-5.2929,-5.2923,-5.2941,-5.6569,-6.1247,-5.5165,-5.2877,-5.2898,-1.7465,-1.8078,-1.903,-2.0192,-2.1095,-2.2339,-2.4236,-2.7025,-2.9548,-3.1276,-3.39,-3.6099,-3.7457,-3.7214,-3.8012,-4.0598,-3.8054,-3.5916,0.0,-3.268,-3.0696,-2.9229,-2.744,-2.6901,-2.7739,-2.5794,-2.4777,-2.4777,-2.3969,-2.361,-2.361,-2.4276,-2.6129,-2.8906,-2.9864,0.0,-3.6443,0.0,-3.7255,0.0,0.0,0.0,0.0,-4.7219,-4.9733,-5.0092,-5.093,-5.1887,-5.2456,0.0,-5.0361,0.0,0.0,0.0,0.0,0.0,0.0,0.0,0.0,0.0,0.0,0.0,0.0,0.0,-3.9649,0.0,-3.8309,0.0,0.0,0.0,0.0,0.0,0.0,0.0,0.0,0.0,0.0,0.0,0.0,0.0,0.0,0.0,0.0,0.0,0.0,0.0,0.0,-5.2887,-5.286,-5.4321,-5.5381,-5.5705,-5.5201,-5.628,-5.9047,-5.6471,-5.3248,-4.9621,-4.962,-4.9566,-4.966,-5.0572,-5.1708,-5.2928,-5.2919,-5.2891,-5.2929,-5.2929,-5.2929,-5.2923,-5.2941,-5.7049,-6.2248,-5.543,-5.2879,-5.2893,-1.819,-1.8741,-1.9552,-2.0432,-2.1195,-2.2612,-2.5353,-2.9495,-3.2636,-3.3612,-3.6204,-3.831,-3.9127,-3.9636,-4.0893,-4.334,-4.199,-4.0388,0.0,0.0,-3.456,-3.2813,-3.0418,-2.9385,-2.9924,-2.744,-2.6063,-2.5884,-2.4717,-2.4238,-2.4418,-2.4926,-2.6966,-3.0313,-3.169,-3.4861,-3.911,0.0,0.0,-4.0905,-4.1713,-4.2551,-4.3898,-4.8626,-5.075,-5.1229,-5.1229,-5.2067,-5.2845,-5.0571,-5.0661,0.0,-5.0212,0.0,0.0,0.0,0.0,0.0,-4.6471,0.0,0.0,0.0,0.0,0.0,0.0,0.0,0.0,0.0,0.0,0.0,0.0,0.0,0.0,-3.8362,0.0,0.0,0.0,0.0,0.0,0.0,0.0,0.0,0.0,0.0,0.0,0.0,0.0,0.0,-5.0691,-5.3056,-5.4575,-5.485,-5.5075,-5.6117,-5.8006,-5.8751,-5.588,-4.9611,-4.9596,-4.9586,-4.9641,-4.9585,-5.0622,-5.2464,-5.2759,-5.2901,-5.2929,-5.2929,-5.2929,-5.2923,-5.2928,-5.5924,-5.9735,-5.472,-5.293,-5.3163,-1.9884,-1.9996,-1.9998,-1.9998,-2.0862,-2.293,-2.7237,-3.0153,-3.2856,-3.5725,-3.7221,0.0,0.0,0.0,0.0,0.0,0.0,-4.6258,-4.6065,0.0,-3.9523,-4.0587,-3.4089,-3.136,-3.3305,-2.9532,-2.7225,-2.6596,-2.5884,-2.5884,-2.6482,-2.6512,-2.7619,-2.9771,-3.2976,-3.5911,-3.8542,-4.0457,-4.3479,-4.698,-4.6381,-4.8027,-5.069,0.0,-4.9553,-5.1229,-5.1229,0.0,0.0,-5.1618,-5.2037,0.0,0.0,0.0,0.0,0.0,0.0,0.0,0.0,0.0,0.0,-4.277,0.0,0.0,0.0,0.0,-3.9848,0.0,0.0,0.0,0.0,-4.0786,-3.9888,-3.8601,-3.8392,0.0,0.0,0.0,0.0,0.0,0.0,0.0,0.0,0.0,0.0,0.0,0.0,0.0,-4.9294,-5.1421,-5.2983,-5.3893,-5.4756,-5.5218,-5.5308,-5.7844,-5.5898,-4.9584,-4.9618,-4.959,-4.9615,-4.9616,-5.0215,-5.1439,-5.2439,-5.2901,-5.2929,-5.2929,-5.2929,-5.2929,-5.2904,-5.3023,-5.3197,-5.2958,-5.2893,-5.3818,-2.1251,-2.2275,-2.274,-2.1454,0.0,-2.4641,-2.9631,-3.3214,-3.6252,0.0,0.0,0.0,0.0,-4.6818,-4.8529,0.0,0.0,-4.996,-4.7902,-4.5391,0.0,-4.1328,-3.7699,-3.5848,0.0,-3.3066,-3.0941,-2.9836,-2.8338,-2.7919,-2.8573,-2.7675,-2.8547,-3.0943,0.0,-3.648,0.0,0.0,0.0,0.0,0.0,-4.8686,-5.1139,0.0,0.0,-5.1229,-5.1229,-5.2067,0.0,-5.2665,-5.2815,-5.3174,-5.3204,-5.2276,-5.1169,-5.096,-5.0853,0.0,0.0,0.0,-5.0152,-4.5753,0.0,0.0,0.0,0.0,0.0,0.0,0.0,0.0,0.0,-4.0846,-3.9948,-3.8601,-3.8033,-3.6896,0.0,0.0,0.0,0.0,0.0,0.0,0.0,0.0,0.0,0.0,0.0,0.0,0.0,-5.0319,-5.2064,-5.2953,-5.3834,-5.4611,-5.5219,-5.6068,-5.4162,-4.9617,-4.9592,-4.9581,-4.959,-4.9586,-4.9821,-5.0281,-5.2117,-5.2582,-5.2191,-5.2685,-5.2929,-5.2929,-5.2929,-5.2929,-5.2916,-5.2939,-5.5778,-5.9954,-2.3452,-2.4572,-2.4927,0.0,0.0,-2.7563,-3.1936,0.0,0.0,0.0,-4.3331,0.0,-4.8115,0.0,-5.1205,0.0,-5.4,-5.2906,-5.046,-4.8547,0.0,-4.4295,-4.1412,0.0,0.0,-3.6716,-3.4472,-3.2916,-3.121,-3.0313,0.0,0.0,0.0,0.0,0.0,-3.6776,-4.0217,0.0,-4.4855,0.0,0.0,-4.9703,0.0,0.0,-5.1229,-5.1259,0.0,-5.2247,-5.3204,-5.3473,-5.3713,-5.3982,-5.4431,-5.3503,-5.2276,-5.2276,-5.2097,-5.1768,-5.1109,-5.1558,0.0,-4.7878,-4.6381,0.0,-4.1526,0.0,0.0,0.0,0.0,0.0,0.0,-4.1983,-4.0457,-3.9589,-3.8302,-3.6656,0.0,0.0,0.0,0.0,0.0,0.0,0.0,0.0,-3.9273,-4.089,0.0,0.0,0.0,0.0,-5.1326,-5.2372,-5.3424,-5.4014,-5.4149,-5.3777,-5.1884,-4.8429,-4.9212,-4.9482,-4.9199,-4.949,-4.9686,-5.0006,-5.1722,-5.2278,-5.194,-5.261,-5.2929,-5.2929,-5.2929,-5.2929,-5.2898,-5.2915,-5.7244,-6.31,-2.6438,0.0,0.0,0.0,-2.8564,0.0,0.0,0.0,-4.0187,0.0,-4.4695,-4.6967,-4.9023,-5.1124,-5.293,-5.4175,-5.5216,-5.5174,-5.3687,-5.1106,0.0,0.0,-4.5049,-4.292,-4.3509,0.0,-3.7584,-3.5699,-3.4233,-3.2856,0.0,0.0,0.0,0.0,-3.4292,0.0,-3.9582,-4.288,-4.6232,-4.9479,-5.069,-5.1229,-5.1229,-5.1229,0.0,-5.1349,-5.1977,-5.2606,-5.3294,-5.3982,-5.464,-5.5179,-5.5179,-5.476,-5.4251,-5.4221,-5.3773,-5.3144,-5.2486,-5.2306,-5.1738,-4.9164,0.0,0.0,0.0,0.0,-4.6082,0.0,0.0,0.0,0.0,0.0,-4.1474,-4.1362,-3.908,-3.6926,-3.5666,0.0,0.0,0.0,0.0,0.0,0.0,0.0,-3.4469,-3.657,-3.9847,0.0,0.0,0.0,0.0,-5.2037,-5.3443,-5.3478,-5.2162,-5.1183,-4.9217,-4.634,-4.848,-4.9166,-4.8559,-4.9314,-4.9891,-5.0419,-5.1321,-5.1875,-5.2126,-5.2653,-5.2904,-5.2929,-5.2929,-5.2929,-5.2898,-5.2915,-5.7006,-6.2612,-2.7901,-3.004,-3.1989,0.0,-3.2046,-3.2693,0.0,0.0,0.0,0.0,-4.7099,-4.9819,-5.2168,-5.4059,-5.5662,-5.6838,-5.7161,0.0,0.0,0.0,0.0,-5.0548,-4.7148,-4.5394,-4.5574,-4.1833,-3.9409,-3.8422,0.0,0.0,-3.3694,0.0,0.0,0.0,0.0,0.0,-3.9553,-4.2363,-4.601,-5.0062,-5.09,-5.1229,0.0,0.0,-5.1528,-5.1977,-5.2127,-5.2606,-5.3294,-5.3982,-5.464,-5.5179,-5.5179,-5.5089,-5.485,-5.4371,-5.4431,-5.4521,-5.3862,-5.4042,-5.4012,-5.2336,-5.081,-4.9254,0.0,0.0,0.0,0.0,0.0,0.0,0.0,0.0,0.0,-4.0307,-3.8123,-3.644,-3.5614,0.0,0.0,0.0,0.0,0.0,0.0,-3.5194,-3.5225,-3.579,-3.7559,0.0,0.0,0.0,0.0,-5.0402,-5.2408,-5.2696,-5.1061,-5.0823,-4.9213,-4.6345,-4.7657,-4.8674,-4.9305,-4.9543,-4.9665,-4.9841,-5.0509,-5.1179,-5.1875,-5.2194,-5.2553,-5.2929,-5.2929,-5.2929,-5.2898,-5.2915,-5.3999,-5.5555,-3.0103,0.0,0.0,-3.7015,0.0,0.0,-3.9732,0.0,0.0,-4.5394,-4.8584,0.0,-5.2997,-5.5423,-5.7222,-5.7845,-5.7881,0.0,-5.4868,0.0,0.0,-5.0886,-4.9031,-4.7908,-4.7608,-4.4586,0.0,-4.0277,0.0,0.0,-3.4023,0.0,0.0,0.0,0.0,-3.6148,0.0,-4.3329,-4.692,-4.9912,-5.084,0.0,0.0,-5.1528,-5.1887,-5.2276,-5.2875,-5.3324,-5.3743,-5.4401,-5.488,-5.5179,-5.5179,-5.5179,-5.5119,-5.476,-5.491,-5.5119,-5.473,-5.491,-5.4999,-5.4251,-5.3234,-5.1977,-5.0361,-5.0301,-5.0062,0.0,0.0,0.0,0.0,0.0,0.0,-3.9499,-3.8033,-3.7041,-3.6194,0.0,0.0,0.0,0.0,0.0,0.0,-3.5138,-3.5335,-3.6257,-3.7267,0.0,0.0,0.0,0.0,-4.9134,-5.088,-5.1302,-5.0295,-5.0545,-4.9249,-4.6298,-4.7357,-4.8309,-4.9153,-4.9442,-4.959,-4.9615,-5.0167,-5.0861,-5.1623,-5.1967,-5.2427,-5.2929,-5.2929,-5.2929,-5.2879,-5.292,-5.2931,-5.2928,-3.3006,0.0,0.0,0.0,0.0,0.0,0.0,-4.3598,0.0,-4.6653,0.0,-5.2291,-5.315,-5.6103,-5.8084,-5.8186,0.0,-5.6992,-5.4689,-5.4624,-5.3586,-5.1222,-5.0608,-5.0062,-4.9449,-4.7279,-4.4646,0.0,-3.923,-3.6507,-3.3365,0.0,0.0,0.0,0.0,0.0,0.0,-4.4885,-4.8057,0.0,-5.069,-5.1259,-5.1409,-5.1977,-5.2306,-5.2606,-5.3773,-5.4221,-5.4311,-5.497,-5.5179,-5.5179,-5.5179,-5.5179,-5.5179,-5.5179,-5.5179,-5.5179,-5.5179,-5.5179,-5.5179,-5.5179,-5.5179,-5.473,-5.2995,-5.2606,-5.2217,-5.0853,-4.9733,-4.9314,0.0,0.0,0.0,0.0,0.0,0.0,0.0,0.0,0.0,0.0,0.0,0.0,0.0,-3.5018,-3.4889,-3.7012,0.0,0.0,0.0,0.0,0.0,0.0,-4.9484,0.0,-4.9255,0.0,-4.9579,-4.6326,-4.7405,-4.8133,-4.8697,-4.9291,-4.959,-4.9615,-5.0092,-5.0645,-5.1289,-5.1774,-5.2377,-5.2929,-5.2929,-5.2929,-5.2929,-5.2929,-5.2929,-5.2929,0.0,0.0,0.0,0.0,0.0,-4.5912,-4.7605,-4.7145,-4.7413,-4.9805,-5.2408,-5.4712,-5.6381,-5.7916,-5.9066,-5.9674,-5.8803,0.0,0.0,0.0,0.0,-5.3383,-5.188,-5.075,-5.0092,-4.704,-4.4407,0.0,-3.8607,-3.54,-3.2677,-3.2557,0.0,0.0,0.0,0.0,-4.1145,-4.5454,0.0,-4.9419,-5.069,-5.1558,-5.2037,-5.2157,-5.2905,-5.3892,-5.4132,-5.4221,-5.4311,-5.497,-5.5179,-5.5179,-5.5179,-5.5179,-5.5179,-5.5179,-5.5179,-5.5179,-5.5179,-5.5179,-5.5179,-5.5179,-5.5179,-5.5089,-5.473,-5.467,-5.4281,-5.2935,-5.2486,-5.1588,-4.9224,0.0,0.0,0.0,0.0,0.0,0.0,0.0,0.0,0.0,0.0,0.0,0.0,0.0,0.0,0.0,0.0,0.0,0.0,0.0,0.0,0.0,0.0,0.0,0.0,0.0,0.0,-4.6326,-4.7405,-4.8446,-4.9439,-4.9519,-4.959,-4.9615,-4.969,-5.0157,-5.0852,-5.1289,-5.2026,-5.2929,-5.2929,-5.2929,-5.2929,-5.2929,-5.2929,-5.2929,0.0,0.0,0.0,0.0,0.0,0.0,0.0,-5.1341,0.0,-5.2282,-5.3922,-5.5509,-5.6777,-5.85,-5.9708,-6.008,-5.8973,-5.806,-5.7511,-5.5866,-5.4483,-5.3586,-5.27,0.0,-5.0734,-4.9018,-4.6651,-4.3564,-4.0384,-3.7269,-3.4178,-3.3397,-3.2677,-3.2138,0.0,-3.8547,0.0,0.0,0.0,-4.9449,-5.105,-5.1917,-5.2276,-5.2965,-5.3653,-5.4251,-5.461,-5.473,-5.476,-5.5089,-5.5179,-5.5179,-5.5179,-5.5179,-5.5179,-5.5179,-5.5179,-5.5179,-5.5179,-5.5179,-5.5179,-5.5179,-5.5179,-5.5179,-5.5179,-5.5179,-5.504,-5.4375,-5.3669,-5.2492,-5.0216,-4.7263,0.0,0.0,0.0,0.0,0.0,0.0,0.0,0.0,0.0,0.0,0.0,0.0,0.0,0.0,0.0,0.0,0.0,0.0,0.0,0.0,0.0,0.0,0.0,0.0,0.0,-4.6326,-4.7604,-4.8533,-4.9036,-4.9405,-4.959,-4.959,-4.959,-4.9941,-5.061,-5.1373,-5.2176,-5.2929,-5.2929,-5.2929,-5.2929,-5.2929,-5.2929,-5.2929,0.0,-4.6628,0.0,0.0,-4.9836,0.0,-5.2964,-5.5013,-5.5969,-5.4641,-5.5431,-5.6443,-5.7404,-5.8964,-6.004,-6.0174,-5.888,-5.7678,-5.6841,-5.5611,-5.4487,-5.3462,-5.3384,-5.2845,-5.1648,-5.1372,-4.9347,0.0,-4.3091,-4.0002,-3.6252,-3.4851,-3.4029,-3.3903,0.0,0.0,0.0,0.0,-4.8356,-4.9823,-5.1528,-5.2366,-5.2755,-5.3803,-5.4311,-5.4491,-5.4999,-5.5179,-5.5179,-5.5179,-5.5179,-5.5179,-5.5179,-5.5179,-5.5179,-5.5179,-5.5179,-5.5179,-5.5179,-5.5179,-5.5179,-5.5179,-5.5179,-5.5179,-5.5179,-5.52,-5.522,-5.5201,-5.3893,-5.2467,-5.138,-4.8803,0.0,0.0,0.0,0.0,0.0,0.0,0.0,0.0,0.0,0.0,0.0,0.0,0.0,0.0,0.0,0.0,0.0,0.0,0.0,0.0,0.0,0.0,-4.7564,0.0,-4.6272,0.0,-4.7503,-4.8257,-4.8785,-4.9368,-4.9604,-4.959,-4.959,-4.9916,-5.0519,-5.1406,-5.2251,-5.2898,-5.2904,-5.2929,-5.2929,-5.2929,-5.2929,-5.2929,0.0,0.0,0.0,0.0,0.0,0.0,0.0,-5.7134,-5.8294,-5.7232,-5.7719,-5.8887,-6.0661,-6.0091,-5.9828,-6.0489,-5.8454,-5.7058,-5.6964,-5.5853,-5.488,-5.4132,-5.4132,-5.3773,-5.3025,-5.2826,-5.132,0.0,0.0,-4.2456,-3.7778,-3.6877,-3.6993,-3.7973,0.0,0.0,0.0,-4.7279,-4.9284,-5.1109,-5.1887,-5.2935,-5.4042,-5.4162,-5.4581,-5.5089,-5.5179,-5.5179,-5.5179,-5.5179,-5.5179,-5.5179,-5.5179,-5.5179,-5.5179,-5.5179,-5.5179,-5.5179,-5.5179,-5.5179,-5.5179,-5.5179,-5.5179,-5.5179,-5.5179,-5.52,-5.5209,-5.522,-5.317,-5.1339,-5.1198,-5.0321,-4.8623,0.0,0.0,0.0,0.0,0.0,-4.3089,-4.3007,0.0,0.0,0.0,0.0,0.0,0.0,0.0,0.0,0.0,0.0,0.0,-4.337,0.0,-4.3673,-4.3528,-4.5385,0.0,-4.6326,-4.6423,-4.7568,-4.9526,-4.9533,-4.957,-4.959,-4.959,-5.0006,-5.0701,-5.0772,-5.1674,-5.2911,-5.2872,-5.2929,-5.2929,-5.2929,-5.2929,-5.2929,0.0,0.0,0.0,0.0,0.0,0.0,0.0,-5.9144,-6.0232,-5.9812,-6.0007,-6.0634,-6.1834,-6.0884,-6.0289,-6.0553,-5.8374,-5.6991,-5.6991,-5.5869,-5.5059,-5.482,-5.479,-5.4491,-5.3803,-5.4605,-5.3659,0.0,0.0,0.0,0.0,-4.2045,0.0,0.0,0.0,-4.6619,-4.816,-4.9478,-5.072,-5.1887,-5.2965,-5.3713,-5.4251,-5.464,-5.497,-5.5179,-5.5179,-5.5179,-5.533,-5.6035,-5.5819,-5.5179,-5.5179,-5.5179,-5.5179,-5.5179,-5.5179,-5.5179,-5.5179,-5.5179,-5.5179,-5.5179,-5.5179,-5.5179,-5.5179,-5.52,-5.4729,-5.3155,-5.1942,-5.1186,-5.1208,-5.0925,-5.0045,0.0,0.0,0.0,0.0,0.0,0.0,-4.2668,0.0,-4.003,0.0,0.0,0.0,0.0,0.0,-3.54,-3.7913,0.0,0.0,-4.1852,0.0,-4.2268,-4.2992,-4.4522,-4.5615,-4.6326,-4.6287,-4.6786,-4.7621,-4.9002,-4.9608,-4.959,-4.959,-4.9776,-5.0031,-5.0025,-5.1155,-5.2886,-5.2872,-5.2929,-5.2929,-5.2929,-5.2929,-5.2929,-5.4989,0.0,-5.4719,0.0,-5.6416,-5.7214,-5.9325,-6.0622,-6.1366,-6.1603,-6.1637,-6.1806,-6.2347,-6.0995,-6.0075,-6.0075,-5.7854,-5.6493,-5.6493,-5.57,-5.5179,-5.5179,-5.5179,0.0,-5.4491,-5.6027,-5.5729,-5.3446,-5.3062,0.0,0.0,-4.6808,0.0,0.0,-4.9543,-5.0627,-5.1654,-5.2123,-5.2695,-5.3391,-5.395,-5.4311,-5.4551,-5.5029,-5.5179,-5.5179,-5.5179,-5.5431,-5.5869,-5.6704,-5.6686,-5.628,-5.628,-5.6017,-5.572,-5.572,-5.5451,-5.5179,-5.5179,-5.5179,-5.5179,-5.5179,-5.5179,-5.5179,-5.5179,-5.521,-5.4428,-5.1754,-5.1185,-5.1229,-5.1229,-5.1198,-5.0784,-4.9523,0.0,0.0,0.0,0.0,0.0,0.0,-4.0628,-3.9053,-3.8082,0.0,0.0,0.0,0.0,-3.6457,-3.8392,0.0,0.0,0.0,0.0,0.0,0.0,-4.4421,-4.5481,-4.6326,-4.6309,-4.6327,-4.6376,-4.8573,-4.962,-4.959,-4.959,-4.9586,-4.9576,-4.9628,-5.0913,-5.2869,-5.2891,-5.2929,-5.2929,-5.2929,-5.2929,-5.2904,-5.6628,-5.6765,-5.7203,-5.869,-5.8961,-5.9468,-6.1028,-6.1298,-6.1569,-6.2279,-6.2381,-6.2381,-6.2381,-6.0247,-5.8812,-5.8812,-5.659,-5.5229,-5.5229,-5.5179,-5.5179,0.0,0.0,-5.5179,-5.5179,-5.6839,-5.7285,-5.6431,0.0,0.0,-5.2213,-5.0522,-5.0817,-5.2875,-5.4139,-5.5085,-5.5697,-5.5194,-5.5318,-5.5844,-5.4673,-5.461,-5.5179,-5.5179,-5.5179,-5.5179,-5.5179,-5.5967,-5.6991,-5.6991,-5.7761,-5.8767,-5.8767,-5.7946,-5.6991,-5.6991,-5.6134,-5.5179,-5.5179,-5.5179,-5.5179,-5.5179,-5.5179,-5.5179,-5.5179,-5.5209,-5.4455,-5.1742,-5.1182,-5.1229,-5.1229,-5.1212,-5.0786,-4.9509,0.0,0.0,0.0,0.0,0.0,0.0,-4.0994,-3.939,-3.9355,0.0,0.0,0.0,0.0,0.0,0.0,0.0,0.0,-4.318,-4.1123,0.0,-4.3017,-4.5193,-4.6272,-4.6301,-4.6326,-4.6287,-4.6376,-4.8607,-4.959,-4.959,-4.959,-4.959,-4.9601,-4.9595,-5.0922,-5.2899,-5.2883,-5.2929,-5.2929,-5.2929,-5.2929,-5.2872,-5.7476,-5.7949,-5.8457,-5.893,-5.9877,-6.0723,-6.1231,-6.1738,-6.211,-6.2347,-6.2381,-6.2381,-6.2381,-6.0247,-5.8812,0.0,-5.659,-5.5179,0.0,-5.5179,-5.5179,-5.5179,-5.5179,-5.5179,-5.5179,-5.734,-5.8064,-5.7317,0.0,0.0,0.0,-5.6081,-5.64,-5.7096,-5.7251,-5.7675,-5.8228,-5.6419,-5.6077,-5.6586,-5.5368,-5.4999,-5.5179,-5.5179,-5.5179,-5.533,-5.6134,-5.6656,-5.7245,-5.887,-5.9697,-6.0161,-6.0995,-5.927,-5.6991,-5.6991,-5.6134,-5.5179,-5.5179,-5.5179,-5.5179,-5.5179,-5.5179,-5.5179,-5.5179,-5.3774,-5.2215,-5.1391,-5.1229,-5.1229,-5.1229,-4.9729,-4.8731,-4.9208,-4.8189,0.0,0.0,0.0,0.0,0.0,-4.256,-4.1579,0.0,-3.981,0.0,0.0,0.0,0.0,0.0,0.0,0.0,0.0,-4.0261,0.0,-3.8498,-4.2205,-4.4839,-4.6301,-4.6301,-4.7101,-4.8584,-4.9291,-4.959,-4.959,-4.959,-4.959,-4.969,-5.1235,-5.2276,-5.2874,-5.2883,-5.2929,-5.2929,-5.2929,-5.2929,-5.2872,-5.8254,-5.8693,-5.9201,-5.9776,-6.0655,-6.14,-6.167,-6.211,-6.2381,-6.2381,-6.2381,-6.2381,-6.2381,-6.0628,0.0,-5.8857,-5.6991,-5.567,-5.5229,-5.5179,-5.5179,-5.5179,-5.5179,-5.5179,-5.5179,0.0,0.0,-5.8096,-5.9731,-6.0216,-5.9573,-5.9776,-6.0013,-6.0279,-6.0069,-6.0184,-6.0421,-5.8052,-5.726,-5.7527,-5.5869,-5.5179,-5.5179,-5.5179,-5.5451,-5.5937,-5.6704,-5.7574,-5.8555,-6.0085,-6.0912,-6.1317,-6.1635,-5.987,-5.7668,-5.7668,-5.6493,-5.5179,-5.5179,-5.5179,-5.5179,-5.5179,-5.5179,-5.5229,-5.521,-5.3486,-5.1814,-5.1292,-5.1195,-5.1229,-5.1229,-4.9038,-4.7598,-4.8432,-4.7835,-4.6894,-4.5858,0.0,0.0,0.0,0.0,0.0,0.0,-4.2088,0.0,0.0,0.0,0.0,0.0,0.0,0.0,-3.9469,-4.0255,0.0,-3.8878,-4.2428,-4.4953,-4.6326,-4.6309,-4.7478,-4.9578,-4.9608,-4.959,-4.959,-4.959,-4.959,-4.969,-5.1125,-5.2124,-5.2874,-5.2606,-5.266,-5.2929,-5.2929,-5.2934,-5.2869,-5.8863,-5.9099,0.0,0.0,-6.1332,0.0,-6.2279,-6.2381,-6.2381,-6.2381,-6.2381,-6.2381,-6.2381,-6.1399,-6.0247,-5.91,0.0,0.0,0.0,-5.5229,-5.5179,-5.5179,-5.5239,-5.5239,-5.5179,-5.6457,-5.7684,-5.8947,-6.0569,-6.1738,-6.2381,-6.1704,-6.1738,-6.2381,-6.2302,-6.2302,-6.211,-5.9697,-5.8677,-5.8451,-5.6134,-5.5179,-5.5179,-5.528,-5.6035,-5.7039,-5.7198,-5.869,-6.0586,-6.0703,-6.1399,-6.207,-6.0953,-5.9697,-5.8677,-5.8677,-5.7039,-5.5179,-5.5179,-5.5179,-5.5179,-5.5179,-5.5179,-5.517,-5.512,-5.4179,-5.2886,-5.1524,-5.1173,-5.1182,-5.1199,-4.9218,-4.7494,-4.7331,-4.7302,-4.6834,-4.5463,0.0,0.0,0.0,0.0,0.0,0.0,-4.3918,-4.2631,0.0,0.0,0.0,0.0,0.0,-3.8284,-4.3022,-4.1059,-4.0971,-4.3225,-4.5276,-4.6301,-4.6326,-4.6279,-4.7483,-4.9578,-4.9608,-4.959,-4.959,-4.959,-4.959,-4.9615,-4.9616,-5.0836,-5.2629,-5.2018,-5.2284,-5.2991,-5.2898,-5.2911,-5.2904,0.0,0.0,-6.0892,-6.1231,-6.1772,-6.2178,-6.2347,-6.2381,-6.2381,-6.2381,-6.2381,-6.2381,-6.2381,-6.215,-6.1714,-6.1086,-5.8554,-5.6896,-5.659,-5.572,-5.5179,-5.5179,-5.5658,-5.5718,-5.5209,-5.6868,-5.8576,-6.0161,-6.1508,-6.2212,-6.2381,-6.2212,-6.2212,-6.2341,-6.1439,-6.1036,-6.087,-5.8419,-5.7434,-5.7323,-5.5769,-5.5179,-5.528,-5.6232,-5.6752,-5.7245,-5.9093,-6.0085,-6.0745,-6.1676,-6.1554,-6.0953,-6.0703,-5.9137,-5.7434,-5.7434,-5.6347,-5.5179,-5.5179,-5.5179,-5.5179,-5.5179,-5.5179,-5.5029,-5.4371,-5.4072,-5.3405,-5.1565,-5.1179,-5.122,-5.1176,-5.0698,-4.9629,-4.7629,-4.7296,-4.6834,-4.546,-4.6188,0.0,0.0,-4.5582,-4.6098,-4.5352,-4.5681,-4.5502,0.0,0.0,0.0,0.0,-3.751,-3.7986,-4.1688,-4.2078,-4.3292,-4.549,-4.6059,-4.6301,-4.6326,-4.6279,-4.7483,-4.9578,-4.9608,-4.959,-4.959,-4.959,-4.959,-4.9615,-4.9616,-4.994,-5.0488,-5.1607,-5.2909,-5.4065,-5.3207,-5.2904,-5.2885,-5.9911,-6.0723,-6.14,-6.1738,-6.211,-6.2381,-6.2381,-6.2381,-6.2381,-6.2381,-6.2381,-6.2381,-6.2381,-6.2685,-6.2784,-6.2549,-6.0423,-5.8793,-5.7987,-5.7315,-5.6728,-5.6128,-5.6406,-5.6436,-5.6077,-5.7061,-5.8601,-6.0759,-6.2189,-6.2888,-6.2888,-6.255,-6.211,-6.1554,-6.0912,-6.0289,-5.9653,-5.7807,-5.6991,-5.6896,-5.57,-5.5179,-5.536,-5.6928,-5.7855,-5.8637,-6.0837,-6.1947,-6.2523,-6.3161,-6.2564,-6.1445,-6.0891,-5.9419,-5.7775,-5.7217,-5.6204,-5.5179,-5.5179,-5.5179,-5.5179,-5.5179,-5.5179,-5.5089,-5.462,-5.4321,-5.3982,-5.3185,-5.2036,-5.1197,-5.1182,-5.0228,-4.894,-4.7525,-4.7326,-4.6851,-4.5495,-4.6112,0.0,-4.4911,-4.6249,-4.7066,-4.6556,-4.6963,-4.6729,-4.5334,0.0,0.0,-4.0359,-3.9746,-4.0239,-4.2033,-4.3671,-4.5085,-4.6273,-4.633,-4.6316,-4.6309,-4.6291,-4.7433,-4.962,-4.962,-4.959,-4.959,-4.959,-4.959,-4.9615,-4.9596,-4.9616,-4.98,-5.2134,-5.3139,-5.3465,-5.477,-5.423,-5.3342,-6.1028,-6.14,-6.167,-6.2279,-6.2381,-6.2381,-6.2381,-6.2381,-6.2381,-6.2381,-6.2381,-6.2381,-6.2381,-6.3057,-6.3565,-6.3666,-6.2849,-6.1555,-5.9772,-5.9496,-5.8857,-5.7758,-5.7828,-5.7828,-5.7707,-5.7861,-5.9024,-6.1216,-6.2882,-6.3666,-6.3666,-6.283,-6.1929,-6.0873,-6.0498,-5.9802,-5.8769,-5.7509,-5.7012,-5.6915,-5.5872,-5.5478,-5.5711,-5.7757,-5.916,-6.0289,-6.2322,-6.3642,-6.4334,-6.4334,-6.3354,-6.193,-6.0939,-5.9707,-5.8438,-5.7376,-5.6316,-5.5478,-5.5418,-5.5418,-5.5439,-5.5239,-5.5179,-5.5179,-5.5179,-5.476,-5.4481,-5.5079,-5.3373,-5.1679,-5.1286,-4.9393,-4.7777,-4.7377,-4.6959,-4.6433,-4.5687,0.0,-4.6066,-4.5636,-4.684,-4.7997,-4.8716,-4.8131,-4.7301,-4.6321,-4.4635,-4.3151,0.0,-4.2637,-4.3049,-4.3237,-4.5221,-4.6338,-4.6315,-4.6295,-4.6295,-4.6314,-4.6638,-4.7783,-4.9622,-4.9568,-4.959,-4.959,-4.959,-4.959,-4.959,-4.9593,-4.9884,-5.0558,-5.2616,-5.3128,-5.3016,-5.6115,-5.6053,-5.5252,-6.1129,-6.1806,-6.2245,-6.2381,-6.2381,-6.2381,-6.2381,-6.2381,-6.2381,-6.2381,-6.2381,-6.2381,-6.2381,-6.3057,-6.3768,-6.4377,-6.4862,-6.4303,-6.2364,-6.1276,-6.0627,-6.0392,-6.0916,-6.0979,-6.0392,-6.1367,-6.2077,-6.2508,-6.3793,-6.4444,-6.437,-6.3215,-6.2517,-6.23,-6.0121,-5.9055,-5.8843,-5.7608,-5.7075,-5.7075,-5.6899,-5.6795,-5.7106,-5.9567,-6.0593,-6.1055,-6.3448,-6.3726,-6.301,-6.301,-6.1445,-5.9465,-5.9269,-5.8388,-5.7325,-5.7146,-5.6944,-5.6765,-5.64,-5.6547,-5.6564,-5.5469,-5.5179,-5.5179,-5.5179,-5.5119,-5.51,-5.517,-5.4884,-5.3869,-5.1618,-5.0878,-4.9839,-4.7668,-4.5384,-4.4634,-4.6717,0.0,-4.7086,-4.7,-4.8475,-4.9539,-4.9719,-4.9569,-4.8793,-4.7041,-4.6643,-4.5415,-4.2957,-4.2931,-4.3397,-4.4342,-4.5623,-4.6315,-4.6285,-4.6276,-4.6295,-4.6339,-4.8193,-4.9291,-4.9622,-4.9568,-4.959,-4.959,-4.959,-4.959,-4.9604,-4.9582,-5.121,-5.3397,-5.1145,-5.2803,-5.6248,-5.4364,-5.7005,-6.1701,-6.167,-6.2144,-6.2381,-6.2381,-6.2381,-6.2381,-6.2381,-6.2381,-6.2381,-6.2381,-6.2381,-6.255,-6.2956,-6.3666,-6.441,-6.5121,-6.5865,-6.5927,-6.5015,-6.3791,-6.2807,-6.2107,-6.238,-6.2412,-6.206,-6.3297,-6.3925,-6.3925,-6.4075,-6.4167,-6.4124,-6.2407,-6.1308,-6.0612,-5.9416,-5.8508,-5.7912,-5.7325,-5.7094,-5.7094,-5.7094,-5.7094,-5.7406,-6.0357,-6.1515,-6.1874,-6.4762,-6.543,-6.481,-6.409,-6.2622,-6.0952,-6.026,-5.9183,-5.8171,-5.8171,-5.7663,-5.7064,-5.684,-5.6967,-5.6861,-5.5978,-5.5718,-5.5628,-5.5269,-5.5179,-5.52,-5.518,-5.5189,-5.4375,-5.1672,-5.1199,-5.0349,-4.7762,-4.5069,0.0,0.0,-4.7298,-4.7806,-4.9254,-4.9674,-5.0078,-5.0543,-5.0624,-5.0241,-4.937,-4.7972,-4.5928,-4.3125,-4.3564,-4.3837,-4.3727,-4.5429,-4.627,-4.6301,-4.6295,-4.6301,-4.6316,-4.8535,-4.9609,-4.962,-4.9579,-4.959,-4.959,-4.959,-4.962,-4.9633,-4.9589,-5.2516,-5.68,-5.5305,-5.5119,-5.5955,-5.7713,-6.0412,-6.3079,-6.211,-6.2381,-6.2381,-6.2381,-6.2381,-6.2381,-6.2381,-6.2381,-6.2381,-6.2381,-6.2381,-6.2685,-6.3429,-6.3896,-6.4562,-6.5628,-6.6087,-6.6482,-6.677,-6.5898,-6.4901,-6.3952,-6.3905,-6.3905,-6.3905,-6.4856,-6.5349,-6.5349,-6.4475,-6.4078,-6.4,-6.1831,-6.0292,-5.9371,-5.9101,-5.8419,-5.7573,-5.7573,-5.7573,-5.7573,-5.7573,-5.7573,-5.7918,-6.1019,-6.2252,-6.2646,-6.5698,-6.661,-6.6192,-6.5215,-6.3826,-6.2341,-6.1344,-6.015,-5.9099,-5.9099,-5.8381,-5.7543,-5.7363,-5.7446,-5.7378,-5.6487,-5.6278,-5.6098,-5.5359,-5.5179,-5.5179,-5.5179,-5.517,-5.457,-5.2545,-5.1631,-5.053,-4.8538,0.0,0.0,0.0,-4.7807,-4.8924,-5.0952,-5.0887,-5.0896,-5.1434,-5.1617,-5.1549,-5.123,-4.8674,-4.6097,-4.3915,-4.4536,-4.464,-4.3776,-4.5405,-4.6301,-4.6301,-4.6262,-4.6563,-4.7085,-4.88,-4.9583,-4.959,-4.959,-4.9987,-5.0691,-5.0691,-5.0761,-5.0778,-5.152,-5.4681,-5.9131,-5.9101,-5.7628,-5.6105,-6.1248,-6.3069,-6.3079,-6.2245,-6.2381,-6.2381,-6.2381,-6.2381,-6.2381,-6.2381,-6.2381,-6.2381,-6.2381,-6.2381,-6.2685,-6.3429,-6.3124,-6.361,-6.5512,-6.5334,-6.5559,-6.6728,-6.6728,-6.661,-6.6525,-6.6525,-6.6525,-6.6525,-6.661,-6.6686,-6.6686,-6.5404,-6.4803,-6.4758,-6.2182,-6.0936,-6.0814,-5.9607,-5.9057,-5.8949,-5.8949,-5.8949,-5.8949,-5.8949,-5.8949,-5.9242,-6.1932,-6.2908,-6.3243,-6.5898,-6.6029,-6.5036,-6.4914,-6.3227,-6.1142,-6.104,-6.015,-5.9099,-5.9099,-5.9039,-5.883,-5.8231,-5.8481,-5.855,-5.6861,-5.65,-5.6239,-5.5409,-5.5179,-5.5179,-5.5179,-5.517,-5.5159,-5.4959,-5.2886,-5.1143,-5.0936,0.0,0.0,-4.7956,-4.9356,-5.0973,-5.1169,-5.2247,-5.2826,-5.2424,-5.2789,-5.2544,-5.1282,-4.8673,-4.6807,-4.6078,-4.6137,-4.6137,-4.6055,-4.619,-4.6301,-4.6301,-4.6262,-4.7319,-4.9325,-4.9545,-4.9583,-4.959,-4.959,-5.124,-5.4082,-5.4082,-5.4053,-5.424,-5.7196,-5.8692,-5.9094,-5.907,-5.8981,-5.9112,-6.2028,-6.3069,-6.3079,-6.2245,-6.2381,-6.2381,-6.2381,-6.2381,-6.2381,-6.2381,-6.2381,-6.2381,-6.2381,-6.2381,-6.2854,-6.4038,-6.3306,-6.369,-6.6187,-6.548,-6.547,-6.6728,-6.6812,-6.6812,-6.6812,-6.6812,-6.6812,-6.6812,-6.6812,-6.6812,-6.6812,-6.4766,-6.3685,-6.3638,-6.102,-5.9811,-5.9811,-5.9339,-5.9099,-5.9099,-5.9099,-5.9099,-5.9099,-5.9099,-5.9099,-5.9392,-6.2027,-6.3004,-6.3339,-6.5898,-6.6482,-6.5855,-6.4276,-6.3068,-6.1946,-6.0359,-5.9499,-5.9099,-5.9099,-5.9099,-5.9039,-5.88,-5.8913,-5.8817,-5.7745,-5.7506,-5.7326,-5.6526,-5.6077,-5.5667,-5.5275,-5.5188,-5.52,-5.517,-5.4379,-5.368,-5.3664,0.0,-5.2047,-5.0011,-5.0544,-5.184,-5.3459,-5.4129,-5.4352,-5.4213,-5.3609,-5.3308,-5.3678,-5.0275,-4.762,-4.6359,-4.6295,-4.6315,-4.6301,-4.6301,-4.6301,-4.6301,-4.6278,-4.7395,-4.9614,-4.9609,-5.0691,-5.2576,-5.2576,-5.3254,-5.4435,-5.5039,-5.608,-5.7312,-5.7167,-5.7873,-5.911,-5.9121,-5.9618,-6.0565,-6.2449,-6.3113,-6.3099,-6.2279,-6.2381,-6.2381,-6.2381,-6.2381,-6.2381,-6.2381,-6.2381,-6.2381,-6.2381,-6.2381,-6.2956,-6.4444,-6.3064,-6.3188,-6.5971,-6.5036,-6.4823,-6.6148,-6.6567,-6.6812,-6.6812,-6.6812,-6.6812,-6.6812,-6.6812,-6.661,-6.6192,-6.4045,-6.2779,-6.2291,-6.0128,-5.9099,-5.9099,-5.9099,-5.9099,-5.9099,-5.9099,-5.9099,-5.9099,-5.9099,-5.9099,-5.9392,-6.2027,-6.3004,-6.3339,-6.5898,-6.6525,-6.5942,-6.4184,-6.3068,-6.2045,-6.0255,-5.9446,-5.9099,-5.9099,-5.9099,-5.9099,-5.9099,-5.9099,-5.8949,-5.8291,-5.8112,-5.7932,-5.7244,-5.6765,-5.6324,-5.5901,-5.5714,-5.5487,-5.527,-5.518,-5.52,-5.5219,-5.3661,-5.2483,-5.2487,-5.2475,-5.3133,-5.4982,-5.5224,-5.5206,-5.5206,-5.4379,-5.4242,-5.5108,-5.248,-4.9867,-4.7777,-4.6778,-4.628,-4.6276,-4.6612,-4.6995,-4.7303,-4.7344,-4.7895,-4.9064,-5.0117,-5.1784,-5.392,-5.427,-5.4644,-5.518,-5.5838,-5.7283,-5.8962,-5.7526,-5.7794,-5.9129,-5.908,-5.9668,-6.0696,-6.2445,-6.3109,-6.312,-6.2381,-6.2381,-6.2381,-6.2381,-6.2381,-6.2381,-6.2381,-6.2381,-6.2381,-6.2381,-6.2381,-6.2956,-6.4444,-6.2255,-6.1823,-6.4647,-6.3685,-6.3497,-6.4823,-6.6072,-6.677,-6.6812,-6.6812,-6.6812,-6.6812,-6.677,-6.6192,-6.4869,-6.3591,-6.2291,-6.0938,-5.9736,-5.9099,-5.9099,-5.9099,-5.9099,-5.9099,-5.9099,-5.9099,-5.9099,-5.9099,-5.9099,-5.9392,-6.1977,-6.3004,-6.3339,-6.5855,-6.5942,-6.4869,-6.4869,-6.3132,-6.0989,-6.0989,-6.0097,-5.9099,-5.9099,-5.9099,-5.9099,-5.9099,-5.9099,-5.8949,-5.8291,-5.8141,-5.7962,-5.7274,-5.7094,-5.7094,-5.7094,-5.681,-5.6266,-5.5389,-5.5189,-5.5215,-5.518,-5.5189,-5.5198,-5.5189,-5.5206,-5.5189,-5.5189,-5.518,-5.5179,-5.5179,-5.5179,-5.5172,-5.5184,-5.519,-5.3869,-5.0875,-4.7922,-4.6338,-4.6276,-4.7359,-4.8508,-4.9635,-4.961,-4.9038,-4.7968,-5.1236,-5.2828,-5.289,-5.3899,-5.5269,-5.6736,-5.6736,-5.7608,-5.9099,-5.9099,-5.9099,-5.9075,-5.9126,-5.9105,-5.9428,-6.2108,-6.306,-6.309,-6.2381,-6.2381,-6.2381,-6.2381,-6.2381,-6.2381,-6.2381,-6.2381,-6.2381,-6.2381,-6.2381,-6.2441,-6.254,-6.1438,-6.1259,-6.2737,-6.2104,-6.2553,-6.4733,-6.526,-6.5855,-6.677,-6.6812,-6.6812,-6.6812,-6.5942,-6.526,-6.4869,-6.2699,-6.1395,-6.0938,-5.9736,-5.9099,-5.9099,-5.9099,-5.9099,-5.9099,-5.9099,-5.9099,-5.9099,-5.9099,-5.9099,-5.9285,-6.0969,-6.1596,-6.1846,-6.3497,-6.3905,-6.3402,-6.2456,-6.1615,-6.0866,-5.997,-5.9392,-5.9099,-5.9099,-5.9099,-5.9099,-5.9099,-5.9099,-5.9069,-5.886,-5.88,-5.877,-5.856,-5.8141,-5.7812,-5.7812,-5.7566,-5.7258,-5.6631,-5.5812,-5.5182,-5.5215,-5.5206,-5.5218,-5.517,-5.523,-5.521,-5.521,-5.3356,-5.2878,-5.4968,-5.4252,-5.4081,-5.5121,-5.5202,-5.4841,-5.3924,-4.9054,-4.6283,-4.6324,-4.8105,-5.1373,-5.6193,-5.1351,-4.9643,-5.1356,-5.2342,-5.3761,-5.5528,-5.5877,-5.6849,-5.8386,-5.8386,-5.8689,-5.9099,-5.9099,-5.9099,-5.9129,-5.908,-5.911,-5.923,-5.9981,-6.0279,-6.0458,-6.2381,-6.2381,-6.2381,-6.2381,-6.2381,-6.2381,-6.2381,-6.2381,-6.2381,-6.2381,-6.1991,-6.1665,-6.1702,-6.0463,-6.006,-6.1135,-6.1121,-6.2112,-6.4733,-6.4414,-6.4688,-6.5985,-6.5559,-6.5514,-6.6029,-6.5304,-6.4381,-6.337,-6.1765,-6.0764,-6.0255,-5.9446,-5.9099,-5.9099,-5.9099,-5.9099,-5.9099,-5.9099,-5.9099,-5.9099,-5.9099,-5.9099,-5.9261,-6.0506,-6.0989,-6.1193,-6.2487,-6.2634,-6.2094,-6.1294,-6.0661,-6.0097,-5.9339,-5.9099,-5.9099,-5.9099,-5.9099,-5.9099,-5.9099,-5.9099,-5.9099,-5.9099,-5.9099,-5.9099,-5.9099,-5.88,-5.853,-5.853,-5.8428,-5.8211,-5.7941,-5.7258,-5.6765,-5.6757,-5.5879,-5.5197,-5.5185,-5.5206,-5.5215,-5.5189,-5.36,-5.2239,-5.1757,-5.2982,-5.4234,-5.5158,-5.5529,-5.5559,-5.523,-5.1818,-5.0315,-5.1336,-5.1463,-5.3571,-5.7803,-5.3186,-5.1918,-5.4008,-5.4249,-5.5147,-5.6736,-5.7384,-5.8166,-5.9099,-5.9099,-5.9099,-5.9099,-5.9099,-5.9099,-5.9099,-5.9099,-5.9099,-5.9159,-5.9474,-5.9394,-5.9313,-6.2381,-6.2381,-6.2381,-6.2381,-6.2381,-6.2381,-6.2381,-6.2381,-6.2381,-6.2381,-6.1358,-6.0807,-6.139,-5.939,-5.8523,-5.9742,-6.0434,-6.1865,-6.4381,-6.3449,-6.3402,-6.4688,-6.3623,-6.3529,-6.4551,-6.4551,-6.337,-6.0989,-6.0918,-6.0255,-5.9099,-5.9099,-5.9099,-5.9099,-5.9099,-5.9099,-5.9099,-5.9099,-5.9099,-5.9099,-5.9099,-5.9099,-5.9261,-6.038,-6.0815,-6.102,-6.2193,-6.1846,-6.0815,-6.0877,-6.0136,-5.9189,-5.9249,-5.9279,-5.9279,-5.9279,-5.9279,-5.9279,-5.9219,-5.9189,-5.9189,-5.9129,-5.9099,-5.9099,-5.9099,-5.9099,-5.9099,-5.9099,-5.9099,-5.9093,-5.9121,-5.9115,-5.9077,-5.9092,-5.7072,-5.5567,-5.5559,-5.5359,-5.519,-5.5219,-5.4754,-5.2272,-4.6824,-5.175,-5.5306,-5.5338,-5.6119,-5.6266,-5.5469,-5.5387,-5.652,-5.9039,-5.6305,-5.5299,-5.616,-5.4973,-5.4908,-5.5971,-5.648,-5.6792,-5.6962,-5.844,-5.9099,-5.9099,-5.9099,-5.9099,-5.9099,-5.9099,-5.9099,-5.9099,-5.9099,-5.9099,-5.9189,-6.0016,-5.9767,-5.9279,-6.2279,-6.2381,-6.2381,-6.2381,-6.2381,-6.2381,-6.2381,-6.2381,-6.2381,-6.2381,-6.1358,-6.0279,-5.9496,-5.8578,-5.7943,-5.7786,-5.8829,-6.0202,-6.1715,-6.1596,-6.2045,-6.3355,-6.3148,-6.2634,-6.1865,-6.1865,-6.1596,-6.0989,-5.9992,-5.9392,-5.9099,-5.9099,-5.9099,-5.9099,-5.9099,-5.9099,-5.9099,-5.9099,-5.9099,-5.9099,-5.9099,-5.9099,-5.9153,-5.9392,-5.9523,-5.9523,-5.9842,-5.9789,-5.9613,-6.0126,-6.012,-5.9967,-6.0505,-6.0685,-6.0685,-6.0685,-6.0685,-6.0565,-6.0027,-5.9877,-5.9757,-5.9219,-5.9099,-5.9099,-5.9099,-5.9099,-5.9099,-5.9099,-5.9099,-5.9099,-5.9093,-5.9063,-5.9081,-5.9077,-5.8587,-5.8234,-5.8247,-5.6489,-5.5178,-5.5213,-5.1045,-4.7695,-4.642,-5.2323,-5.6182,-5.6206,-5.6683,-5.7064,-5.7199,-5.6862,-5.7409,-5.9053,-5.8465,-5.8203,-5.8376,-5.5737,-5.511,-5.6537,-5.6651,-5.7384,-5.858,-5.8936,-5.9099,-5.9099,-5.9099,-5.9099,-5.9099,-5.9099,-5.9099,-5.9099,-5.9099,-5.9099,-5.9129,-5.9279,-5.9279,-5.9254,-6.2245,-6.2381,-6.2381,-6.2381,-6.2381,-6.2381,-6.2381,-6.2381,-6.2189,-6.1635,-6.0501,-5.9302,-5.8085,-5.7683,-5.7872,-5.8814,-6.0175,-6.1224,-6.1896,-6.1344,-6.1294,-6.1995,-6.1477,-6.0794,-6.0097,-6.0097,-6.0097,-6.0097,-5.9446,-5.9099,-5.9099,-5.9099,-5.9099,-5.9099,-5.9099,-5.9099,-5.9099,-5.9099,-5.9099,-5.9099,-5.9099,-5.9099,-5.9099,-5.9099,-5.9099,-5.9099,-5.9099,-5.9308,-5.9668,-6.0356,-6.0565,-6.0625,-6.1014,-6.1104,-6.1104,-6.1104,-6.1104,-6.1044,-6.0685,-6.0565,-6.0416,-5.9727,-5.9578,-5.9488,-5.9189,-5.9099,-5.9099,-5.9099,-5.9099,-5.9099,-5.9099,-5.9099,-5.9123,-5.9081,-5.9105,-5.9121,-5.9116,-5.7898,-5.7059,-5.7096,-5.1604,-4.7847,-4.7853,-5.3895,-5.7588,-5.7161,-5.7393,-5.7633,-5.7828,-5.7932,-5.839,-5.908,-5.9112,-5.9087,-5.9122,-5.7488,-5.7088,-5.786,-5.786,-5.8276,-5.9099,-5.9099,-5.9099,-5.9099,-5.9099,-5.9099,-5.9099,-5.9099,-5.9099,-5.9099,-5.9099,-5.9099,-5.9099,-5.9099,-5.9099,-5.9159,-6.2042,-6.2313,-6.2381,-6.2381,-6.2381,-6.2381,-6.2381,-6.2381,-6.203,-6.1036,-5.9827,-5.8722,-5.7714,-5.7527,-5.8374,-6.0718,-6.1886,-6.2506,-6.2634,-6.1395,-6.0661,-6.0661,-5.9683,-5.9099,-5.9099,-5.9099,-5.9099,-5.9099,-5.9099,-5.9099,-5.9099,-5.9099,-5.9099,-5.9099,-5.9099,-5.9099,-5.9099,-5.9099,-5.9099,-5.9099,-5.9099,-5.9099,-5.9099,-5.9099,-5.9189,-5.9279,-5.9279,-5.9697,-6.0356,-6.1044,-6.1283,-6.1313,-6.1403,-6.1433,-6.1433,-6.1433,-6.1433,-6.1433,-6.1313,-6.1283,-6.1104,-6.0446,-6.0266,-6.0086,-5.9458,-5.9189,-5.9099,-5.9099,-5.9099,-5.9099,-5.9099,-5.9099,-5.9099,-5.9099,-5.9099,-5.9093,-5.9068,-5.8643,-5.808,-5.7542,-5.2815,-4.9625,-4.9614,-5.5393,-5.8796,-5.8091,-5.8218,-5.8208,-5.8035,-5.8716,-5.9099,-5.9099,-5.9099,-5.9099,-5.9099,-5.9099,-5.9099,-5.9099,-5.9099,-5.9099,-5.9099,-5.9099,-5.9099,-5.9099,-5.9099,-5.9099,-5.9099,-5.9099,-5.9099,-5.9099,-5.9099,-5.9099,-5.9099,-5.9099,-5.9099,-5.9099,-6.1298,-6.1941,-6.2381,-6.2381,-6.2381,-6.2381,-6.2381,-6.2381,-6.2341,-6.215,-6.1078,-6.0289,-6.0161,-5.9717,-5.9798,-6.0796,-6.0544,-6.0571,-6.1212,-6.0045,-5.9339,-5.9339,-5.9207,-5.9099,-5.9099,-5.9099,-5.9099,-5.9099,-5.9099,-5.9099,-5.9099,-5.9099,-5.9099,-5.9099,-5.9099,-5.9099,-5.9099,-5.9099,-5.9099,-5.9099,-5.9099,-5.9099,-5.9099,-5.9099,-5.9458,-5.9937,-5.9937,-6.0386,-6.1074,-6.1732,-6.1972,-6.2061,-6.263,-6.281,-6.281,-6.281,-6.281,-6.269,-6.2121,-6.1972,-6.1792,-6.1134,-6.0984,-6.0805,-6.0346,-5.9632,-5.9099,-5.9099,-5.9099,-5.9099,-5.9099,-5.9099,-5.9099,-5.9099,-5.9099,-5.9099,-5.9123,-5.6747,-5.3976,-5.1223,-5.01,-4.958,-4.9568,-5.5339,-5.9044,-5.8955,-5.8949,-5.8949,-5.8949,-5.9039,-5.9099,-5.9099,-5.9099,-5.9099,-5.9099,-5.9099,-5.9099,-5.9099,-5.9099,-5.9099,-5.9099,-5.9099,-5.9099,-5.9099,-5.9099,-5.9099,-5.9099,-5.9099,-5.9099,-5.9099,-5.9099,-5.9099,-5.9099,-5.9099,-5.9099,-5.9099,-6.1061,-6.1569,-6.1907,-6.2313,-6.2381,-6.2381,-6.2381,-6.2381,-6.215,-6.148,-6.0912,-6.0332,-5.9653,-6.0314,-6.1459,-6.2868,-6.2412,-6.2061,-6.2112,-6.0866,-5.9864,-5.9153,-5.9099,-5.9099,-5.9099,-5.9099,-5.9099,-5.9099,-5.9099,-5.9099,-5.9099,-5.9099,-5.9099,-5.9099,-5.9099,-5.9099,-5.9099,-5.9099,-5.9099,-5.9099,-5.9099,-5.9099,-5.9129,-5.9518,-5.9817,-6.0176,-6.0924,-6.1403,-6.1762,-6.2421,-6.266,-6.269,-6.2989,-6.3079,-6.3079,-6.3079,-6.3079,-6.3019,-6.272,-6.266,-6.248,-6.1822,-6.1672,-6.1463,-6.0574,-6.0002,-5.9548,-5.9189,-5.9099,-5.9099,-5.9099,-5.9099,-5.9099,-5.9099,-5.9099,-5.9099,-5.9099,-5.7879,-5.5193,-5.0188,-5.1179,-5.1547,-4.9752,-5.5353,-5.9123,-5.908,-5.9099,-5.9099,-5.9099,-5.9099,-5.9099,-5.9099,-5.9099,-5.9099,-5.9099,-5.9099,-5.9099,-5.9099,-5.9099,-5.9099,-5.9099,-5.9099,-5.9099,-5.9099,-5.9099,-5.9099,-5.9099,-5.9099,-5.9099,-5.9099,-5.9099,-5.9099,-5.9099,-5.9099,-5.9099,-5.9099]},{"header":{"parameterUnit":"m.s-1","parameterCategory":1,"la1":30.6,"la2":28.766,"lo1":-90.7593,"lo2":-88.6598,"dy":0.0162,"dx":0.0183,"nx":116,"ny":114,"refTime":"2024-07-09T06:00:00:Z","depth":0,"parameterNumber":3,"parameterNumberName":"V-component_of_WINDS"},"data":[0.0,0.0,0.0,0.0,0.0,0.0,0.0,0.0,0.0,0.0,0.0,0.0,0.0,0.0,0.0,0.0,0.0,0.0,0.0,0.0,0.0,0.0,0.0,0.0,0.0,0.0,0.0,0.0,0.0,0.0,0.0,0.0,0.0,0.0,0.0,0.0,0.0,0.0,0.0,0.0,0.0,0.0,0.0,0.0,0.0,0.0,0.0,0.0,0.0,0.0,0.0,0.0,0.0,0.0,0.0,0.0,0.0,0.0,0.0,0.0,0.0,0.0,0.0,0.0,0.0,0.0,0.0,0.0,0.0,0.0,0.0,0.0,0.0,0.0,0.0,0.0,0.0,0.0,0.0,0.0,0.0,0.0,0.0,0.0,0.0,0.0,0.0,0.0,0.0,0.0,0.0,0.0,0.0,0.0,0.0,0.0,0.0,0.0,0.0,0.0,0.0,0.0,0.0,0.0,0.0,0.0,0.0,0.0,0.0,0.0,0.0,0.0,0.0,0.0,0.0,0.0,0.0,0.0,0.0,0.0,0.0,0.0,0.0,0.0,0.0,0.0,0.0,0.0,0.0,0.0,0.0,0.0,0.0,0.0,0.0,0.0,0.0,0.0,0.0,0.0,0.0,0.0,0.0,0.0,0.0,0.0,0.0,0.0,0.0,0.0,0.0,0.0,0.0,0.0,0.0,0.0,0.0,0.0,0.0,0.0,0.0,0.0,0.0,0.0,0.0,0.0,0.0,0.0,0.0,0.0,0.0,0.0,0.0,0.0,0.0,0.0,0.0,0.0,0.0,0.0,0.0,0.0,0.0,0.0,0.0,0.0,0.0,0.0,0.0,0.0,0.0,0.0,0.0,0.0,0.0,0.0,0.0,0.0,0.0,0.0,0.0,0.0,0.0,0.0,0.0,0.0,0.0,0.0,0.0,0.0,0.0,0.0,0.0,0.0,0.0,0.0,0.0,0.0,0.0,0.0,0.0,0.0,0.0,0.0,0.0,0.0,0.0,0.0,0.0,0.0,0.0,0.0,0.0,0.0,0.0,0.0,0.0,0.0,0.0,0.0,0.0,0.0,0.0,0.0,0.0,0.0,0.0,0.0,0.0,0.0,0.0,0.0,0.0,0.0,0.0,0.0,0.0,0.0,0.0,0.0,0.0,0.0,0.0,0.0,0.0,0.0,0.0,0.0,0.0,0.0,0.0,0.0,0.0,0.0,0.0,0.0,0.0,0.0,0.0,0.0,0.0,0.0,0.0,0.0,0.0,0.0,0.0,0.0,0.0,0.0,0.0,0.0,0.0,0.0,0.0,0.0,0.0,0.0,0.0,0.0,0.0,0.0,0.0,0.0,0.0,0.0,0.0,0.0,0.0,0.0,0.0,0.0,0.0,0.0,0.0,0.0,0.0,0.0,0.0,0.0,0.0,0.0,0.0,0.0,0.0,0.0,0.0,0.0,0.0,0.0,0.0,0.0,0.0,0.0,0.0,0.0,0.0,0.0,0.0,0.0,0.0,0.0,0.0,0.0,0.0,0.0,0.0,0.0,0.0,0.0,0.0,0.0,0.0,0.0,0.0,0.0,0.0,0.0,0.0,0.0,0.0,0.0,0.0,0.0,0.0,0.0,0.0,0.0,0.0,0.0,0.0,0.0,0.0,0.0,0.0,0.0,0.0,0.0,0.0,0.0,0.0,0.0,0.0,0.0,0.0,0.0,0.0,0.0,0.0,0.0,0.0,0.0,0.0,0.0,0.0,0.0,0.0,0.0,0.0,0.0,0.0,0.0,0.0,0.0,0.0,0.0,0.0,0.0,0.0,0.0,0.0,0.0,0.0,0.0,0.0,0.0,0.0,0.0,0.0,0.0,0.0,0.0,0.0,0.0,0.0,0.0,0.0,0.0,0.0,0.0,0.0,0.0,0.0,0.0,0.0,0.0,0.0,0.0,0.0,0.0,0.0,0.0,0.0,0.0,0.0,0.0,0.0,0.0,0.0,0.0,0.0,0.0,0.0,0.0,0.0,0.0,0.0,0.0,0.0,0.0,0.0,0.0,0.0,0.0,0.0,0.0,0.0,0.0,0.0,0.0,0.0,0.0,0.0,0.0,0.0,0.0,0.0,0.0,0.0,0.0,0.0,0.0,0.0,0.0,0.0,0.0,0.0,0.0,0.0,0.0,0.0,0.0,0.0,0.0,0.0,0.0,0.0,0.0,0.0,0.0,0.0,0.0,0.0,0.0,0.0,0.0,0.0,0.0,0.0,0.0,0.0,0.0,0.0,0.0,0.0,0.0,0.0,0.0,0.0,0.0,0.0,0.0,0.0,0.0,0.0,0.0,0.0,0.0,0.0,0.0,0.0,0.0,0.0,0.0,0.0,0.0,0.0,0.0,0.0,0.0,0.0,0.0,0.0,0.0,0.0,0.0,0.0,0.0,0.0,0.0,0.0,0.0,0.0,0.0,0.0,0.0,0.0,0.0,0.0,0.0,0.0,0.0,0.0,0.0,0.0,0.0,0.0,0.0,0.0,0.0,0.0,0.0,0.0,0.0,0.0,0.0,0.0,0.0,0.0,0.0,0.0,0.0,0.0,0.0,0.0,0.0,0.0,0.0,0.0,0.0,0.0,0.0,0.0,0.0,0.0,0.0,0.0,0.0,0.0,0.0,0.0,0.0,0.0,0.0,0.0,0.0,0.0,0.0,0.0,0.0,0.0,0.0,0.0,0.0,0.0,0.0,0.0,0.0,0.0,0.0,0.0,0.0,0.0,0.0,0.0,0.0,0.0,0.0,0.0,0.0,0.0,0.0,0.0,0.0,0.0,0.0,0.0,0.0,0.0,0.0,0.0,0.0,0.0,0.0,0.0,0.0,0.0,0.0,0.0,0.0,0.0,0.0,0.0,0.0,0.0,0.0,0.0,0.0,0.0,0.0,0.0,0.0,0.0,0.0,0.0,0.0,0.0,0.0,0.0,0.0,0.0,0.0,0.0,0.0,0.0,0.0,0.0,0.0,0.0,0.0,0.0,0.0,0.0,0.0,0.0,0.0,0.0,0.0,0.0,0.0,0.0,0.0,0.0,0.0,0.0,0.0,0.0,0.0,0.0,0.0,0.0,0.0,0.0,0.0,0.0,0.0,0.0,0.0,0.0,0.0,0.0,0.0,0.0,0.0,0.0,0.0,0.0,0.0,0.0,0.0,0.0,0.0,0.0,0.0,0.0,0.0,0.0,0.0,0.0,0.0,0.0,0.0,0.0,0.0,0.0,0.0,0.0,0.0,0.0,0.0,0.0,0.0,0.0,0.0,0.0,0.0,0.0,0.0,0.0,0.0,0.0,0.0,0.0,0.0,0.0,0.0,0.0,0.0,0.0,0.0,0.0,0.0,0.0,0.0,0.0,0.0,0.0,0.0,0.0,0.0,0.0,0.0,0.0,0.0,0.0,0.0,0.0,0.0,0.0,0.0,0.0,0.0,0.0,0.0,0.0,0.0,0.0,0.0,0.0,0.0,0.0,0.0,0.0,0.0,0.0,0.0,0.0,0.0,0.0,0.0,0.0,0.0,0.0,0.0,0.0,0.0,0.0,0.0,0.0,0.0,0.0,0.0,0.0,0.0,0.0,0.0,0.0,0.0,0.0,0.0,0.0,0.0,0.0,0.0,0.0,0.0,0.0,0.0,0.0,0.0,0.0,0.0,0.0,0.0,0.0,0.0,0.0,0.0,0.0,0.0,0.0,0.0,0.0,0.0,0.0,0.0,0.0,0.0,0.0,0.0,0.0,0.0,0.0,0.0,0.0,0.0,0.0,0.0,0.0,0.0,0.0,0.0,0.0,0.0,0.0,0.0,0.0,0.0,0.0,0.0,0.0,0.0,0.0,0.0,0.0,0.0,0.0,0.0,0.0,0.0,0.0,0.0,0.0,0.0,0.0,0.0,0.0,0.0,0.0,0.0,0.0,0.0,0.0,0.0,0.0,0.0,0.0,0.0,0.0,0.0,0.0,0.0,0.0,0.0,0.0,0.0,0.0,0.0,0.0,0.0,0.0,0.0,0.0,0.0,0.0,0.0,0.0,0.0,0.0,0.0,0.0,0.0,0.0,0.0,0.0,0.0,0.0,0.0,0.0,0.0,0.0,0.0,0.0,0.0,0.0,0.0,0.0,0.0,0.0,0.0,0.0,0.0,0.0,0.0,0.0,0.0,0.0,0.0,0.0,0.0,0.0,0.0,0.0,0.0,0.0,0.0,0.0,0.0,0.0,0.0,0.0,0.0,0.0,0.0,0.0,0.0,0.0,0.0,0.0,0.0,0.0,0.0,0.0,0.0,0.0,0.0,0.0,0.0,0.0,0.0,0.0,0.0,0.0,0.0,0.0,0.0,0.0,0.0,0.0,0.0,0.0,0.0,0.0,0.0,0.0,0.0,0.0,0.0,0.0,0.0,0.0,0.0,0.0,0.0,0.0,0.0,0.0,0.0,0.0,0.0,0.0,0.0,0.0,0.0,0.0,0.0,0.0,0.0,0.0,0.0,0.0,0.0,0.0,0.0,0.0,0.0,0.0,0.0,0.0,0.0,0.0,0.0,0.0,0.0,0.0,0.0,0.0,0.0,0.0,0.0,0.0,0.0,0.0,0.0,0.0,0.0,0.0,0.0,0.0,0.0,0.0,0.0,0.0,0.0,0.0,0.0,0.0,0.0,0.0,0.0,0.0,0.0,0.0,0.0,0.0,0.0,0.0,0.0,0.0,0.0,0.0,0.0,0.0,0.0,0.0,0.0,0.0,0.0,0.0,0.0,0.0,0.0,0.0,0.0,0.0,0.0,0.0,0.0,0.0,0.0,0.0,0.0,0.0,0.0,0.0,0.0,0.0,0.0,0.0,0.0,0.0,0.0,0.0,0.0,0.0,0.0,0.0,0.0,0.0,0.0,0.0,0.0,0.0,0.0,0.0,0.0,0.0,0.0,0.0,0.0,0.0,0.0,0.0,0.0,0.0,0.0,0.0,0.0,0.0,0.0,0.0,0.0,0.0,0.0,0.0,0.0,0.0,0.0,0.0,0.0,0.0,0.0,0.0,0.0,0.0,0.0,0.0,0.0,0.0,0.0,0.0,0.0,0.0,0.0,0.0,0.0,0.0,0.0,0.0,0.0,0.0,0.0,0.0,0.0,0.0,0.0,0.0,0.0,0.0,0.0,0.0,0.0,0.0,0.0,0.0,0.0,0.0,0.0,0.0,0.0,0.0,0.0,0.0,0.0,0.0,0.0,0.0,0.0,0.0,0.0,0.0,0.0,0.0,0.0,0.0,0.0,0.0,0.0,0.0,0.0,0.0,0.0,0.0,0.0,0.0,0.0,0.0,0.0,0.0,0.0,0.0,0.0,0.0,0.0,0.0,0.0,0.0,0.0,0.0,0.0,0.0,0.0,0.0,0.0,0.0,0.0,0.0,0.0,0.0,0.0,0.0,0.0,0.0,0.0,0.0,0.0,0.0,0.0,0.0,0.0,0.0,0.0,0.0,0.0,0.0,0.0,0.0,0.0,0.0,0.0,0.0,0.0,0.0,0.0,0.0,0.0,0.0,0.0,0.0,0.0,0.0,0.0,0.0,0.0,0.0,0.0,0.0,0.0,0.0,0.0,0.0,0.0,0.0,0.0,0.0,0.0,0.0,0.0,0.0,0.0,0.0,0.0,0.0,0.0,0.0,0.0,0.0,0.0,0.0,0.0,0.0,0.0,0.0,0.0,0.0,0.0,0.0,0.0,0.0,0.0,0.0,0.0,0.0,0.0,0.0,0.0,0.0,0.0,0.0,0.0,0.0,0.0,0.0,0.0,0.0,0.0,0.0,0.0,0.0,0.0,0.0,0.0,0.0,0.0,0.0,0.0,0.0,0.0,0.0,0.0,0.0,0.0,0.0,0.0,0.0,0.0,0.0,0.0,0.0,0.0,0.0,0.0,0.0,0.0,0.0,0.0,0.0,0.0,0.0,0.0,0.0,0.0,0.0,0.0,0.0,0.0,0.0,0.0,0.0,0.0,0.0,0.0,0.0,0.0,0.0,0.0,0.0,0.0,0.0,0.0,0.0,0.0,0.0,0.0,0.0,0.0,0.0,0.0,0.0,0.0,-4.4931,0.0,0.0,0.0,0.0,0.0,0.0,0.0,0.0,0.0,0.0,0.0,0.0,0.0,0.0,0.0,0.0,0.0,0.0,0.0,0.0,0.0,0.0,0.0,0.0,-1.9478,-2.0131,-1.9629,-1.9594,-1.9486,-1.9203,0.0,0.0,0.0,0.0,0.0,-1.8076,-1.8361,-1.8536,-1.8598,-1.9397,-2.0195,-2.0964,-2.0651,-1.994,-1.8925,0.0,0.0,0.0,0.0,0.0,0.0,0.0,0.0,0.0,0.0,0.0,0.0,0.0,0.0,0.0,0.0,0.0,0.0,0.0,0.0,0.0,0.0,0.0,0.0,0.0,0.0,0.0,0.0,0.0,0.0,0.0,0.0,0.0,0.0,0.0,0.0,0.0,0.0,0.0,0.0,0.0,0.0,0.0,0.0,0.0,0.0,0.0,0.0,0.0,0.0,0.0,0.0,0.0,0.0,0.0,0.0,0.0,0.0,0.0,0.0,0.0,0.0,0.0,0.0,0.0,0.0,0.0,0.0,0.0,0.0,0.0,-4.8302,0.0,0.0,0.0,0.0,0.0,0.0,0.0,0.0,0.0,0.0,0.0,0.0,0.0,0.0,0.0,0.0,0.0,0.0,0.0,0.0,0.0,-1.8315,-1.7659,-1.8732,-1.9227,-1.8602,-1.8438,-1.8363,-1.8262,-1.8152,0.0,0.0,0.0,-1.7646,-1.7324,-1.7904,-1.8596,-1.9434,-2.0968,-2.2502,-2.3973,-2.4586,-2.4161,-2.2933,-2.2519,0.0,0.0,0.0,0.0,0.0,0.0,0.0,0.0,0.0,0.0,0.0,0.0,0.0,0.0,0.0,0.0,0.0,0.0,0.0,0.0,0.0,0.0,0.0,0.0,0.0,0.0,0.0,0.0,0.0,0.0,0.0,0.0,0.0,0.0,0.0,0.0,0.0,0.0,0.0,0.0,0.0,0.0,0.0,0.0,0.0,0.0,0.0,0.0,0.0,0.0,0.0,0.0,0.0,0.0,0.0,0.0,0.0,0.0,0.0,0.0,0.0,0.0,0.0,0.0,-5.7188,-5.8805,-5.8321,-5.9276,-6.1027,-5.6696,-5.4879,-5.479,0.0,0.0,0.0,0.0,0.0,0.0,0.0,0.0,0.0,0.0,0.0,0.0,0.0,0.0,0.0,0.0,0.0,0.0,0.0,0.0,-1.7343,-1.7885,-1.8559,-1.9349,-2.0183,-1.9823,-1.9369,-1.891,-1.8433,0.0,0.0,-1.671,-1.6921,-1.7384,-1.7918,-1.9182,-2.1167,-2.4236,-2.6323,-2.7469,-2.801,-2.8405,-2.86,-2.651,-2.5784,-2.6022,0.0,0.0,0.0,0.0,0.0,0.0,0.0,0.0,0.0,0.0,0.0,0.0,0.0,0.0,0.0,0.0,0.0,0.0,0.0,0.0,0.0,0.0,0.0,0.0,0.0,0.0,0.0,0.0,0.0,0.0,0.0,0.0,0.0,0.0,0.0,0.0,0.0,0.0,0.0,0.0,0.0,-3.4093,-3.6919,0.0,0.0,0.0,0.0,0.0,0.0,0.0,0.0,0.0,0.0,0.0,0.0,0.0,0.0,-5.5304,-5.8292,-6.0241,-6.1083,-6.3394,-6.4856,-6.5713,-6.5604,-6.5731,-6.6037,-6.5321,0.0,-5.8321,-5.6645,0.0,0.0,0.0,0.0,0.0,0.0,0.0,0.0,0.0,0.0,0.0,0.0,0.0,0.0,0.0,0.0,0.0,0.0,0.0,0.0,0.0,-1.866,-1.9618,-2.0128,-2.0522,-2.037,-1.9502,-1.894,-1.8285,-1.7476,-1.7174,-1.74,-1.8279,-1.9459,-2.1744,-2.5209,-2.7293,-2.8875,-2.9955,-3.0206,-3.0739,-3.1438,-3.0405,-2.903,-2.7522,-2.6385,0.0,0.0,0.0,0.0,0.0,0.0,0.0,0.0,0.0,0.0,0.0,0.0,0.0,0.0,0.0,0.0,0.0,0.0,0.0,0.0,0.0,0.0,0.0,0.0,0.0,0.0,0.0,0.0,0.0,0.0,0.0,0.0,0.0,0.0,0.0,0.0,0.0,0.0,0.0,-3.4334,-3.8207,-3.941,-4.0311,-4.0132,0.0,0.0,0.0,0.0,0.0,0.0,0.0,0.0,0.0,-5.5534,-5.7573,-5.948,-6.1093,-6.3352,-6.4706,-6.5414,-6.6961,-6.7855,-6.8117,-6.8542,-6.8698,-6.8645,-6.8286,-6.6819,-6.4425,-6.1224,-5.883,-5.6974,0.0,0.0,0.0,0.0,0.0,-5.4919,0.0,0.0,0.0,0.0,0.0,0.0,0.0,0.0,0.0,0.0,0.0,0.0,-1.7774,-1.9154,-2.0271,-2.0817,-2.1368,-2.1393,-2.069,-1.9735,-1.9033,-1.8631,-1.7953,-1.8179,-1.9409,-2.1769,-2.4732,-2.8323,-2.9729,-3.0884,-3.1813,-3.1971,-3.25,-3.3291,-3.3279,-3.1965,-2.9686,-2.8385,-2.664,0.0,0.0,0.0,0.0,0.0,0.0,0.0,0.0,0.0,0.0,0.0,0.0,0.0,0.0,0.0,0.0,0.0,0.0,0.0,0.0,0.0,0.0,0.0,0.0,0.0,0.0,0.0,0.0,0.0,0.0,0.0,0.0,0.0,0.0,0.0,0.0,0.0,0.0,-3.8623,-4.173,-4.1884,-4.4225,-4.4656,0.0,0.0,0.0,0.0,0.0,0.0,-5.3354,-5.5402,-5.7837,-6.0752,-6.2657,-6.4323,-6.5766,-6.6902,-6.7924,-6.8768,-6.9268,-6.966,-7.0007,-7.0495,-7.0739,-7.0709,-7.0201,-6.9991,-6.9662,-6.5383,-6.3109,-6.2181,-6.0146,-5.9069,-5.883,-6.0146,-6.0086,-5.9787,0.0,0.0,0.0,0.0,0.0,0.0,0.0,0.0,0.0,0.0,0.0,-1.7804,-1.9485,-2.0265,-2.1499,-2.3602,-2.2849,-2.2443,0.0,-2.0939,-1.9761,-1.9736,-1.8731,-1.8932,-2.0566,-2.4815,-2.762,-2.8838,-3.1035,-3.239,-3.3036,-3.3563,-3.4067,-3.4589,-3.4598,-3.4384,-3.3839,-3.1356,-2.9881,-2.8903,0.0,0.0,0.0,0.0,0.0,0.0,0.0,0.0,0.0,0.0,0.0,0.0,0.0,0.0,0.0,0.0,0.0,0.0,0.0,0.0,0.0,0.0,0.0,0.0,0.0,0.0,0.0,0.0,0.0,0.0,0.0,0.0,0.0,0.0,0.0,0.0,0.0,0.0,0.0,-4.5933,-4.8331,0.0,0.0,0.0,0.0,-5.0737,-5.3853,-5.687,-5.9488,-6.159,-6.3571,-6.5562,-6.7001,-6.773,-6.7842,-6.8546,-6.9516,-7.0753,-7.0783,-7.1452,-7.2744,-7.2744,-7.2774,-7.2774,-7.2744,-7.2714,-7.2445,-6.9064,-6.6909,-6.5742,-6.5622,-6.4425,-6.2929,-6.4246,-6.3917,-6.3019,0.0,0.0,0.0,-1.3854,-1.4339,-1.4584,-1.4192,-1.4577,-1.4972,-1.5113,-1.6395,-1.7961,-1.9635,-2.1267,-2.2874,-2.4381,-2.4808,-2.4757,-2.4224,-2.2472,-2.1744,-2.2472,-2.1091,-2.192,-2.5385,-2.7344,-2.9402,-3.1587,-3.2405,-3.3233,-3.4142,-3.4325,-3.4514,-3.4684,-3.4703,-3.4648,-3.4481,-3.3386,-3.1678,-2.9581,-2.8189,-2.558,0.0,0.0,0.0,0.0,0.0,0.0,0.0,0.0,0.0,0.0,0.0,0.0,0.0,0.0,0.0,0.0,0.0,0.0,0.0,0.0,0.0,0.0,0.0,0.0,0.0,0.0,0.0,0.0,0.0,0.0,0.0,0.0,0.0,0.0,0.0,0.0,0.0,-4.996,-5.2779,0.0,0.0,-5.3512,-5.509,-5.6196,-5.9009,-6.1395,-6.3173,-6.5158,-6.6581,-6.7244,-6.8971,-6.9884,-6.9867,-7.0938,-7.1702,-7.2186,-7.2624,-7.2871,-7.2924,-7.332,-7.3328,-7.2924,-7.2924,-7.2924,-7.2804,-7.1158,-6.9961,-6.9064,-6.8256,-6.7508,-6.6939,-6.7418,-6.6999,-6.6311,-1.2128,-1.2719,0.0,-1.3132,-1.3763,-1.4132,-1.3715,-1.4297,-1.4868,-1.5124,-1.6945,-1.8832,-2.0464,-2.2443,-2.4123,-2.5285,-2.5862,-2.5971,-2.541,-2.3803,-2.3301,-2.423,-2.3552,-2.4707,-2.8021,-2.9377,-3.104,-3.3123,-3.3445,-3.4099,-3.4958,-3.4976,-3.5066,-3.5277,-3.5259,-3.5273,-3.5246,-3.5102,-3.3543,-3.1124,-3.0455,-2.8247,-2.5267,0.0,0.0,0.0,0.0,0.0,0.0,0.0,0.0,0.0,0.0,0.0,0.0,0.0,0.0,0.0,0.0,0.0,0.0,0.0,0.0,0.0,0.0,0.0,0.0,0.0,0.0,0.0,0.0,0.0,0.0,0.0,0.0,0.0,0.0,0.0,-5.188,-5.2775,-5.616,-5.7734,-5.6041,-5.7842,-5.9673,-6.0967,-6.3164,-6.4962,-6.6279,-6.8023,-6.9097,-6.9286,-7.0772,-7.1615,-7.154,-7.2447,-7.2969,-7.326,-7.3717,-7.3836,-7.3582,-7.4006,-7.4015,-7.3582,-7.3582,-7.3582,-7.3522,-7.2834,-7.2176,-7.1457,-7.0141,-6.9512,-6.9333,-6.9333,-6.8884,-6.8286,-1.0799,-1.1574,-1.2137,-1.2011,-1.3039,-1.3736,-1.3257,-1.4161,-1.5085,-1.5618,-1.8078,-2.0439,-2.2121,-2.3797,-2.5259,-2.6399,-2.5996,-2.5862,-2.6449,-2.4965,-2.428,-2.485,-2.6021,-2.7153,-2.8222,-3.0884,-3.255,-3.3171,-3.4234,-3.4984,-3.5556,-3.5556,-3.5856,-3.6433,-3.6408,-3.6455,-3.648,-3.6455,-3.5483,-3.3859,-3.2401,-3.101,-2.963,0.0,0.0,0.0,0.0,0.0,0.0,0.0,0.0,0.0,0.0,0.0,0.0,0.0,0.0,0.0,0.0,0.0,0.0,0.0,0.0,0.0,0.0,0.0,0.0,0.0,0.0,0.0,0.0,0.0,0.0,0.0,0.0,0.0,-4.6535,-5.1046,-5.435,-5.4417,-5.844,-6.0667,-5.9369,-6.1654,-6.373,-6.4946,-6.6312,-6.7691,-6.8955,-7.0269,-7.1248,-7.1906,-7.2611,-7.2902,-7.2954,-7.2954,-7.332,-7.3926,-7.3926,-7.4316,-7.4869,-7.4869,-7.4869,-7.4869,-7.4869,-7.4869,-7.4839,-7.418,-7.3522,-7.2804,-7.1457,-7.056,-7.0021,-7.0021,-6.9572,-6.8884,-1.016,-1.1018,-1.1737,-1.1724,-1.2655,-1.336,-1.3215,-1.4161,-1.5085,-1.5618,-1.8078,-2.0439,-2.2121,-2.3797,-2.5259,-2.6399,-2.6348,-2.6323,-2.6474,-2.5285,-2.5209,-2.654,-2.8448,-3.0181,-3.1687,-3.2441,-3.3481,-3.4819,-3.5136,-3.5573,-3.6146,-3.6146,-3.6447,-3.6967,-3.6997,-3.7216,-3.7543,-3.7564,-3.7086,-3.6157,-3.4521,-3.2727,-3.0859,0.0,0.0,0.0,0.0,0.0,0.0,0.0,0.0,0.0,0.0,0.0,0.0,0.0,0.0,0.0,0.0,0.0,0.0,0.0,0.0,0.0,0.0,0.0,0.0,0.0,0.0,0.0,0.0,0.0,0.0,0.0,0.0,-5.1308,-5.1307,-5.4591,-5.7565,-5.905,-6.1562,-6.3039,-6.2677,-6.4629,-6.604,-6.6421,-6.8168,-6.9556,-7.0295,-7.1153,-7.1924,-7.2574,-7.3268,-7.3604,-7.3642,-7.4091,-7.442,-7.4638,-7.4638,-7.4728,-7.4869,-7.4869,-7.4869,-7.4869,-7.4869,-7.4869,-7.4839,-7.418,-7.3791,-7.3492,-7.2146,-7.1218,-7.0649,-7.0649,-6.9961,-6.8884,-0.9893,-1.0812,-1.1597,-1.1597,-1.2498,-1.3198,-1.3198,-1.4161,-1.516,-1.5944,-1.8455,-2.0715,-2.2146,-2.3797,-2.5084,-2.5711,-2.5963,-2.6047,-2.5787,-2.5812,-2.659,-2.8247,-3.0231,-3.1838,-3.3043,-3.3746,-3.4564,-3.5502,-3.5755,-3.6042,-3.6405,-3.6639,-3.6898,-3.7216,-3.7444,-3.7716,-3.7992,-3.8015,-3.7814,-3.7437,-3.6232,-3.47,-3.3025,-3.2276,-3.0677,-2.885,-2.8388,-2.7478,-2.6501,-2.6448,0.0,0.0,0.0,0.0,0.0,0.0,0.0,0.0,0.0,0.0,0.0,0.0,0.0,0.0,0.0,0.0,0.0,0.0,0.0,0.0,0.0,0.0,0.0,0.0,-5.2375,-5.5209,-5.6338,-5.8176,-5.9997,-6.1751,-6.3183,-6.4208,-6.4754,-6.6131,-6.72,-6.7826,-6.9406,-7.0661,-7.1293,-7.2259,-7.2939,-7.3313,-7.3941,-7.43,-7.43,-7.4689,-7.4869,-7.4869,-7.4869,-7.4869,-7.4869,-7.4869,-7.4869,0.0,-7.4869,-7.4869,-7.4839,-7.445,-7.4151,0.0,0.0,0.0,0.0,0.0,-7.0081,-6.8944,-0.998,-1.0897,-1.1691,-1.1691,-1.2538,-1.3198,-1.3198,-1.4161,-1.5286,-1.635,-1.8832,-2.0943,-2.2096,-2.3572,-2.455,-2.4675,-2.5259,-2.5485,-2.5176,-2.6691,-2.8247,-2.9804,-3.1436,-3.2616,-3.3244,-3.4731,-3.5521,-3.5613,-3.6193,-3.648,-3.6486,-3.7045,-3.7344,-3.7417,-3.7915,-3.814,-3.8191,-3.8191,-3.8165,-3.8065,-3.7563,-3.6684,-3.5483,-3.4474,-3.3395,-3.2265,-3.126,-3.0256,-2.9303,-2.8656,0.0,0.0,0.0,0.0,0.0,0.0,0.0,0.0,0.0,0.0,0.0,0.0,0.0,0.0,0.0,0.0,0.0,0.0,0.0,0.0,0.0,0.0,0.0,0.0,-5.5843,-5.8435,-6.0972,-6.1377,-6.1896,-6.303,-6.3797,-6.4723,-6.5973,-6.6786,-6.7772,-6.9015,-7.026,-7.1309,-7.1999,0.0,0.0,0.0,0.0,-7.4869,-7.4869,-7.4869,-7.4869,-7.4869,-7.4869,-7.4869,-7.4869,-7.4869,-7.4869,-7.4869,-7.4869,-7.4869,-7.4869,-7.4869,-7.448,-7.3762,-7.2415,-7.1846,-7.1697,-7.1128,-7.0141,0.0,-1.0552,-1.146,-1.2253,-1.2253,-1.2772,-1.3198,-1.3198,-1.4161,-1.5286,-1.635,-1.8155,-1.9936,-2.1468,-2.2322,-2.3145,-2.4079,-2.5034,-2.6138,0.0,0.0,-2.9654,-3.0432,-3.2039,-3.337,-3.4374,-3.5107,-3.573,-3.6247,-3.6789,-3.7054,-3.7047,-3.7592,-3.8116,-3.8562,-3.8692,-3.8944,-3.9371,-3.9371,-3.912,-3.8693,-3.8592,-3.7662,-3.6132,-3.5433,-3.455,-3.3495,-3.2842,-3.2466,-3.223,-3.1967,-3.2038,-3.2179,-3.1811,0.0,0.0,0.0,0.0,0.0,0.0,0.0,0.0,0.0,0.0,0.0,0.0,0.0,0.0,0.0,0.0,0.0,0.0,0.0,0.0,-5.5873,-5.8628,-6.0898,-6.248,-6.315,-6.3559,-6.3801,-6.4873,-6.5945,-6.6701,-6.7901,-6.896,-6.9754,-7.0984,-7.1971,-7.27,-7.3491,0.0,-7.4668,-7.4847,-7.4869,-7.4869,-7.4869,-7.4869,-7.4869,0.0,0.0,-7.4869,-7.4869,-7.4869,-7.4869,-7.4869,-7.4869,-7.4869,-7.4869,-7.448,-7.3762,-7.2415,-7.1577,-7.1068,-7.0949,-7.044,-6.9722,-1.1494,-1.2011,-1.2388,-1.2388,-1.2839,-1.3315,-1.3584,-1.4356,-1.5286,-1.635,-1.7472,-1.8684,-2.0111,-2.0469,-2.0934,-2.1816,-2.3401,0.0,0.0,-2.9001,-3.0156,-3.0959,-3.2867,-3.4148,-3.468,-3.5529,-3.621,-3.6812,-3.7093,-3.7329,-3.7618,-3.8166,-3.859,-3.8916,-3.9194,-3.9446,-3.9697,-3.9697,-3.9546,-3.927,-3.8994,-3.8191,-3.7136,-3.6584,-3.568,-3.465,-3.4098,-3.3721,-3.3553,-3.3953,-3.3811,-3.3625,-3.4193,-3.3403,-3.2069,0.0,0.0,0.0,0.0,0.0,0.0,0.0,0.0,0.0,0.0,0.0,0.0,0.0,0.0,-4.8054,-5.0768,0.0,-5.6518,-5.9195,-6.0705,-6.1961,-6.2987,-6.3921,-6.4511,-6.4472,-6.5372,-6.6391,-6.7441,-6.8402,-6.9359,-7.0366,-7.1652,-7.2684,-7.3363,-7.4066,-7.4522,-7.4869,-7.4869,-7.4869,-7.4869,-7.4869,-7.4869,-7.4869,-7.4869,-7.4869,-7.4869,-7.4869,-7.4869,-7.4869,-7.4869,-7.4869,-7.4869,-7.4869,-7.448,-7.3791,-7.2804,-7.1996,-7.1368,-7.1009,-7.05,-6.9931,-1.2448,-1.2563,-1.2563,-1.2563,-1.2897,-1.3391,-1.3997,-1.4551,-1.5286,-1.635,-1.6849,-1.7533,-1.8561,-1.8524,-1.8881,0.0,0.0,0.0,0.0,-2.9101,-3.0482,-3.1361,-3.352,-3.468,-3.468,-3.5805,-3.6659,-3.7188,-3.7278,-3.7633,-3.8191,-3.8762,-3.9091,-3.9044,-3.9496,-3.9697,-3.9697,-3.9697,-3.9697,-3.9647,-3.9094,-3.8517,-3.7939,-3.7287,-3.6411,-3.5415,-3.4906,-3.4407,-3.4083,-3.4527,-3.4378,-3.4179,-3.5013,-3.4918,-3.4289,-3.3516,-3.2386,0.0,0.0,0.0,0.0,0.0,0.0,0.0,0.0,0.0,-4.5781,-4.9157,-5.1347,-5.3584,-5.6242,-5.7912,-5.9593,-6.178,-6.2211,-6.249,-6.3019,-6.4095,-6.4815,-6.484,-6.5615,-6.6727,-6.8087,-6.8691,-6.9595,-7.0968,-7.2229,-7.3208,-7.3831,-7.4522,-7.4869,-7.4869,-7.4869,-7.4869,-7.4869,-7.4869,-7.4869,-7.4869,-7.4869,-7.4869,-7.4869,-7.4869,-7.4869,-7.4869,-7.4869,-7.4869,-7.4869,-7.4869,-7.4569,-7.4001,-7.3223,-7.2565,-7.1996,-7.1188,-7.059,-7.0141,-1.3004,-1.3098,-1.3098,-1.3098,-1.3148,-1.3391,-1.3997,-1.4551,-1.5286,-1.635,-1.6509,-1.6764,-1.7412,-1.7013,-1.7894,-2.0967,0.0,0.0,-2.7871,-3.003,-3.126,-3.1386,-3.352,-3.468,-3.468,-3.5805,-3.6672,-3.7188,-3.7664,-3.8241,-3.8793,-3.9346,-3.9595,-3.9597,-3.9672,-3.9697,-3.9697,-3.9697,-3.9697,-3.9647,-3.9094,-3.8517,-3.7889,-3.6885,-3.6068,-3.5409,-3.4865,-3.4579,-3.4245,-3.2966,-3.3699,-3.4897,-3.3536,-3.4692,-3.6266,-3.5025,0.0,-3.4332,-3.5495,-3.6712,-3.8523,-4.2336,-4.2602,-4.3828,0.0,0.0,-5.1259,-5.461,-5.6882,-5.8335,-5.8692,-6.0371,-6.1773,-6.2066,-6.2622,-6.3019,-6.3079,-6.37,-6.4092,-6.4099,-6.5741,-6.742,-6.8777,-6.897,-6.9789,-7.1629,-7.2507,-7.3193,-7.3831,-7.4522,-7.4869,-7.4869,-7.4869,-7.4869,-7.4869,-7.4869,-7.4869,-7.4869,-7.4869,-7.4869,-7.4869,-7.4869,-7.4869,-7.4869,-7.4869,-7.4869,-7.4869,-7.4869,-7.4839,-7.4629,-7.3402,-7.2864,-7.2654,-7.1368,-7.0859,-7.0709,-1.2749,-1.3002,-1.3121,-1.2842,-1.3328,-1.3903,-1.4475,-1.5009,-1.5643,-1.64,-1.5857,-1.5637,-1.6241,-1.6103,-1.7025,-1.9765,-2.2052,-2.428,-2.649,-2.9352,-3.106,-3.1386,-3.352,-3.468,-3.468,-3.5805,-3.6656,-3.7182,-3.7765,-3.8317,-3.8891,-3.9445,-3.9697,-3.9697,-3.9697,-3.9697,-3.9697,-3.9697,-3.9697,-3.9647,-3.9094,-3.8517,-3.7864,-3.6433,-3.5303,-3.4514,-3.3947,-3.3495,0.0,0.0,-3.2826,-3.3013,-3.2909,-3.3208,-3.3523,-3.3275,-3.4284,0.0,-4.0003,-4.1995,-4.3696,0.0,-4.7954,-4.9775,-5.3832,-5.4722,-5.5388,-5.7939,-5.9751,-6.0859,-6.0823,-6.1828,-6.2687,0.0,-6.2954,-6.3079,-6.3079,-6.3609,-6.3996,-6.4002,-6.5083,-6.6491,-6.8268,-6.8764,-6.9943,-7.2305,-7.276,-7.3358,-7.4433,-7.471,-7.4869,-7.4869,-7.4869,-7.4869,-7.4869,-7.4869,-7.4869,-7.4869,-7.4869,-7.4869,-7.4869,-7.4869,-7.4869,-7.4869,-7.4869,-7.4869,-7.4839,-7.445,-7.43,-7.418,-7.2834,-7.2325,-7.2206,-7.1248,-7.0889,-7.0669,-1.2305,-1.2575,-1.2718,-1.2377,-1.3168,-1.4025,-1.4577,-1.4955,-1.5389,-1.5925,-1.5107,-1.4629,-1.5062,-1.5107,-1.6079,-1.8536,-2.0645,-2.2895,-2.5435,-2.8448,-3.0507,-3.1361,-3.3244,-3.4399,-3.468,-3.5655,-3.6483,-3.7186,-3.7564,-3.8091,-3.8638,-3.9216,-3.9495,-3.9471,-3.9622,-3.9697,-3.9697,-3.9521,-3.9471,-3.9396,-3.8693,-3.8065,-3.7387,-3.5683,-3.4281,-3.3183,-3.2751,-3.2329,0.0,0.0,-3.1526,-3.1403,-3.1734,-3.1959,-3.2289,-3.3208,-3.5861,-3.9238,-4.3006,0.0,0.0,-4.9584,-5.1929,-5.4171,-5.5883,-5.7108,-5.8411,-6.0006,-6.1291,-6.201,-6.1836,-6.2368,-6.2784,-6.2784,-6.3137,-6.3314,-6.3137,-6.3609,-6.3905,-6.3757,-6.4332,-6.5442,-6.7245,-6.8073,-6.9521,-7.2109,-7.2521,-7.3208,-7.454,-7.4779,-7.4869,-7.4869,-7.4869,-7.4869,-7.4869,-7.4869,-7.4869,-7.4869,-7.4869,-7.4869,-7.4869,-7.4869,-7.4869,-7.4869,-7.4869,-7.4869,-7.4839,-7.418,-7.3881,-7.3694,-7.1823,-7.1088,-7.0962,-6.9788,-6.9685,-6.9788,-1.1893,-1.1817,-1.1845,-1.1813,-1.2609,-1.3396,-1.395,-1.3985,-1.4138,-1.4676,-1.4213,-1.3815,-1.3839,-1.3839,-1.4993,-1.7862,-1.9676,-2.2078,-2.5377,-2.7684,-2.9704,-3.1311,-3.2491,-3.3621,-3.47,-3.5232,-3.6096,-3.7184,-3.7235,-3.7466,-3.8015,-3.8639,-3.894,-3.8969,-3.9446,-3.9697,-3.9672,-3.912,-3.8944,-3.8844,-3.7688,-3.6935,-3.6282,-3.46,-3.2918,-3.1477,-3.1436,0.0,0.0,0.0,-2.9582,-3.0955,-2.9491,-3.1461,0.0,-3.6665,-4.0479,0.0,0.0,0.0,-4.9689,-5.1648,-5.3653,-5.5807,-5.8387,-5.9518,-6.0206,-6.0924,-6.1595,-6.1925,-6.1257,-6.1685,-6.2108,-6.2108,-6.3166,-6.3757,-6.3166,-6.3609,-6.3757,-6.3196,-6.364,-6.4595,0.0,-6.6629,-6.8165,-7.0734,-7.1569,-7.2514,-7.3881,-7.454,-7.4869,-7.4869,-7.4869,-7.4869,-7.4869,-7.4869,-7.4869,-7.4869,-7.4869,-7.4869,-7.4869,-7.4869,-7.4869,-7.4869,-7.4869,-7.4869,-7.4839,-7.418,-7.3881,-7.3626,-7.0409,-6.9171,-6.8878,-6.6286,-6.658,-6.7878,-1.1836,-1.2004,-1.209,-1.1774,-1.2481,-1.3127,-1.3303,-1.4291,-1.5077,-1.5286,-1.4789,0.0,0.0,0.0,0.0,0.0,-1.8965,-2.0722,-2.3741,-2.6389,-2.8423,-2.9704,-3.1512,-3.2867,-3.3621,-3.4173,-3.4769,-3.5536,-3.5881,-3.637,-3.6983,-3.7533,-3.7937,-3.8316,-3.8492,-3.8567,-3.8567,-3.8366,-3.8517,-3.8718,-3.686,-3.6207,-3.6132,-3.3721,-3.1989,-3.0703,0.0,0.0,0.0,-2.7799,-2.8048,-2.8645,-2.8862,0.0,0.0,-3.7092,0.0,-4.3453,-4.6943,0.0,-5.2384,-5.4341,-5.5987,-5.7603,-5.9368,-5.9937,-6.0146,-6.0386,-6.0271,-5.99,-5.9221,-5.9658,-6.0247,-6.0701,-6.2225,-6.3351,-6.3118,-6.4008,-6.4289,-6.3196,-6.404,0.0,0.0,0.0,0.0,-7.0709,-7.1536,-7.2491,-7.3799,-7.4548,-7.4869,-7.4869,-7.4869,-7.4869,-7.4869,-7.4869,-7.4869,-7.4869,-7.4869,-7.4869,-7.4869,-7.4869,-7.4869,-7.4869,-7.4869,-7.4169,-7.2818,-7.1789,-7.0588,-6.911,-6.7298,-6.6511,-6.6271,-6.4174,-6.3757,-6.4183,-1.1476,-1.1678,-1.182,-1.1675,-1.2255,0.0,0.0,0.0,0.0,0.0,0.0,0.0,0.0,0.0,0.0,0.0,0.0,-1.9794,-2.2639,-2.4883,-2.6766,-2.8273,-2.9408,-3.0602,-3.1888,-3.1945,-3.2455,-3.352,-3.4064,-3.464,-3.5257,-3.576,-3.6206,-3.6558,-3.6759,-3.6835,-3.681,-3.6634,-3.6759,-3.696,-3.5328,-3.465,-3.4399,-3.239,-3.0834,0.0,0.0,0.0,0.0,-2.6471,-2.6806,-2.7469,0.0,0.0,0.0,0.0,-4.2679,-4.5522,-5.0041,-5.2576,-5.4371,-5.6368,-5.7663,-5.874,-5.9837,-5.9872,-5.9588,-5.911,-5.8545,-5.7719,-5.6557,-5.6907,-5.7775,-5.9141,-6.1106,-6.2587,-6.3313,-6.4546,-6.5067,-6.4217,-6.4845,-6.556,0.0,0.0,0.0,-7.0106,-7.1267,-7.2349,-7.3484,-7.4398,-7.4869,-7.4869,-7.4869,-7.4869,-7.4869,-7.4869,-7.4869,-7.4869,-7.4869,-7.4869,-7.4869,-7.4869,-7.4869,-7.4839,-7.4147,-7.3062,-7.1768,-7.0024,-6.8437,-6.6799,-6.5118,-6.4328,-6.3948,-6.2089,-6.1391,-6.1339,-1.0979,-1.0941,-1.1085,0.0,0.0,0.0,0.0,0.0,0.0,0.0,0.0,0.0,0.0,0.0,0.0,0.0,0.0,0.0,-2.2038,-2.3276,0.0,-2.7017,-2.6406,-2.7152,-2.9679,-2.8915,-2.9426,-3.1326,-3.1809,-3.2389,-3.299,-3.3469,-3.3741,-3.3796,-3.4349,-3.4555,-3.455,-3.4048,-3.3822,-3.3796,-3.3169,-3.229,-3.1286,-3.0733,0.0,0.0,0.0,0.0,0.0,0.0,0.0,0.0,0.0,0.0,0.0,0.0,0.0,-4.9951,-5.2647,-5.4341,-5.5829,-5.7738,-5.8644,-5.9243,-5.9813,-5.9411,-5.853,-5.7155,-5.6343,-5.5253,-5.3301,0.0,-5.4977,-5.75,-5.9779,-6.185,-6.373,-6.5232,-6.6064,0.0,0.0,0.0,0.0,0.0,0.0,-6.9049,0.0,-7.2186,-7.292,-7.4196,-7.4869,-7.4869,-7.4869,-7.4869,-7.4869,-7.4869,-7.4839,-7.471,-7.471,-7.4681,-7.4552,-7.4603,-7.4564,-7.4504,-7.2582,-7.1659,-7.1359,-6.8785,-6.7359,-6.6522,-6.4004,-6.2715,-6.2093,-6.015,-5.9483,-5.9483,0.0,0.0,0.0,0.0,0.0,0.0,0.0,0.0,0.0,0.0,0.0,0.0,0.0,0.0,0.0,0.0,0.0,0.0,-2.0939,0.0,0.0,0.0,0.0,-2.6582,-2.8499,-2.8338,0.0,0.0,0.0,-3.0692,-3.1243,-3.1365,-3.164,-3.2039,-3.2616,-3.2842,-3.2842,-3.2692,-3.2893,-3.3144,0.0,-3.0708,-3.0708,0.0,0.0,0.0,0.0,0.0,0.0,0.0,0.0,0.0,0.0,0.0,-4.0999,0.0,0.0,-5.1511,-5.5119,-5.6727,-5.7738,-5.9213,-5.9338,-5.886,-5.8068,-5.7356,-5.6265,-5.3923,-5.2535,-5.1143,-4.9164,0.0,0.0,-5.5008,-5.9375,0.0,-6.3881,-6.5979,0.0,-6.6125,0.0,-6.8203,-6.8018,-6.9333,0.0,0.0,-7.1378,-7.2439,-7.3557,-7.4436,-7.4869,-7.4869,-7.4869,-7.4869,-7.4869,-7.4869,-7.4176,-7.2699,-7.2699,-7.1914,-7.0438,-7.042,-7.0476,-7.0374,-6.99,-6.8765,-6.7291,-6.6213,-6.4763,-6.3112,-6.1628,-6.0965,-6.0709,-5.9788,-5.9483,-5.9483,0.0,0.0,0.0,0.0,0.0,0.0,0.0,0.0,0.0,0.0,0.0,0.0,0.0,0.0,0.0,0.0,0.0,0.0,0.0,0.0,0.0,0.0,0.0,-2.4451,-2.6264,-2.6392,0.0,0.0,0.0,0.0,0.0,-2.8804,-2.8975,-2.929,-2.9804,-3.0055,-3.0055,-3.0306,0.0,0.0,0.0,0.0,0.0,0.0,0.0,0.0,0.0,0.0,0.0,0.0,0.0,-3.6044,-3.8996,-4.1274,-4.3622,-4.8144,0.0,-5.3683,-5.7064,-5.8284,-5.8817,-5.9831,-5.9177,-5.7805,-5.6182,-5.4887,-5.3098,-4.9825,-4.8595,0.0,-4.5101,-4.7962,0.0,0.0,0.0,0.0,-6.407,-6.6251,-6.7509,0.0,-6.858,0.0,-6.9713,-7.07,-7.1595,0.0,-7.2583,-7.3106,-7.3864,-7.4526,-7.4869,-7.4869,-7.4869,-7.4869,-7.4869,-7.4019,-7.3043,-7.1914,-7.1004,-7.0025,-6.8871,-6.8908,-6.8911,-6.8874,0.0,-6.6894,-6.5677,-6.45,-6.3063,-6.1637,-6.0931,-6.0409,-5.991,-5.9608,-5.9483,-5.9483,0.0,0.0,0.0,0.0,0.0,0.0,0.0,0.0,0.0,-1.593,0.0,0.0,0.0,0.0,0.0,0.0,0.0,0.0,0.0,0.0,0.0,0.0,0.0,-2.2007,-2.3979,0.0,0.0,0.0,0.0,0.0,0.0,0.0,0.0,0.0,0.0,0.0,0.0,0.0,0.0,0.0,0.0,0.0,0.0,0.0,0.0,0.0,0.0,0.0,0.0,0.0,-3.6654,-3.7495,-3.9949,-4.3211,-4.6775,-5.0103,-5.2919,-5.5611,-5.8321,-5.9086,-5.9279,-5.991,-5.8534,-5.6419,-5.4326,-5.2171,-4.9572,-4.5712,0.0,-4.3927,-4.1576,-4.4359,-4.8153,-5.1519,0.0,-5.9727,-6.4334,-6.6222,-6.7623,-6.8867,-6.9714,-7.0683,-7.1807,-7.2075,-7.2619,-7.3821,-7.3949,-7.4024,-7.4038,-7.4586,-7.4869,-7.4869,-7.4869,-7.4869,-7.4869,-7.3171,-7.2042,-7.1474,-6.9728,-6.8609,-6.8131,-6.8091,-6.8066,-6.7972,0.0,0.0,-6.5252,-6.3426,-6.215,-6.1331,-6.1156,-6.0451,-5.9608,-5.9533,-5.9483,-5.9483,0.0,0.0,0.0,0.0,0.0,0.0,0.0,0.0,0.0,0.0,-1.7144,-1.664,0.0,0.0,0.0,0.0,0.0,0.0,0.0,0.0,0.0,0.0,0.0,0.0,0.0,0.0,0.0,0.0,0.0,0.0,0.0,0.0,0.0,0.0,0.0,0.0,0.0,0.0,0.0,0.0,0.0,0.0,0.0,0.0,0.0,0.0,0.0,0.0,0.0,0.0,-3.745,-4.1133,-4.4654,-4.5521,-4.6036,-5.0263,-5.2768,-5.4836,-5.7913,-5.8943,-5.9254,-5.9937,-5.8204,-5.5529,-5.2452,-4.9793,0.0,0.0,-4.2025,-4.095,-3.9937,-4.2981,-4.6911,-5.0777,0.0,0.0,0.0,0.0,-6.8108,0.0,0.0,0.0,0.0,0.0,0.0,0.0,0.0,0.0,-7.4698,-7.4847,-7.4869,-7.4869,-7.4869,-7.4869,-7.4869,-7.4522,-7.2729,-6.9417,-6.9106,-6.7128,-6.3843,-6.3828,-6.3885,-6.3818,0.0,0.0,-6.3269,-6.2452,-6.2058,-6.1802,-6.0822,-6.0347,-6.0079,-5.9684,-5.9483,-5.9483,0.0,0.0,0.0,0.0,0.0,0.0,0.0,0.0,-1.6806,-1.948,-1.9352,-1.9014,-1.9008,-1.8511,0.0,0.0,0.0,0.0,0.0,0.0,0.0,0.0,0.0,0.0,0.0,0.0,0.0,0.0,0.0,0.0,0.0,0.0,0.0,0.0,0.0,0.0,0.0,0.0,0.0,0.0,0.0,0.0,0.0,0.0,0.0,0.0,0.0,0.0,0.0,0.0,-3.5751,-3.9767,-4.3023,-4.4729,-4.6104,-4.9191,-5.1353,-5.3526,-5.7226,-5.8031,-5.8105,-5.9274,-5.7362,-5.4073,-5.0066,0.0,0.0,0.0,-3.9062,-3.8557,-3.7554,0.0,0.0,0.0,0.0,0.0,0.0,0.0,0.0,0.0,0.0,0.0,0.0,0.0,0.0,0.0,0.0,0.0,-7.4869,-7.4869,-7.4869,-7.4869,-7.4869,-7.4364,-7.3358,-7.3358,-7.1288,-6.7267,-6.7248,-6.5732,-6.2822,-6.2822,-6.2822,-6.2822,-6.2822,0.0,-6.232,-6.212,-6.1646,-6.106,-6.0465,-6.0129,-5.9832,-5.9608,-5.9355,-5.91,0.0,0.0,0.0,0.0,0.0,0.0,0.0,-1.6718,-1.7879,-2.0252,-2.0819,-2.0816,-2.0264,-1.9389,-1.89,0.0,0.0,0.0,0.0,0.0,0.0,0.0,0.0,0.0,0.0,0.0,0.0,0.0,0.0,0.0,0.0,0.0,0.0,0.0,0.0,0.0,0.0,0.0,0.0,0.0,0.0,0.0,0.0,0.0,0.0,0.0,0.0,0.0,0.0,0.0,-3.3427,-3.6261,-3.9007,-4.2243,-4.537,-4.7266,-4.9611,-5.2379,-5.5993,-5.7082,-5.7448,-5.8605,-5.6439,-5.2755,-4.8172,-4.4907,0.0,0.0,-3.6757,-3.673,-3.5878,0.0,0.0,0.0,0.0,0.0,0.0,0.0,0.0,0.0,0.0,0.0,0.0,0.0,0.0,0.0,0.0,0.0,0.0,-7.4869,-7.4869,-7.4869,-7.4869,-7.4147,-7.2571,-7.2561,-7.0544,-6.6457,-6.649,-6.5144,-6.2822,-6.2822,-6.2822,-6.2822,-6.2822,0.0,0.0,-6.1877,-6.1196,-6.0276,-6.0212,-5.9851,-5.9483,-5.9483,-5.9125,-5.8771,0.0,0.0,0.0,0.0,0.0,0.0,0.0,-1.6289,-1.7419,-2.0061,-2.0075,-2.0281,-2.1398,-2.13,-2.0786,0.0,0.0,0.0,0.0,0.0,0.0,0.0,0.0,0.0,0.0,0.0,0.0,0.0,0.0,0.0,0.0,0.0,0.0,0.0,0.0,0.0,0.0,0.0,0.0,0.0,0.0,0.0,0.0,0.0,0.0,0.0,0.0,0.0,0.0,0.0,0.0,-3.1667,-3.4456,-3.8273,-4.2171,-4.4324,0.0,0.0,-5.4129,-5.6793,-5.8768,-5.8302,-5.5707,-5.2064,-4.7432,0.0,0.0,-3.7207,-3.6042,-3.5816,-3.6317,-3.7198,0.0,0.0,0.0,-5.1291,0.0,0.0,0.0,0.0,0.0,0.0,0.0,0.0,0.0,0.0,0.0,0.0,0.0,-7.4869,-7.4869,-7.4869,-7.4869,-7.4809,-7.4651,-7.4649,-7.258,-6.863,-6.8597,-6.6555,-6.2822,-6.2822,-6.2822,-6.2822,0.0,0.0,0.0,-6.1466,-6.0885,-6.0255,-5.9754,-5.9531,-5.9483,-5.9483,-5.9125,-5.8698,0.0,0.0,0.0,0.0,0.0,0.0,0.0,-1.7306,-1.8377,-2.102,-2.1571,-2.1946,-2.247,-2.2188,-2.1393,0.0,0.0,0.0,0.0,0.0,0.0,0.0,0.0,0.0,0.0,0.0,0.0,0.0,0.0,0.0,0.0,0.0,0.0,0.0,0.0,0.0,0.0,0.0,0.0,0.0,0.0,0.0,0.0,0.0,0.0,0.0,0.0,0.0,0.0,0.0,0.0,0.0,-3.1518,-3.3884,0.0,0.0,-4.5496,-4.9243,-5.2598,-5.5248,-5.6921,-5.6444,-5.4746,-5.1773,-4.6326,0.0,-4.0321,-3.6663,-3.5674,-3.5576,-3.5875,-3.6411,-3.8161,0.0,-4.351,-4.6491,-5.3203,0.0,0.0,0.0,0.0,0.0,0.0,0.0,0.0,0.0,0.0,0.0,0.0,-7.4869,-7.4869,-7.4869,-7.4869,-7.4334,-7.3073,-7.4283,-7.285,-6.8911,-7.0109,-6.9045,-6.5836,-6.5836,-6.5677,-6.5252,0.0,0.0,0.0,-6.2507,-6.1395,-5.9782,-5.9608,-5.9483,-5.9483,-5.9483,-5.8973,-5.8268,0.0,0.0,0.0,0.0,0.0,-1.4742,-1.6749,-1.7514,-1.8573,-2.0488,-2.1521,-2.2189,-2.2425,-2.2072,-2.1343,-2.0162,0.0,0.0,0.0,0.0,0.0,0.0,0.0,0.0,0.0,0.0,0.0,0.0,0.0,0.0,0.0,0.0,0.0,0.0,0.0,0.0,0.0,0.0,0.0,0.0,0.0,0.0,0.0,0.0,0.0,0.0,0.0,0.0,0.0,0.0,0.0,0.0,0.0,0.0,0.0,0.0,-4.3291,-4.6828,-5.0872,-5.3582,-5.5143,-5.4724,-5.3446,-5.0817,0.0,-4.2526,-4.0044,-3.629,-3.5519,-3.5519,-3.5519,-3.6055,-3.7282,-3.972,-4.1173,-4.3972,-4.97,0.0,0.0,0.0,0.0,0.0,0.0,0.0,0.0,0.0,0.0,0.0,0.0,-7.4869,-7.4869,-7.4869,-7.4869,-7.4206,-7.2758,-7.4176,-7.3073,-6.9504,-7.0904,-7.0223,-6.7625,-6.7611,-6.7341,-6.6895,0.0,0.0,0.0,-6.4042,-6.2898,-6.112,-6.0556,-6.0402,-6.03,-5.9738,-5.8821,-5.799,0.0,0.0,0.0,0.0,0.0,0.0,0.0,-1.6364,-1.7455,-1.7798,-1.8955,-2.0044,-2.0852,-2.0814,-2.0691,-2.0691,0.0,0.0,0.0,0.0,0.0,0.0,0.0,0.0,0.0,0.0,-2.5059,-2.5586,-2.6716,-2.7002,0.0,0.0,0.0,0.0,0.0,0.0,0.0,0.0,0.0,0.0,0.0,0.0,0.0,0.0,0.0,0.0,0.0,0.0,0.0,0.0,0.0,0.0,0.0,-3.0708,-3.3593,0.0,-4.1366,-4.49,-4.8957,-5.2071,-5.4081,-5.3394,-5.1712,-4.9014,0.0,-4.1814,-3.9461,-3.6184,-3.5519,-3.5519,-3.5519,-3.6035,-3.7135,-3.9086,-4.1586,-4.516,-5.0422,0.0,0.0,0.0,0.0,0.0,0.0,0.0,0.0,0.0,0.0,0.0,0.0,0.0,-7.4869,-7.4869,-7.4869,-7.4869,-7.4869,-7.4869,-7.3545,-7.0848,-7.0907,-6.9533,-6.6931,-6.6917,0.0,0.0,0.0,0.0,0.0,-6.6066,-6.5708,-6.4973,-6.3129,-6.2329,-6.2148,-6.0172,-5.8821,-5.7888,0.0,0.0,0.0,0.0,0.0,0.0,0.0,-1.576,-1.656,-1.7706,-1.8339,-1.9206,-2.0628,-2.0353,-2.0264,-2.0666,0.0,0.0,0.0,0.0,0.0,0.0,0.0,0.0,0.0,-2.3747,-2.5051,-2.5586,-2.6716,-2.74,-2.7592,-2.7228,0.0,0.0,0.0,0.0,0.0,0.0,0.0,0.0,0.0,0.0,0.0,0.0,0.0,0.0,0.0,0.0,0.0,0.0,0.0,0.0,0.0,0.0,0.0,-3.5162,-3.9401,-4.3286,-4.4993,-4.7446,-4.9119,-4.7495,-4.6962,-4.5766,-4.1588,-4.016,-3.8933,-3.6067,-3.5519,-3.5519,-3.5519,-3.6048,-3.777,-4.1513,-4.314,0.0,0.0,0.0,0.0,0.0,0.0,0.0,0.0,0.0,0.0,0.0,0.0,0.0,0.0,0.0,-7.3733,-7.4206,-7.4206,-7.4019,-7.3545,-7.3516,-7.3073,-7.2257,-7.2261,-7.1553,-7.0348,-7.0319,0.0,0.0,0.0,0.0,0.0,-6.7467,-6.658,-6.5024,-6.3115,-6.2389,-6.2174,-6.0172,-5.8821,-5.7888,0.0,0.0,0.0,0.0,0.0,0.0,0.0,-1.5151,-1.5916,-1.7168,-1.7606,-1.8462,-2.0188,-1.9836,-1.9811,-2.0616,0.0,0.0,0.0,0.0,0.0,0.0,0.0,0.0,-2.1794,-2.3577,-2.4983,-2.5912,-2.6841,-2.7666,-2.838,-2.8087,-2.7677,-2.7214,0.0,0.0,0.0,0.0,0.0,0.0,0.0,0.0,-2.7036,0.0,0.0,0.0,0.0,0.0,0.0,0.0,0.0,0.0,0.0,0.0,0.0,0.0,-3.6516,-4.0203,0.0,-4.402,-4.5128,-4.3874,-4.3678,-4.2978,-3.9772,-3.8827,-3.8058,-3.5914,-3.5519,-3.5519,-3.5519,-3.6216,-3.787,-4.0994,-4.289,0.0,0.0,0.0,0.0,0.0,0.0,0.0,0.0,0.0,0.0,0.0,0.0,0.0,0.0,0.0,-7.2999,-7.3156,-7.3373,-7.3343,-7.2872,-7.2872,-7.2745,-7.2529,-7.2505,-7.2159,-7.1538,0.0,0.0,0.0,0.0,0.0,0.0,-6.9193,-6.8454,-6.7107,-6.449,-6.3456,-6.3129,-6.0453,-5.8821,-5.7888,0.0,0.0,0.0,0.0,0.0,0.0,0.0,0.0,0.0,-1.6313,-1.6741,-1.7677,-1.9433,-1.9208,-1.9384,-2.049,0.0,0.0,0.0,0.0,0.0,0.0,0.0,0.0,-2.2246,-2.3427,-2.4858,-2.6499,-2.7077,-2.7921,-2.9038,-2.8969,-2.8853,-2.8573,-2.7289,-2.71,0.0,0.0,0.0,0.0,0.0,-2.6499,0.0,0.0,0.0,0.0,0.0,0.0,0.0,0.0,0.0,0.0,0.0,0.0,0.0,0.0,0.0,0.0,0.0,-4.1414,-4.1956,-4.1931,-4.148,-4.0547,-3.8642,-3.7729,0.0,-3.5756,-3.5519,-3.5579,-3.5756,-3.6726,-3.7836,-3.8921,0.0,0.0,0.0,0.0,0.0,0.0,0.0,0.0,0.0,0.0,0.0,0.0,0.0,0.0,0.0,0.0,0.0,-7.1848,-7.247,-7.2781,-7.2781,-7.2781,-7.247,-7.1848,-7.1848,-7.1508,-7.0889,0.0,0.0,0.0,0.0,0.0,0.0,-7.0889,-7.0889,-7.055,-6.6679,-6.5181,-6.4686,-6.0838,-5.8719,-5.7863,0.0,0.0,0.0,0.0,0.0,0.0,0.0,0.0,0.0,0.0,-1.6154,-1.647,-1.7831,-1.8229,-1.8681,0.0,0.0,0.0,0.0,0.0,0.0,0.0,0.0,0.0,-2.1669,-2.3627,-2.5234,-2.6499,-2.7444,-2.8712,-3.0173,-2.9757,-2.9655,-2.9759,-2.9028,-2.8333,0.0,0.0,0.0,0.0,-2.6499,-2.6499,0.0,0.0,0.0,0.0,-2.6951,-2.7575,0.0,0.0,0.0,0.0,0.0,0.0,0.0,0.0,-3.2647,-3.3638,-3.5591,0.0,-3.7747,-3.7251,-3.7382,-3.74,0.0,-3.6462,-3.6503,-3.5699,-3.5519,-3.6108,-3.8091,-3.8329,-3.9875,0.0,0.0,0.0,0.0,0.0,0.0,0.0,0.0,0.0,0.0,0.0,0.0,0.0,0.0,0.0,0.0,0.0,0.0,-7.1103,-7.1258,-7.1383,-7.1383,-7.1383,-7.1258,-7.1103,-7.1103,-7.1044,-7.0889,-7.0889,0.0,0.0,0.0,0.0,-7.0889,-7.0889,-7.0889,-7.055,-6.6679,-6.4972,-6.4114,-6.03,-5.8186,-5.7232,0.0,0.0,0.0,0.0,0.0,0.0,0.0,0.0,0.0,0.0,0.0,0.0,0.0,0.0,0.0,0.0,0.0,0.0,0.0,0.0,0.0,0.0,0.0,-2.1493,-2.1493,-2.3427,-2.5109,-2.6499,-2.7354,-2.8587,-3.0227,-2.993,-2.982,-2.9785,-2.8998,-2.8291,0.0,0.0,0.0,0.0,-2.6499,0.0,0.0,0.0,0.0,0.0,-2.6816,-2.7653,0.0,-3.0036,-3.1068,-3.1843,0.0,0.0,0.0,0.0,-3.2284,-3.273,-3.3758,-3.5453,-3.6907,-3.6847,-3.7105,-3.7304,-3.6937,0.0,0.0,0.0,0.0,0.0,0.0,0.0,0.0,0.0,0.0,0.0,0.0,0.0,0.0,0.0,0.0,0.0,0.0,0.0,0.0,0.0,0.0,0.0,0.0,0.0,0.0,0.0,-7.0889,-7.0889,-7.0889,-7.0889,-7.0889,-7.0889,-7.0889,-7.0889,-7.0889,-7.0889,0.0,0.0,0.0,0.0,-7.0889,-7.0271,-6.9684,-6.8915,-6.5643,-6.3734,-6.2329,-5.9414,-5.775,-5.7025,0.0,0.0,0.0,0.0,0.0,0.0,0.0,0.0,0.0,0.0,0.0,0.0,0.0,0.0,0.0,0.0,0.0,0.0,0.0,0.0,0.0,0.0,-2.0997,-2.1652,-2.1972,-2.3392,-2.503,-2.684,-2.7324,-2.8348,-2.9905,-3.0005,-2.9921,-2.9644,-2.8371,-2.7852,0.0,0.0,0.0,0.0,0.0,0.0,0.0,0.0,0.0,0.0,0.0,0.0,0.0,-3.0658,-3.1723,-3.2579,-3.3064,0.0,0.0,0.0,0.0,0.0,-3.3681,-3.5767,-3.7783,-3.8023,-3.8329,-3.8488,-3.8296,0.0,0.0,0.0,0.0,0.0,0.0,0.0,0.0,0.0,0.0,0.0,0.0,0.0,0.0,0.0,0.0,0.0,0.0,0.0,0.0,0.0,0.0,0.0,0.0,0.0,0.0,0.0,-7.0779,-7.0714,-7.0624,-7.0679,-7.0739,-7.0739,-7.0679,-7.0585,-7.0585,-7.062,0.0,0.0,0.0,0.0,-7.0504,-6.9476,-6.8248,-6.6914,-6.4413,-6.2232,-6.0355,-5.8442,-5.7356,-5.6861,0.0,0.0,0.0,0.0,0.0,0.0,0.0,0.0,0.0,0.0,0.0,0.0,0.0,0.0,0.0,0.0,0.0,0.0,0.0,0.0,0.0,-2.1457,-2.1498,-2.2344,-2.4074,-2.4489,-2.5914,-2.8373,-2.8547,-2.9302,-3.0507,-3.0934,-3.1151,-3.1116,-2.924,-2.8551,-2.8681,-2.7133,0.0,0.0,0.0,0.0,0.0,0.0,0.0,0.0,0.0,0.0,0.0,-3.0184,-3.145,-3.242,-3.1949,0.0,0.0,0.0,0.0,0.0,-3.525,-3.7528,-3.8707,-3.7193,-3.8049,-3.8953,-3.7828,0.0,0.0,0.0,0.0,0.0,0.0,0.0,0.0,0.0,0.0,0.0,0.0,0.0,0.0,0.0,0.0,0.0,0.0,0.0,0.0,0.0,0.0,0.0,0.0,0.0,0.0,0.0,0.0,-6.986,-6.9316,-6.9883,-7.0119,-7.0119,-6.9534,-6.9321,-6.9291,-6.9299,-6.9303,0.0,0.0,-6.9228,-6.9269,-6.907,-6.7949,-6.6251,-6.418,-6.2046,-5.9765,-5.7856,-5.6811,-5.6342,0.0,0.0,0.0,0.0,0.0,0.0,0.0,0.0,0.0,0.0,0.0,0.0,0.0,0.0,0.0,0.0,0.0,0.0,0.0,0.0,-2.0553,-2.2272,-2.2533,-2.3341,-2.4845,-2.5517,-2.665,-2.8373,-2.8746,-2.9314,-3.0156,-2.9779,-3.0125,-3.0897,-2.8479,-2.8002,-2.8903,-2.7211,-2.6499,-2.6499,0.0,0.0,0.0,0.0,0.0,0.0,0.0,0.0,0.0,0.0,-3.1386,-3.243,-3.214,0.0,0.0,0.0,0.0,0.0,-3.4269,-3.6539,-3.8292,-3.8121,-4.0068,-4.1986,-4.1722,-4.0576,0.0,0.0,0.0,0.0,0.0,0.0,0.0,0.0,0.0,0.0,0.0,0.0,0.0,0.0,0.0,0.0,0.0,0.0,0.0,0.0,0.0,0.0,0.0,0.0,0.0,0.0,0.0,-6.9286,-6.898,-6.898,-6.9067,-6.9456,-6.915,-6.9,-6.9007,-6.8974,-6.9007,-6.895,0.0,-6.8653,-6.8934,-6.819,-6.6468,-6.4184,-6.293,-6.0577,-5.7754,-5.6861,-5.644,-5.6219,0.0,0.0,0.0,0.0,0.0,0.0,0.0,0.0,0.0,0.0,0.0,0.0,0.0,0.0,0.0,0.0,0.0,0.0,0.0,-1.9763,-2.0784,-2.2935,-2.3716,-2.4717,-2.6008,-2.6633,-2.7486,-2.8664,-2.8962,-2.9428,-2.9955,-2.8976,-2.9243,-3.0479,-2.786,-2.7568,-2.8907,-2.7196,-2.6499,-2.6499,0.0,0.0,0.0,0.0,0.0,0.0,0.0,0.0,0.0,0.0,0.0,0.0,0.0,0.0,0.0,-3.2287,-3.1868,-3.2135,-3.394,-3.5747,-3.7611,-3.9446,-4.1782,-4.3957,-4.5226,-4.3748,0.0,0.0,0.0,0.0,0.0,0.0,0.0,0.0,0.0,0.0,0.0,0.0,0.0,0.0,0.0,0.0,0.0,0.0,0.0,0.0,0.0,0.0,0.0,0.0,0.0,0.0,0.0,0.0,-6.8525,-6.8016,-6.8076,-6.8764,-6.8615,-6.8498,-6.8565,-6.8528,-6.8498,-6.8535,-6.7959,-6.8081,-6.8413,-6.742,-6.5192,-6.2361,-6.2252,-6.0049,-5.6738,-5.6342,-5.6219,-5.6219,0.0,0.0,0.0,0.0,0.0,0.0,0.0,0.0,0.0,0.0,0.0,0.0,0.0,0.0,0.0,0.0,0.0,0.0,0.0,-1.962,-2.1086,-2.3529,-2.487,-2.6576,-2.8761,-2.8029,-2.846,-3.0224,-2.9884,-3.0005,-3.0532,-2.9955,-3.0021,-3.0507,-2.8249,-2.7888,-2.8907,-2.7196,-2.6499,-2.6499,-2.6499,0.0,0.0,0.0,0.0,0.0,0.0,0.0,0.0,0.0,0.0,0.0,0.0,0.0,-3.3479,-3.3397,-3.2946,-3.3088,-3.6259,-3.6867,-3.7323,-4.0466,-4.1428,-4.244,-4.5544,-4.5125,0.0,-4.8161,0.0,0.0,0.0,0.0,0.0,0.0,0.0,0.0,0.0,0.0,0.0,0.0,0.0,0.0,0.0,0.0,0.0,0.0,0.0,0.0,0.0,0.0,0.0,0.0,0.0,0.0,-6.7148,-6.7089,-6.7388,-6.8046,-6.7418,-6.7119,-6.7119,-6.7119,-6.7119,-6.7119,-6.7059,-6.7089,-6.7119,-6.7029,-6.4921,-6.1824,-6.3484,-6.1914,-5.85,-5.6836,-5.6219,-5.6219,0.0,0.0,0.0,0.0,0.0,0.0,0.0,0.0,0.0,0.0,0.0,0.0,0.0,0.0,0.0,0.0,0.0,0.0,0.0,-1.9229,-2.0667,-2.358,-2.4141,-2.5301,-2.7262,-2.837,-2.9308,-3.0023,-2.9517,-2.9553,-3.008,-2.9343,-2.9284,-2.9816,-2.8218,-2.7786,-2.8112,-2.6992,-2.6499,-2.6499,-2.6499,-2.6083,0.0,0.0,0.0,0.0,0.0,0.0,0.0,0.0,-2.9669,-3.0601,-3.11,-3.2288,-3.3425,-3.2976,-3.2677,-3.2945,-3.5033,-3.6627,-3.8282,-4.0775,-4.2316,0.0,0.0,-4.8087,-4.9434,-5.2336,-5.2636,0.0,0.0,0.0,0.0,0.0,0.0,0.0,0.0,0.0,0.0,0.0,0.0,0.0,0.0,0.0,0.0,0.0,0.0,0.0,0.0,0.0,0.0,0.0,0.0,0.0,0.0,-6.6999,-6.7119,-6.7358,-6.7119,-6.6999,-6.6999,-6.6999,-6.6999,-6.6999,-6.6999,-6.6999,-6.6999,-6.6999,-6.5522,-6.312,-6.1554,-6.01,-5.865,-5.6861,-5.6219,-5.6219,0.0,0.0,0.0,0.0,0.0,0.0,0.0,0.0,0.0,0.0,0.0,0.0,0.0,0.0,0.0,0.0,0.0,0.0,-1.8431,-1.8838,-2.0258,-2.2998,-2.3458,-2.434,-2.585,-2.783,-2.8807,-2.875,-2.8699,-2.8875,-2.9265,-2.8967,-2.9194,-2.9816,-2.8852,-2.8561,-2.8719,-2.7714,-2.7276,-2.7276,-2.6976,-2.6772,0.0,0.0,0.0,0.0,0.0,0.0,0.0,0.0,-2.9155,-2.9999,-3.0626,-3.1781,-3.2856,-3.2826,-3.3095,-3.3601,-3.4386,-3.645,-3.8799,-4.0431,0.0,0.0,-4.8506,-5.0421,-5.2456,-5.5748,-5.5718,0.0,0.0,0.0,0.0,0.0,0.0,0.0,0.0,0.0,0.0,0.0,0.0,0.0,0.0,0.0,0.0,0.0,0.0,0.0,0.0,0.0,0.0,0.0,0.0,0.0,-6.6365,-6.6365,-6.6365,-6.6365,-6.6365,-6.6576,-6.6999,-6.6999,-6.6999,-6.6999,-6.6999,-6.6999,-6.6969,-6.6395,-6.5071,-6.3097,-5.9484,-5.841,-5.865,-5.6861,-5.6219,-5.6219,0.0,0.0,0.0,0.0,0.0,0.0,0.0,0.0,0.0,0.0,0.0,0.0,0.0,0.0,0.0,0.0,0.0,0.0,-1.7373,-1.8462,-1.994,-2.1796,-2.3013,-2.4163,-2.5135,-2.6279,-2.6733,-2.6499,-2.7544,-2.8097,-2.8133,-2.9064,-2.9947,-3.077,-3.0228,-3.0446,-3.1083,-2.959,-2.8966,-2.8905,-2.8031,-2.7911,-2.811,0.0,0.0,0.0,0.0,0.0,0.0,0.0,-2.8591,-2.8965,-3.0878,-3.1511,-3.1779,-3.3096,-3.4448,-3.538,-3.4825,-3.6482,-3.8585,0.0,0.0,0.0,-5.0361,-5.1768,-5.3563,-5.8171,0.0,-5.7543,-5.886,0.0,0.0,0.0,0.0,0.0,0.0,0.0,0.0,0.0,0.0,0.0,0.0,0.0,0.0,0.0,0.0,0.0,0.0,0.0,0.0,0.0,0.0,0.0,-6.5042,-6.4981,-6.5042,-6.5012,-6.5012,-6.5672,-6.6969,-6.6969,-6.6969,-6.6969,-6.6999,-6.6999,-6.6848,-6.504,-6.3214,-6.1282,-5.7634,-5.7329,-5.865,-5.6861,-5.6219,-5.6219,0.0,0.0,0.0,0.0,0.0,0.0,0.0,0.0,0.0,0.0,0.0,0.0,0.0,0.0,0.0,0.0,0.0,0.0,-1.7373,-1.8057,-1.9101,-2.0516,-2.1183,-2.1887,-2.2644,-2.3683,-2.5166,-2.7077,-2.7002,-2.7468,-2.8369,-2.8966,-2.9197,-2.9234,-3.0331,-2.9808,-2.8063,-2.8204,-2.7943,-2.7346,-2.7098,-2.7433,-2.7975,0.0,0.0,0.0,0.0,0.0,0.0,0.0,0.0,0.0,-2.982,-3.1723,-3.338,-3.2214,-3.3433,-3.4853,-3.3593,-3.563,0.0,0.0,0.0,0.0,0.0,-5.4521,0.0,0.0,0.0,0.0,0.0,0.0,0.0,0.0,0.0,0.0,0.0,0.0,0.0,0.0,0.0,0.0,0.0,0.0,0.0,0.0,0.0,0.0,0.0,0.0,0.0,0.0,0.0,0.0,-6.5042,-6.4981,-6.5022,-6.5019,-6.5019,-6.5203,-6.5613,-6.5613,-6.5613,-6.5642,-6.6094,-6.6274,-6.6209,-6.4876,-6.3251,-6.1349,-5.8997,-5.8407,-5.865,-5.6861,-5.6219,-5.6219,0.0,0.0,0.0,0.0,0.0,0.0,0.0,0.0,0.0,0.0,-1.6689,-1.6816,0.0,0.0,0.0,0.0,0.0,0.0,0.0,-1.7738,-1.8607,-1.9598,-1.9853,-2.0548,-2.1843,-2.2445,-2.3697,-2.5636,-2.5762,-2.624,-2.7082,-2.8329,-2.8945,-2.8992,-3.1054,-3.0651,-2.8489,-2.9115,-2.8761,-2.7701,-2.7367,-2.7925,-2.8757,0.0,0.0,0.0,0.0,0.0,0.0,0.0,0.0,0.0,-2.9381,0.0,-3.1683,-3.1478,-3.2877,-3.4389,-3.4034,0.0,0.0,0.0,0.0,0.0,0.0,0.0,0.0,0.0,0.0,0.0,0.0,0.0,0.0,0.0,0.0,0.0,0.0,0.0,0.0,0.0,0.0,0.0,0.0,0.0,0.0,0.0,0.0,0.0,0.0,0.0,0.0,0.0,0.0,0.0,-6.4248,-6.4248,-6.4218,-6.4289,-6.4289,-6.4272,-6.4278,-6.4785,-6.4994,-6.5024,-6.544,-6.4796,-6.3481,-6.2844,-6.1093,-5.8673,-5.759,-5.7174,-5.7065,-5.5933,-5.5694,-5.5849,0.0,0.0,-1.5708,-1.5702,0.0,0.0,0.0,0.0,0.0,-1.6586,-1.7021,-1.7374,0.0,0.0,0.0,-1.7374,0.0,0.0,0.0,-1.7537,-1.8378,-1.8975,-1.915,-2.0192,-2.2246,-2.2322,-2.2518,-2.302,-2.4098,-2.4746,-2.5014,-2.7478,-2.8955,-2.9643,-3.1898,-3.2101,-3.0721,-3.0953,-3.0218,-2.8851,-2.8076,-2.8675,-2.9797,-2.7797,0.0,0.0,0.0,0.0,0.0,0.0,0.0,0.0,-2.9214,-2.8621,-2.8226,-3.0718,-3.2451,-3.3858,0.0,0.0,0.0,0.0,0.0,0.0,0.0,0.0,0.0,0.0,0.0,0.0,0.0,0.0,0.0,0.0,0.0,0.0,0.0,0.0,0.0,0.0,0.0,0.0,0.0,0.0,0.0,0.0,0.0,0.0,0.0,0.0,0.0,0.0,0.0,0.0,-6.3079,-6.3079,-6.3079,0.0,-6.3079,-6.3079,-6.3166,-6.4319,-6.4883,-6.4943,-6.4904,-6.2997,-5.98,-5.9766,-5.7724,-5.4577,-5.4606,-5.4594,-5.4607,-5.4632,-5.492,-5.5331,0.0,0.0,-1.5713,-1.5693,0.0,0.0,0.0,0.0,-1.7126,-1.7126,-1.7598,-1.7913,-1.7913,-1.7913,0.0,-1.7913,-1.7913,0.0,0.0,-1.7733,-1.8171,-1.8387,-2.0042,-2.138,-2.2297,-2.2322,-2.2372,-2.2468,-2.3145,-2.4378,-2.614,-2.7461,-2.8678,-2.981,-3.0995,-3.012,-2.7795,-2.77,-2.7043,-2.6077,-2.601,-2.6726,-2.7831,-2.7399,-2.7905,0.0,0.0,0.0,0.0,0.0,0.0,0.0,-2.785,-2.8567,-2.9426,-2.8777,-3.0833,-3.3235,0.0,0.0,0.0,0.0,0.0,0.0,0.0,0.0,0.0,0.0,0.0,0.0,0.0,0.0,0.0,0.0,0.0,0.0,0.0,0.0,0.0,0.0,0.0,0.0,0.0,0.0,0.0,0.0,0.0,0.0,0.0,0.0,0.0,0.0,0.0,-6.3196,-6.3079,-6.3079,-6.3079,0.0,-6.3079,-6.3079,-6.3079,-6.3344,-6.3757,-6.4201,-6.4208,-6.2553,-5.983,-5.9833,-5.7764,-5.4625,-5.4619,-5.4562,-5.4572,-5.4582,-5.4687,-5.477,0.0,0.0,0.0,0.0,0.0,0.0,0.0,0.0,-1.6921,-1.6921,-1.7619,-1.8092,-1.8092,-1.8327,0.0,0.0,-1.8249,-1.7854,0.0,0.0,-1.7861,-1.8177,-2.0062,-2.1382,-2.1964,-2.1964,-2.2286,-2.2904,-2.2827,-2.3768,-2.5724,-2.7013,-2.823,-2.9399,-3.0065,-2.9017,-2.6808,-2.6609,-2.5883,-2.4768,-2.4851,-2.5622,-2.671,-2.6414,-2.7037,-2.8094,-2.7735,0.0,0.0,0.0,0.0,0.0,0.0,0.0,-2.7748,-2.7967,-2.9317,-3.1203,0.0,0.0,0.0,0.0,0.0,0.0,0.0,0.0,0.0,0.0,0.0,0.0,0.0,0.0,0.0,0.0,0.0,0.0,0.0,0.0,0.0,0.0,0.0,0.0,0.0,0.0,0.0,0.0,0.0,0.0,0.0,0.0,0.0,0.0,-6.3079,-6.3079,-6.3079,-6.3079,-6.3079,-6.3079,-6.3079,-6.3079,-6.3079,-6.3079,-6.3284,-6.3522,-6.2676,-6.1039,-5.8871,-5.8073,-5.6175,-5.3815,-5.381,-5.3772,-5.3772,-5.3803,-5.3928,-5.4194,0.0,0.0,0.0,0.0,0.0,0.0,0.0,0.0,0.0,-1.6774,-1.7693,-1.8366,-1.8366,-1.8779,-1.9006,0.0,0.0,0.0,-1.7353,0.0,0.0,-1.8328,-1.9686,-2.0781,-2.1563,-2.1378,-2.2029,-2.3563,-2.2697,-2.3399,-2.5575,-2.6659,-2.7843,-2.9137,-2.9246,-2.8276,-2.6506,-2.6111,-2.5128,-2.383,-2.3972,-2.4715,-2.5714,-2.5383,-2.6095,-2.7255,-2.7255,-2.7764,-2.8581,-2.9442,0.0,0.0,0.0,0.0,-2.5401,-2.7241,-2.7873,-2.89,0.0,0.0,0.0,0.0,0.0,0.0,0.0,0.0,0.0,0.0,0.0,0.0,0.0,0.0,0.0,0.0,0.0,0.0,0.0,0.0,0.0,0.0,0.0,0.0,0.0,0.0,0.0,0.0,0.0,0.0,0.0,0.0,-6.3079,-6.3079,-6.3079,-6.3079,-6.3079,-6.3079,-6.3079,-6.3079,-6.3079,-6.3079,-6.3079,-6.3079,-6.3079,-6.3021,-6.1585,-5.981,-5.7914,-5.6482,-5.4692,-5.2929,-5.2929,-5.2929,-5.2929,-5.2929,-5.3193,-5.3551,0.0,0.0,0.0,0.0,0.0,0.0,0.0,0.0,0.0,0.0,-1.8817,-1.9479,-1.9479,-1.9533,-1.9406,-1.8949,-1.8836,-1.8366,0.0,0.0,0.0,-1.8832,-1.9108,-1.994,-2.1485,-2.0542,-2.1151,-2.3432,-2.2218,-2.4021,-2.8586,-2.724,-2.7854,-2.998,-2.9005,-2.7564,-2.5834,-2.4419,-2.3095,-2.2009,-2.2682,-2.3319,-2.4052,-2.513,-2.5688,-2.5884,-2.5884,-2.6662,-2.762,-2.6863,-2.724,0.0,0.0,0.0,0.0,0.0,-2.6282,-2.7745,0.0,0.0,0.0,0.0,0.0,0.0,0.0,0.0,0.0,0.0,0.0,0.0,0.0,0.0,0.0,0.0,0.0,0.0,0.0,0.0,0.0,0.0,0.0,0.0,0.0,0.0,0.0,0.0,0.0,0.0,0.0,-6.3079,-6.3079,-6.3079,-6.3079,-6.3079,-6.3079,-6.3079,-6.3079,-6.3079,-6.3079,-6.3079,-6.3079,-6.3079,-6.3079,-6.3079,-6.2875,-6.0959,-5.8005,-5.776,-5.5748,-5.2929,-5.2929,-5.2929,-5.2929,-5.2929,-5.2955,-5.3048,0.0,0.0,0.0,0.0,0.0,0.0,0.0,0.0,0.0,0.0,0.0,-1.9258,-1.9258,-1.9515,-1.9617,-1.9369,-1.8798,0.0,0.0,0.0,0.0,-1.8518,-1.8853,-1.964,-2.1033,-2.0555,-2.1366,-2.3524,-2.1907,-2.3742,-2.8779,-2.7524,-2.867,-3.1738,-2.9997,-2.84,-2.6909,-2.4346,-2.2959,-2.251,-2.2215,-2.4004,-2.6659,-2.5056,-2.6051,-2.8068,-2.583,-2.5914,-2.6961,-2.6454,-2.6803,-2.7154,-2.5524,0.0,0.0,0.0,0.0,0.0,0.0,0.0,0.0,0.0,0.0,0.0,0.0,0.0,0.0,0.0,0.0,0.0,0.0,0.0,0.0,0.0,0.0,0.0,0.0,0.0,0.0,0.0,0.0,0.0,0.0,0.0,0.0,0.0,0.0,0.0,-6.3079,-6.3079,-6.3079,-6.3079,-6.3079,0.0,-6.3079,-6.3079,-6.3079,-6.3079,-6.3079,-6.3079,-6.3079,-6.3079,-6.3079,-6.3049,-6.2078,-6.0256,-5.7941,-5.6956,-5.5141,-5.2929,-5.2929,-5.2929,-5.2929,-5.2929,-5.2929,-5.3048,0.0,0.0,0.0,0.0,0.0,0.0,0.0,0.0,0.0,0.0,0.0,-1.9099,-1.9099,0.0,0.0,0.0,-1.8645,0.0,0.0,0.0,0.0,0.0,-1.8455,-1.9103,-2.0216,-1.997,-2.0783,-2.2708,-2.1265,-2.3256,-2.8475,-2.7824,-2.9704,-3.3596,-3.1386,-2.9478,-2.772,-2.4933,-2.3825,-2.3932,-2.3524,-2.58,-2.9262,-2.7287,-2.8495,-3.0837,-2.7318,-2.6579,-2.72,-2.6521,-2.6491,-2.6532,0.0,0.0,0.0,0.0,0.0,0.0,0.0,0.0,0.0,0.0,0.0,0.0,0.0,0.0,0.0,0.0,0.0,0.0,0.0,0.0,0.0,0.0,0.0,0.0,0.0,0.0,0.0,0.0,0.0,0.0,0.0,0.0,0.0,0.0,0.0,0.0,-6.3079,-6.3079,-6.3079,-6.3079,-6.3079,-6.3079,-6.3079,-6.3079,-6.3079,-6.3079,-6.3079,-6.3079,-6.3079,-6.3079,-6.3079,-6.3049,-6.1697,-5.9963,-5.7941,-5.7085,-5.5181,-5.2904,-5.3351,-5.324,-5.2929,-5.2929,-5.2929,-5.3168,0.0,0.0,0.0,0.0,0.0,0.0,0.0,0.0,0.0,0.0,0.0,-1.9672,-1.9672,-1.969,-1.9497,-1.8987,-1.8424,0.0,0.0,0.0,0.0,0.0,0.0,0.0,-1.8969,-1.8015,-1.8395,-2.0292,-2.0013,-2.2797,-2.841,-2.8165,-3.0683,-3.5282,-3.3068,-3.0306,-2.7243,-2.5988,-2.5563,-2.5893,-2.7503,-2.8734,-2.9988,-3.3504,-3.4296,-3.3129,-3.0843,-2.9651,-2.8812,-2.6595,-2.588,-2.5813,-2.5078,-2.4054,-2.3195,0.0,0.0,0.0,0.0,0.0,0.0,0.0,0.0,0.0,0.0,0.0,0.0,0.0,0.0,0.0,0.0,0.0,0.0,0.0,0.0,0.0,0.0,0.0,0.0,0.0,0.0,0.0,0.0,0.0,0.0,0.0,0.0,0.0,-6.3079,-6.3079,-6.3079,-6.3079,-6.3079,-6.3079,-6.3079,-6.3079,-6.3079,-6.3079,-6.3079,-6.3079,-6.3079,-6.3079,-6.3079,-6.3079,-6.3019,-6.105,-5.8131,-5.9598,-5.7341,-5.3017,-5.4654,-5.4293,-5.2929,-5.2929,-5.2929,-5.3168,0.0,0.0,0.0,0.0,0.0,0.0,0.0,0.0,0.0,0.0,0.0,0.0,0.0,-1.9708,-1.9636,-1.9424,-1.893,0.0,0.0,0.0,0.0,0.0,0.0,0.0,-1.888,-1.8528,-1.8707,-1.9461,-1.8998,-2.1116,-2.5651,-2.6222,-2.7821,-3.0281,-3.126,-3.121,-3.0256,-2.7369,-2.6764,-2.7778,-2.7798,-3.0301,-3.3928,-3.2895,-3.4046,-3.5726,-3.2376,-3.0624,-2.968,-2.8354,-2.7504,-2.6713,-2.5261,-2.4274,-2.3552,-2.2794,-2.3346,0.0,0.0,0.0,0.0,0.0,0.0,0.0,0.0,0.0,0.0,0.0,0.0,0.0,0.0,0.0,0.0,0.0,0.0,0.0,0.0,0.0,0.0,0.0,0.0,0.0,0.0,0.0,0.0,0.0,0.0,0.0,-6.1785,-6.1814,-6.1814,-6.1814,-6.2225,-6.2637,-6.3079,-6.3079,-6.3079,-6.3079,-6.3079,-6.3079,-6.3079,-6.3079,-6.3079,-6.3079,-6.3079,-6.1762,-5.9642,-6.0269,-5.8774,-5.6248,-5.6837,-5.6678,-5.6193,-5.6193,-5.6193,-5.6435,0.0,0.0,0.0,-1.908,0.0,-1.9295,-1.9654,-1.9708,-1.9708,-1.9708,0.0,0.0,0.0,0.0,-1.9636,-1.9442,-1.9099,-1.8684,-1.8131,-1.8269,0.0,0.0,0.0,0.0,-1.8663,-1.8675,-1.8607,-1.8548,-1.8494,-2.0086,-2.3241,-2.4272,-2.5762,-2.7595,-2.8699,-3.0005,-3.1235,-2.8712,-2.8333,-2.9565,-3.0024,-3.2688,-3.6314,-3.5605,-3.6805,-3.8539,-3.533,0.0,0.0,0.0,-2.9527,-2.8048,-2.6434,-2.4908,-2.3496,-2.2598,-2.3376,-2.4782,-2.5887,0.0,0.0,0.0,0.0,0.0,0.0,0.0,0.0,0.0,0.0,0.0,0.0,0.0,0.0,0.0,0.0,0.0,0.0,0.0,0.0,0.0,0.0,0.0,0.0,0.0,0.0,0.0,0.0,0.0,-5.9465,-5.9465,-5.9726,-6.0247,-6.0692,-6.1399,-6.246,-6.2637,-6.2754,-6.2754,-6.3019,-6.3079,-6.3079,-6.3079,-6.3079,-6.3079,-6.3079,-6.2108,-6.0557,-6.1112,-6.0062,-5.8045,-5.8612,-5.8481,-5.7974,-5.8034,-5.7993,-5.826,-1.8703,-1.8912,-1.908,-1.9617,-1.9708,-1.9738,-1.9738,-1.9738,-1.9738,-1.9768,0.0,0.0,0.0,0.0,0.0,-1.9036,-1.8969,-1.8731,-1.8159,-1.8607,0.0,0.0,0.0,0.0,-1.8209,-1.8229,-1.7953,-1.7398,-1.848,-1.981,-2.1443,-2.2518,-2.4775,-2.7871,-2.5737,-2.6615,-2.9679,-2.9654,-3.0165,-3.1235,-3.4362,-3.5857,-3.6783,-4.2103,-4.3079,-4.1383,-3.9764,-3.8023,0.0,-3.3947,0.0,-2.9704,-2.8473,-2.5803,-2.3045,-2.2518,-2.3175,-2.4079,0.0,0.0,0.0,0.0,0.0,0.0,0.0,0.0,0.0,0.0,0.0,0.0,0.0,0.0,0.0,0.0,0.0,0.0,0.0,0.0,0.0,0.0,0.0,0.0,0.0,0.0,0.0,0.0,0.0,-5.6194,-5.6238,-5.6234,-5.6971,-5.8619,-5.8689,-5.9465,-6.1052,-6.1755,-6.2048,-6.2108,-6.2754,-6.3079,-6.3079,-6.3079,-6.3079,-6.3079,-6.3079,-6.2108,-6.0702,-6.2372,-6.1126,-5.831,-5.9908,-5.9601,-5.8173,-5.8168,-5.8119,-5.8379,-1.8836,-1.9221,-1.9515,-1.9672,-2.0109,-2.0438,-2.0438,-2.0438,-2.0587,0.0,0.0,0.0,-2.1395,-2.1695,-2.1613,-2.0987,-2.0929,-2.0302,-1.8782,-1.8814,-1.8664,-1.8112,-1.865,-1.872,-1.8214,-1.8588,-1.8329,-1.7398,-1.8078,-1.8882,-1.971,-2.084,-2.2472,-2.4474,-2.4305,-2.5184,-2.6741,-2.6364,-2.8539,-3.2201,-3.1679,-3.4318,-3.8602,0.0,0.0,0.0,0.0,-3.9601,-3.804,0.0,-3.4926,-3.2215,-2.9101,-2.6389,-2.4299,-2.4148,-2.4908,-2.5644,-2.4808,0.0,0.0,0.0,0.0,0.0,0.0,0.0,0.0,0.0,0.0,0.0,0.0,0.0,0.0,0.0,0.0,0.0,0.0,0.0,0.0,0.0,0.0,0.0,0.0,0.0,0.0,0.0,-5.2828,-5.3717,-5.4889,-5.4917,-5.5899,-5.7887,-5.7974,-5.9013,-6.1048,-6.1261,-6.1595,-6.2078,-6.2313,-6.2637,-6.3079,-6.3079,-6.3079,-6.3079,-6.3079,-6.2814,-6.246,-6.2901,-6.2527,-6.1759,-6.2201,-6.2087,-6.1658,-6.1674,-6.1668,-6.1785,-1.9173,-1.9716,-2.0109,-2.0109,-2.0887,-2.1545,-2.1545,-2.1545,-2.1754,0.0,0.0,0.0,-2.2473,-2.3311,-2.3288,-2.1837,-2.1427,-2.0563,-1.8996,-1.8895,-1.8567,-1.7801,-1.8556,-1.8741,-1.8225,-1.8952,-1.8932,-1.8078,-1.8381,-1.8682,-1.9008,-1.9685,-2.074,-2.2096,-2.2196,-2.3125,-2.4531,-2.3753,-2.6298,-3.0919,-3.1833,0.0,0.0,-3.8616,-3.9923,0.0,0.0,0.0,-3.9848,-3.9521,-3.7262,0.0,-3.0306,-2.8122,-2.6716,-2.5787,-2.644,-2.7243,-2.6138,-2.6967,-2.8172,-2.8485,0.0,0.0,0.0,0.0,0.0,0.0,0.0,0.0,0.0,0.0,0.0,0.0,0.0,0.0,0.0,0.0,0.0,0.0,0.0,0.0,0.0,0.0,0.0,0.0,-5.0689,-5.1151,-5.2311,-5.3005,-5.3964,-5.5245,-5.6587,-5.7932,-5.9245,-6.0176,-6.0886,-6.1257,-6.1836,-6.2313,-6.2667,-6.2931,-6.3079,-6.3079,-6.3079,-6.3079,-6.3079,-6.3079,-6.3079,-6.3079,-6.3079,-6.3079,-6.3079,-6.3079,-6.3079,-6.3079,0.0,-2.0288,-2.0748,-2.0897,-2.1964,-2.2853,-2.3002,-2.2972,-2.3182,0.0,-2.3661,-2.3588,-2.4253,-2.5175,-2.4755,-2.2369,-2.1333,-2.0329,-1.9173,-1.8938,-1.8395,-1.7439,-1.8371,-1.8719,-1.8304,-1.9284,-1.9535,-1.9008,-1.9008,-1.9008,-1.9008,-1.9008,-1.9585,-2.0566,-2.0037,-2.0939,-2.2869,-2.2171,-2.4305,-2.8599,-3.305,-3.5257,0.0,0.0,-4.125,-4.158,-4.2082,-4.1932,-4.1451,-4.1326,-3.8868,0.0,-3.224,-3.0834,-2.9905,-2.7781,-2.8197,-2.9113,-2.8122,-2.8222,-2.9076,-3.0859,-2.9955,0.0,-3.2641,-3.2717,0.0,0.0,0.0,0.0,0.0,0.0,0.0,0.0,0.0,0.0,0.0,0.0,0.0,0.0,0.0,0.0,0.0,0.0,-4.8135,-4.8693,-4.8779,-4.9042,-4.9475,-5.0896,-5.1789,-5.2024,-5.4904,-5.6497,-5.672,-5.8877,-6.0018,-6.0108,-6.1377,-6.2045,-6.2108,-6.2784,-6.3079,-6.3079,-6.3079,-6.3079,-6.3079,-6.3079,-6.3079,-6.3079,-6.3079,-6.3079,-6.3079,-6.3079,-6.3079,-6.3079,-2.0389,-2.0598,-2.1036,-2.2134,-2.2921,-2.3789,-2.4866,-2.4575,-2.4866,-2.6596,-2.7171,-2.781,-2.8712,-2.7818,-2.6551,-2.522,-2.3308,-2.1693,-2.0425,-1.9078,-1.8236,-1.8037,-1.8242,-1.85,-1.8832,-1.9484,-1.9535,-1.9008,-1.9008,-1.9008,-1.9008,-1.9008,-1.9334,-1.9962,-1.9861,-2.0539,-2.192,-2.3502,-2.5904,-2.8863,-3.0331,0.0,-3.8366,-3.9546,-4.1128,-4.266,-4.2785,-4.276,-4.2534,-4.1576,-3.9948,-3.7864,0.0,-3.455,-3.342,-3.1612,-3.1637,-3.2114,-3.1436,-3.1662,-3.1888,-3.0984,0.0,0.0,-3.0231,-3.0758,0.0,0.0,0.0,0.0,0.0,0.0,0.0,0.0,0.0,0.0,0.0,0.0,0.0,0.0,0.0,0.0,0.0,0.0,-4.797,-4.807,-4.8497,-4.8839,-4.8953,-4.9672,-5.0675,-5.1945,-5.3837,-5.5419,-5.668,-5.8419,-5.9531,-6.0078,-6.0935,-6.1567,-6.2108,-6.2784,-6.3079,-6.3079,-6.3079,-6.3079,-6.3079,-6.3079,-6.3079,-6.3079,-6.3079,-6.3079,-6.3079,-6.3079,-6.3079,-6.3079,-2.0628,-2.1246,-2.1994,-2.3002,-2.3674,-2.4623,-2.6344,-2.6012,-2.6385,-2.876,-2.9801,-3.0279,-3.0119,-2.8881,-2.7506,-2.6021,-2.4034,-2.2238,-2.0795,-1.9609,-1.8765,-1.8204,-1.848,-1.8832,-1.9409,-1.966,-1.9811,-1.9836,-1.956,-1.9384,-1.9384,-1.9384,-2.0111,-2.1415,-2.0891,-2.187,-2.4035,-2.4582,-2.6205,-2.8712,-3.1496,0.0,-3.907,-4.04,-4.1781,-4.2986,-4.2986,-4.3162,-4.3087,-4.1178,-4.0325,0.0,-3.7209,-3.6558,-3.6358,0.0,-3.4073,-3.45,-3.337,-3.347,-3.3696,-3.2867,0.0,0.0,0.0,0.0,0.0,0.0,0.0,0.0,0.0,0.0,0.0,0.0,0.0,0.0,0.0,0.0,0.0,0.0,0.0,0.0,0.0,0.0,-4.6484,-4.7075,-4.7865,-4.8358,-4.8358,-4.9343,-5.0064,-5.0406,-5.2707,-5.4484,-5.5535,-5.7125,-5.847,-5.9615,-6.0277,-6.0941,-6.1638,-6.2313,-6.2784,-6.3079,-6.3079,-6.3079,-6.3079,-6.3079,-6.3079,-6.3019,-6.2108,-6.2342,-6.3019,-6.2108,-6.2342,-6.3079,-2.0688,-2.1665,-2.2733,-2.346,-2.4229,-2.5404,-2.7479,-2.7277,-2.7829,-3.0421,-3.182,-3.2111,-3.0922,-2.9903,-2.8784,-2.743,-2.4925,-2.3063,-2.2171,-2.075,-1.9778,-1.9359,-1.9208,-1.9509,-2.0263,-1.9962,-2.0037,-2.0541,-2.0037,-1.9811,-1.9811,-1.9911,-2.1041,-2.292,-2.2272,-2.3734,-2.66,-2.5787,0.0,-2.9754,0.0,-3.6584,-3.8191,-4.0779,-4.2032,-4.2534,-4.2861,-4.3338,-4.3438,-4.0978,-4.0827,-4.1103,-3.799,-3.814,0.0,0.0,0.0,0.0,0.0,0.0,0.0,0.0,0.0,-3.3966,0.0,0.0,0.0,-3.3162,0.0,0.0,0.0,0.0,0.0,0.0,0.0,0.0,0.0,0.0,0.0,0.0,0.0,0.0,0.0,0.0,-4.4358,-4.5689,-4.6436,-4.7025,-4.7554,-4.8932,-4.9336,-4.8686,-5.151,-5.3266,-5.3759,-5.5708,-5.7331,-5.8614,-5.9645,-6.0381,-6.0926,-6.1723,-6.2372,-6.2901,-6.3049,-6.3079,-6.3079,-6.3079,-6.3079,-6.2931,-6.117,-6.1527,-6.2912,-6.1145,-6.1638,-6.3049,-2.0688,-2.1306,-2.2173,-2.34,-2.4649,-2.6147,-2.8188,-2.8409,-2.9155,-3.1421,-3.3298,-3.4104,-3.334,-3.2299,-3.1798,-3.2263,-2.7591,-2.5357,-2.7122,-2.3071,-2.1422,-2.3271,-2.1016,-2.0439,-2.1995,-2.0564,-1.9836,-1.9886,-1.9836,-1.9811,-1.9811,-2.0365,-2.1245,-2.2447,-2.3326,0.0,0.0,0.0,-3.0156,0.0,-3.5655,-3.5529,0.0,-3.8567,-4.0325,-4.1003,-4.2459,-4.3338,-4.3614,0.0,-4.2283,-4.2384,0.0,-4.0124,-4.0548,-3.8316,0.0,0.0,0.0,0.0,0.0,0.0,-3.6483,0.0,0.0,0.0,-3.4324,-3.212,0.0,0.0,0.0,0.0,0.0,0.0,0.0,0.0,0.0,0.0,0.0,0.0,0.0,0.0,0.0,0.0,0.0,-4.3939,-4.3313,-4.3916,-4.6326,-4.7151,-4.7643,-4.8016,-5.0278,-5.1485,-5.1575,-5.4995,-5.679,-5.7016,-5.9099,-6.0169,-6.027,-6.1533,-6.2108,-6.2225,-6.2872,-6.3079,-6.3079,-6.3079,-6.3079,-6.2931,-6.117,-6.1599,-6.2872,-6.1133,-6.1638,-6.2901,-2.0631,-2.1545,-2.2429,-2.2974,-2.3791,-2.5194,-2.7636,-3.0279,-3.2105,-3.2246,-3.3606,-3.4482,-3.4173,-3.2924,-3.218,-3.2293,-2.9332,-2.7435,0.0,-2.485,-2.3714,-2.4417,-2.3025,-2.2573,-2.3276,-2.1644,-2.079,-2.079,-2.0112,-1.9811,-1.9811,-2.0415,-2.1974,-2.4255,-2.5059,0.0,-3.0647,0.0,-3.126,0.0,0.0,0.0,0.0,-3.9622,-4.1731,-4.2032,-4.2735,-4.3539,-4.4016,0.0,-4.2258,0.0,0.0,0.0,0.0,0.0,0.0,0.0,0.0,0.0,0.0,0.0,0.0,0.0,-3.3269,0.0,-3.3155,0.0,0.0,0.0,0.0,0.0,0.0,0.0,0.0,0.0,0.0,0.0,0.0,0.0,0.0,0.0,0.0,0.0,0.0,0.0,0.0,-4.2257,-4.4749,-4.5379,-4.6059,-4.695,-4.8197,-4.9574,-5.1216,-5.3589,-5.5502,-5.6706,-5.8614,-5.9729,-6.0108,-6.0671,-6.135,-6.2108,-6.2372,-6.2754,-6.3079,-6.3079,-6.3079,-6.2931,-6.117,-6.1581,-6.293,-6.1157,-6.0965,-6.1521,-2.0833,-2.175,-2.2443,-2.2444,-2.3334,-2.5003,-2.779,-3.1354,-3.3429,-3.2672,-3.3687,-3.457,-3.4769,-3.3406,-3.2674,-3.3031,-3.0859,-2.9075,0.0,0.0,-2.5925,-2.6453,-2.5186,-2.4657,-2.5109,-2.3025,-2.187,-2.1719,-2.074,-2.0338,-2.0489,-2.0916,-2.2678,-2.5435,-2.665,-2.9252,-3.2817,0.0,0.0,-3.4324,-3.5002,-3.5705,-3.6835,-4.0802,-4.2585,-4.2986,-4.2986,-4.3689,-4.4342,-4.2434,-4.2509,0.0,-4.2133,0.0,0.0,0.0,0.0,0.0,-3.8994,0.0,0.0,0.0,0.0,0.0,0.0,0.0,0.0,0.0,0.0,0.0,0.0,0.0,0.0,-3.219,0.0,0.0,0.0,0.0,0.0,0.0,0.0,0.0,0.0,0.0,0.0,0.0,0.0,0.0,-4.3199,-4.4028,-4.4888,-4.6024,-4.6727,-4.8034,-5.0091,-5.2322,-5.4318,-5.5829,-5.807,-5.9357,-5.9819,-6.0018,-6.0731,-6.1836,-6.2047,-6.249,-6.3079,-6.3079,-6.3079,-6.2931,-6.1697,-6.1974,-6.281,-6.064,-6.009,-6.0354,-2.1463,-2.1679,-2.1729,-2.1729,-2.3841,-2.6494,-2.9401,-3.0886,-3.1937,-3.2593,-3.3735,0.0,0.0,0.0,0.0,0.0,0.0,-3.0184,-3.1734,0.0,-2.7867,-3.0584,-2.736,-2.6314,-2.7946,-2.4725,-2.2794,-2.2268,-2.1719,-2.1719,-2.2221,-2.2246,-2.3175,-2.4926,-2.7609,-3.0066,-3.234,-3.3947,-3.6483,-3.9421,-3.8919,-4.03,-4.2534,0.0,-4.158,-4.2986,-4.2986,0.0,0.0,-4.3313,-4.3664,0.0,0.0,0.0,0.0,0.0,0.0,0.0,0.0,0.0,0.0,-3.5809,0.0,0.0,0.0,0.0,-3.5722,0.0,0.0,0.0,0.0,-3.4223,-3.347,-3.239,-3.2215,0.0,0.0,0.0,0.0,0.0,0.0,0.0,0.0,0.0,0.0,0.0,0.0,0.0,-4.2008,-4.3243,-4.436,-4.5523,-4.656,-4.7161,-4.7237,-5.1402,-5.3511,-5.364,-5.7331,-5.9099,-5.9129,-5.9789,-6.0511,-6.1167,-6.1806,-6.249,-6.3079,-6.3079,-6.3079,-6.3079,-6.3049,-6.3051,-6.27,-5.9335,-5.9131,-6.0033,-2.2591,-2.2471,-2.2056,-2.169,0.0,-2.5185,-2.8303,-3.1109,-3.3001,0.0,0.0,0.0,0.0,-3.6006,-3.5746,0.0,0.0,-3.2444,-3.2922,-3.1197,0.0,-3.3318,-3.1215,-3.008,0.0,-2.7745,-2.5963,-2.5091,-2.3778,-2.3427,-2.3923,-2.317,-2.3954,-2.6021,0.0,-3.0543,0.0,0.0,0.0,0.0,0.0,-4.0852,-4.2911,0.0,0.0,-4.2986,-4.2986,-4.3689,0.0,-4.4192,-4.4317,-4.4618,-4.4644,-4.3865,-4.2936,-4.276,-4.2766,0.0,0.0,0.0,-4.2082,-3.8391,0.0,0.0,0.0,0.0,0.0,0.0,0.0,0.0,0.0,-3.4274,-3.352,-3.239,-3.1913,-3.0959,0.0,0.0,0.0,0.0,0.0,0.0,0.0,0.0,0.0,0.0,0.0,0.0,0.0,-4.1943,-4.3205,-4.4335,-4.5473,-4.6849,-4.8532,-5.104,-5.3225,-5.4985,-5.7301,-5.8698,-5.9099,-5.9357,-5.9771,-6.0456,-6.1157,-6.1838,-6.2475,-6.2927,-6.3079,-6.3079,-6.3079,-6.3079,-6.2784,-6.0499,-5.9294,-5.8533,-2.3504,-2.2964,-2.2346,0.0,0.0,-2.5312,-2.863,0.0,0.0,0.0,-3.5561,0.0,-3.6754,0.0,-3.5357,0.0,-3.3661,-3.2979,-3.2535,-3.2669,0.0,-3.4607,-3.3835,0.0,0.0,-3.0809,-2.8925,-2.7681,-2.6189,-2.5435,0.0,0.0,0.0,0.0,0.0,-3.0859,-3.3746,0.0,-3.7638,0.0,0.0,-4.1706,0.0,0.0,-4.2986,-4.3011,0.0,-4.384,-4.4644,-4.4869,-4.507,-4.5296,-4.5673,-4.4895,-4.3865,-4.3865,-4.3714,-4.3438,-4.2886,-4.3263,0.0,-4.0174,-3.8919,0.0,-3.4921,0.0,0.0,0.0,0.0,0.0,0.0,-3.5228,-3.3947,-3.3219,-3.2139,-3.0758,0.0,0.0,0.0,0.0,0.0,0.0,0.0,0.0,-3.1945,-3.4159,0.0,0.0,0.0,0.0,-4.2687,-4.3751,-4.4928,-4.6644,-4.897,-5.081,-5.2797,-5.5102,-5.7113,-5.8321,-5.8764,-5.8979,-5.9477,-6.0126,-6.0827,-6.1481,-6.2175,-6.2837,-6.3079,-6.3079,-6.3079,-6.3079,-6.2901,-6.1141,-5.9408,-5.7821,-2.4226,0.0,0.0,0.0,-2.4776,0.0,0.0,0.0,-3.3721,0.0,-3.5235,-3.5553,-3.7109,-3.4646,-3.3235,-3.4265,-3.3095,-3.1935,-3.1152,-3.3189,0.0,0.0,-3.5355,-3.5934,-3.6508,0.0,-3.1537,-2.9955,-2.8725,-2.757,0.0,0.0,0.0,0.0,-2.8775,0.0,-3.3287,-3.5981,-3.8793,-4.1426,-4.2534,-4.2986,-4.2986,-4.2986,0.0,-4.3087,-4.3614,-4.4141,-4.4719,-4.5296,-4.5849,-4.6301,-4.6301,-4.5949,-4.5522,-4.5497,-4.5121,-4.4593,-4.4041,-4.389,-4.3413,-4.1254,0.0,0.0,0.0,0.0,-3.8668,0.0,0.0,0.0,0.0,0.0,-3.4801,-3.463,-3.2792,-3.0984,-2.9994,0.0,0.0,0.0,0.0,0.0,0.0,0.0,-2.9832,-3.2,-3.3214,0.0,0.0,0.0,0.0,-4.3664,-4.4844,-4.6488,-4.8535,-5.0628,-5.2434,-5.4018,-5.6763,-5.8077,-5.8128,-5.877,-5.9458,-6.0086,-6.0757,-6.1413,-6.2121,-6.275,-6.3049,-6.3079,-6.3079,-6.3079,-6.2901,-6.1141,-5.942,-5.8005,-2.5288,-2.6056,-2.6901,0.0,-2.7796,-2.8482,0.0,0.0,0.0,0.0,-3.7297,-3.7286,-3.7383,-3.5951,-3.4613,-3.3731,-3.3336,0.0,0.0,0.0,0.0,-3.7746,-3.7925,-3.809,-3.8241,-3.5102,-3.3068,-3.224,0.0,0.0,-2.8273,0.0,0.0,0.0,0.0,0.0,-3.3262,-3.5625,-3.8693,-4.2007,-4.271,-4.2986,0.0,0.0,-4.3237,-4.3614,-4.374,-4.4141,-4.4719,-4.5296,-4.5849,-4.6301,-4.6301,-4.6225,-4.6024,-4.5623,-4.5673,-4.5748,-4.5196,-4.5347,-4.5321,-4.3915,-4.2635,-4.1329,0.0,0.0,0.0,0.0,0.0,0.0,0.0,0.0,0.0,-3.3822,-3.1989,-3.0712,-3.0417,0.0,0.0,0.0,0.0,0.0,0.0,-2.9401,-3.0151,-3.1526,-3.2649,0.0,0.0,0.0,0.0,-4.2574,-4.4073,-4.6315,-4.9524,-5.0491,-5.2544,-5.56,-5.6795,-5.7623,-5.8113,-5.8782,-5.9189,-5.9398,-6.0061,-6.0723,-6.1413,-6.2064,-6.263,-6.3079,-6.3079,-6.3079,-6.2901,-6.1141,-5.9449,-5.816,-2.64,0.0,0.0,-3.106,0.0,0.0,-3.3413,0.0,0.0,-3.809,-3.7618,0.0,-3.7023,-3.5649,-3.4383,-3.3481,-3.3418,0.0,-3.4703,0.0,0.0,-3.9046,-3.9882,-4.0199,-3.9948,-3.7412,0.0,-3.3796,0.0,0.0,-2.8549,0.0,0.0,0.0,0.0,-3.0331,0.0,-3.6358,-3.9371,-4.1882,-4.266,0.0,0.0,-4.3237,-4.3539,-4.3865,-4.4367,-4.4744,-4.5095,-4.5648,-4.605,-4.6301,-4.6301,-4.6301,-4.625,-4.5949,-4.6075,-4.625,-4.5924,-4.6075,-4.615,-4.5522,-4.4669,-4.3614,-4.2258,-4.2208,-4.2007,0.0,0.0,0.0,0.0,0.0,0.0,-3.3144,-3.1913,-3.115,-3.064,0.0,0.0,0.0,0.0,0.0,0.0,-2.9224,-2.9781,-3.0626,-3.197,0.0,0.0,0.0,0.0,-4.1411,-4.3938,-4.6701,-4.9858,-5.11,-5.3045,-5.5791,-5.6689,-5.7318,-5.7678,-5.8662,-5.9099,-5.9129,-5.9787,-6.048,-6.1115,-6.1795,-6.248,-6.3079,-6.3079,-6.3079,-6.3019,-6.1961,-6.1024,-6.0353,-2.7634,0.0,0.0,0.0,0.0,0.0,0.0,-3.6341,0.0,-3.8715,0.0,-3.6191,-3.6529,-3.4718,-3.3535,-3.3594,0.0,-3.416,-3.484,-3.7279,-3.9022,-3.9571,-4.1348,-4.2007,-4.1401,-3.9672,-3.7462,0.0,-3.2918,-3.0633,-2.7996,0.0,0.0,0.0,0.0,0.0,0.0,-3.7663,-4.0325,0.0,-4.2534,-4.3011,-4.3137,-4.3614,-4.389,-4.4141,-4.5121,-4.5497,-4.5573,-4.6125,-4.6301,-4.6301,-4.6301,-4.6301,-4.6301,-4.6301,-4.6301,-4.6301,-4.6301,-4.6301,-4.6301,-4.6301,-4.6301,-4.5924,-4.4468,-4.4141,-4.3815,-4.2766,-4.1731,-4.1379,0.0,0.0,0.0,0.0,0.0,0.0,0.0,0.0,0.0,0.0,0.0,0.0,0.0,-2.9124,-2.934,-2.9772,0.0,0.0,0.0,0.0,0.0,0.0,-4.4167,0.0,-5.0013,0.0,-5.3751,-5.5209,-5.6496,-5.7109,-5.7143,-5.8483,-5.9099,-5.9129,-5.9697,-6.0356,-6.0988,-6.1702,-6.2421,-6.3079,-6.3079,-6.3079,-6.3079,-6.3079,-6.3079,-6.3079,0.0,0.0,0.0,0.0,0.0,-3.5389,-3.6777,-3.8177,-3.9084,-3.8912,-3.8251,-3.7427,-3.6614,-3.4972,-3.4101,-3.4453,-3.577,0.0,0.0,0.0,0.0,-4.1054,-4.2199,-4.2585,-4.2032,-3.9471,-3.7262,0.0,-3.2323,-2.9704,-2.7419,-2.7318,0.0,0.0,0.0,0.0,-3.4525,-3.814,0.0,-4.1376,-4.2534,-4.3263,-4.3664,-4.3765,-4.4392,-4.5221,-4.5422,-4.5497,-4.5573,-4.6125,-4.6301,-4.6301,-4.6301,-4.6301,-4.6301,-4.6301,-4.6301,-4.6301,-4.6301,-4.6301,-4.6301,-4.6301,-4.6301,-4.6225,-4.5924,-4.5874,-4.5547,-4.4418,-4.4041,-4.3288,-4.1304,0.0,0.0,0.0,0.0,0.0,0.0,0.0,0.0,0.0,0.0,0.0,0.0,0.0,0.0,0.0,0.0,0.0,0.0,0.0,0.0,0.0,0.0,0.0,0.0,0.0,0.0,-5.5209,-5.6496,-5.71,-5.7124,-5.8494,-5.9099,-5.9129,-5.9219,-5.9643,-6.0335,-6.0988,-6.2002,-6.3079,-6.3079,-6.3079,-6.3079,-6.3079,-6.3079,-6.3079,0.0,0.0,0.0,0.0,0.0,0.0,0.0,-3.8251,0.0,-3.8159,-3.706,-3.6307,-3.5997,-3.5063,-3.4473,-3.4687,-3.6316,-3.7615,-3.8519,-4.0869,-4.2567,-4.3008,-4.3539,0.0,-4.2665,-3.996,-3.7358,-3.4964,-3.2123,-2.9512,-2.7186,-2.753,-2.7419,-2.7027,0.0,-3.2273,0.0,0.0,0.0,-4.1401,-4.2836,-4.3564,-4.3865,-4.4443,-4.502,-4.5522,-4.5824,-4.5924,-4.5949,-4.6225,-4.6301,-4.6301,-4.6301,-4.6301,-4.6301,-4.6301,-4.6301,-4.6301,-4.6301,-4.6301,-4.6301,-4.6301,-4.6301,-4.6301,-4.6301,-4.6301,-4.598,-4.4824,-4.4636,-4.3851,-4.1395,-3.957,0.0,0.0,0.0,0.0,0.0,0.0,0.0,0.0,0.0,0.0,0.0,0.0,0.0,0.0,0.0,0.0,0.0,0.0,0.0,0.0,0.0,0.0,0.0,0.0,0.0,-5.5209,-5.6482,-5.7077,-5.7161,-5.8489,-5.9099,-5.9099,-5.9099,-5.9518,-6.0181,-6.1224,-6.2181,-6.3079,-6.3079,-6.3079,-6.3079,-6.3079,-6.3079,-6.3079,0.0,-3.4111,0.0,0.0,-3.6541,0.0,-3.6316,-3.7194,-3.7663,-3.7116,-3.5997,-3.5355,-3.5436,-3.5429,-3.5454,-3.5534,-3.7421,-3.9179,-4.0451,-4.2192,-4.3633,-4.4761,-4.4794,-4.4342,-4.3338,-4.0772,-3.8036,0.0,-3.2324,-2.9735,-2.738,-2.7846,-2.8176,-2.8448,0.0,0.0,0.0,0.0,-4.0576,-4.1806,-4.3237,-4.394,-4.4267,-4.5146,-4.5573,-4.5723,-4.615,-4.6301,-4.6301,-4.6301,-4.6301,-4.6301,-4.6301,-4.6301,-4.6301,-4.6301,-4.6301,-4.6301,-4.6301,-4.6301,-4.6301,-4.6301,-4.6301,-4.6301,-4.6301,-4.6215,-4.5824,-4.4801,-4.4426,-4.3637,-4.1699,-4.0589,0.0,0.0,0.0,0.0,0.0,0.0,0.0,0.0,0.0,0.0,0.0,0.0,0.0,0.0,0.0,0.0,0.0,0.0,0.0,0.0,0.0,0.0,-5.0342,0.0,-5.4538,0.0,-5.6362,-5.7004,-5.7119,-5.8316,-5.8985,-5.9099,-5.9099,-5.9488,-6.0206,-6.1399,-6.2271,-6.2901,-6.3049,-6.3079,-6.3079,-6.3079,-6.3079,-6.3079,0.0,0.0,0.0,0.0,0.0,0.0,0.0,-3.4755,-3.5027,-3.6373,-3.6771,-3.6529,-3.5554,-3.6734,-3.7749,-3.8166,-4.1216,-4.3192,-4.3316,-4.4927,-4.5745,-4.5422,-4.5422,-4.5121,-4.4493,-4.1832,-3.9379,0.0,0.0,-3.0214,-2.8275,-2.8042,-2.9294,-3.1863,0.0,0.0,0.0,-3.9672,-4.1354,-4.2886,-4.3539,-4.4418,-4.5347,-4.5447,-4.5799,-4.6225,-4.6301,-4.6301,-4.6301,-4.6301,-4.6301,-4.6301,-4.6301,-4.6301,-4.6301,-4.6301,-4.6301,-4.6301,-4.6301,-4.6301,-4.6301,-4.6301,-4.6301,-4.6301,-4.6301,-4.591,-4.5409,-4.4716,-4.383,-4.2793,-4.1552,-4.1205,-4.0439,0.0,0.0,0.0,0.0,0.0,-3.5362,-3.5216,0.0,0.0,0.0,0.0,0.0,0.0,0.0,0.0,0.0,0.0,0.0,-4.2249,0.0,-4.7348,-5.1078,-5.3139,0.0,-5.5209,-5.5942,-5.6563,-5.7099,-5.7867,-5.8554,-5.9099,-5.9099,-5.9463,-6.0156,-6.0911,-6.1583,-6.2225,-6.2872,-6.3079,-6.3079,-6.3079,-6.3079,-6.3079,0.0,0.0,0.0,0.0,0.0,0.0,0.0,-3.4665,-3.5126,-3.5761,-3.5967,-3.5984,-3.579,-3.731,-3.8408,-3.8576,-4.1734,-4.3731,-4.3731,-4.5342,-4.62,-4.5999,-4.5974,-4.5723,-4.5146,-4.19,-3.9254,0.0,0.0,0.0,0.0,-2.9168,0.0,0.0,0.0,-3.6834,-3.8222,-4.0877,-4.2559,-4.3539,-4.4443,-4.507,-4.5522,-4.5849,-4.6125,-4.6301,-4.6301,-4.6301,-4.612,-4.5074,-4.5403,-4.6301,-4.6301,-4.6301,-4.6301,-4.6301,-4.6301,-4.6301,-4.6301,-4.6301,-4.6301,-4.6301,-4.6301,-4.6301,-4.6301,-4.591,-4.5316,-4.4702,-4.3778,-4.2855,-4.2401,-4.1515,-4.0616,0.0,0.0,0.0,0.0,0.0,0.0,-3.5565,0.0,-3.2127,0.0,0.0,0.0,0.0,0.0,-2.9704,-3.1813,0.0,0.0,-4.0504,0.0,-4.7566,-5.056,-5.2591,-5.4122,-5.5209,-5.5902,-5.6504,-5.7131,-5.7755,-5.847,-5.9099,-5.9099,-5.9453,-6.0156,-6.082,-6.1507,-6.2195,-6.2872,-6.3079,-6.3079,-6.3079,-6.3079,-6.3079,-3.3697,0.0,-3.3614,0.0,-3.4657,-3.4548,-3.4511,-3.5,-3.543,-3.5566,-3.5586,-3.5684,-3.5996,-3.8021,-3.9387,-3.9387,-4.2517,-4.4436,-4.4436,-4.5611,-4.6301,-4.6301,-4.6301,0.0,-4.5723,-4.2028,-3.9386,-3.7947,-3.4049,0.0,0.0,-3.0982,0.0,0.0,-3.5748,-3.7377,-3.8484,-4.146,-4.3054,-4.3622,-4.4969,-4.5573,-4.5773,-4.6175,-4.6301,-4.6301,-4.6301,-4.5999,-4.5342,-4.4103,-4.4189,-4.4767,-4.4767,-4.5159,-4.5525,-4.5525,-4.5914,-4.6301,-4.6301,-4.6301,-4.6301,-4.6301,-4.6301,-4.6301,-4.6301,-4.5714,-4.5067,-4.43,-4.3523,-4.2986,-4.2986,-4.1737,-4.0758,-4.0823,0.0,0.0,0.0,0.0,0.0,0.0,-3.3865,-3.2336,-3.1672,0.0,0.0,0.0,0.0,-3.0388,-3.2215,0.0,0.0,0.0,0.0,0.0,0.0,-5.2472,-5.4082,-5.5209,-5.5681,-5.6325,-5.7142,-5.8015,-5.8614,-5.9099,-5.9099,-5.9357,-5.9874,-6.0741,-6.1353,-6.1902,-6.2754,-6.3079,-6.3079,-6.3079,-6.3079,-6.3049,-3.2777,-3.2773,-3.3109,-3.397,-3.4127,-3.442,-3.5234,-3.5391,-3.5547,-3.5957,-3.6016,-3.6016,-3.6016,-3.9125,-4.1181,-4.1181,-4.4312,-4.624,-4.624,-4.6301,-4.6301,0.0,0.0,-4.6301,-4.6301,-4.2444,-4.0298,-3.9882,0.0,0.0,-3.2468,-3.344,-3.4681,-3.617,-3.7296,-3.8125,-3.8819,-4.1121,-4.2447,-4.3044,-4.4769,-4.5824,-4.6301,-4.6301,-4.6301,-4.6301,-4.6301,-4.522,-4.3731,-4.3731,-4.2643,-4.1245,-4.1245,-4.2391,-4.3731,-4.3731,-4.4951,-4.6301,-4.6301,-4.6301,-4.6301,-4.6301,-4.6301,-4.6301,-4.6301,-4.5409,-4.4294,-4.3225,-4.3042,-4.2986,-4.2986,-4.2028,-4.0943,-3.9913,0.0,0.0,0.0,0.0,0.0,0.0,-3.3419,-3.1614,-3.2154,0.0,0.0,0.0,0.0,0.0,0.0,0.0,0.0,-4.3274,-4.6075,0.0,-5.1152,-5.3149,-5.4538,-5.5179,-5.5209,-5.5902,-5.7142,-5.8444,-5.9099,-5.9099,-5.9099,-5.9099,-5.9243,-6.0566,-6.1091,-6.1258,-6.2607,-6.3079,-6.3079,-6.3079,-6.3079,-6.2872,-3.3184,-3.3457,-3.375,-3.4023,-3.457,-3.5059,-3.5351,-3.5644,-3.5859,-3.5996,-3.6016,-3.6016,-3.6016,-3.9125,-4.1181,0.0,-4.4312,-4.6301,0.0,-4.6301,-4.6301,-4.6301,-4.6301,-4.6301,-4.6301,-4.2818,-4.0751,-4.032,0.0,0.0,0.0,-3.378,-3.4309,-3.4818,-3.6561,-3.7634,-3.8358,-4.1368,-4.2933,-4.3617,-4.5338,-4.615,-4.6301,-4.6301,-4.6301,-4.612,-4.4951,-4.4165,-4.3333,-4.103,-3.9888,-3.9256,-3.8021,-4.045,-4.3731,-4.3731,-4.4951,-4.6301,-4.6301,-4.6301,-4.6301,-4.6301,-4.6301,-4.6301,-4.6301,-4.5422,-4.4301,-4.3218,-4.2986,-4.2986,-4.2986,-4.2099,-4.1162,-4.0835,-4.0167,0.0,0.0,0.0,0.0,0.0,-3.5084,-3.4123,0.0,-3.3926,0.0,0.0,0.0,0.0,0.0,0.0,0.0,0.0,-4.7139,0.0,-5.1204,-5.3178,-5.4515,-5.5179,-5.5179,-5.5884,-5.7136,-5.8483,-5.9099,-5.9099,-5.9099,-5.9099,-5.9219,-6.0522,-6.1072,-6.1228,-6.2607,-6.3079,-6.3079,-6.3079,-6.3079,-6.2872,-3.3633,-3.3887,-3.418,-3.4512,-3.5019,-3.5449,-3.5605,-3.5859,-3.6016,-3.6016,-3.6016,-3.6016,-3.6016,-3.8531,0.0,-4.1117,-4.3731,-4.5586,-4.624,-4.6301,-4.6301,-4.6301,-4.6301,-4.6301,-4.6301,0.0,0.0,-4.0774,-3.6873,-3.4766,-3.4394,-3.4512,-3.4648,-3.489,-3.6093,-3.6881,-3.739,-4.0837,-4.2467,-4.2958,-4.5342,-4.6301,-4.6301,-4.6301,-4.5914,-4.5196,-4.4103,-4.2895,-4.1478,-3.93,-3.8154,-3.7575,-3.7126,-3.9627,-4.2769,-4.2769,-4.4436,-4.6301,-4.6301,-4.6301,-4.6301,-4.6301,-4.6301,-4.624,-4.602,-4.5279,-4.4351,-4.3518,-4.3148,-4.2986,-4.2986,-4.2067,-4.1285,-4.1273,-4.0406,-3.9523,-3.8994,0.0,0.0,0.0,0.0,0.0,0.0,-3.5709,0.0,0.0,0.0,0.0,0.0,0.0,0.0,-4.4514,-4.8725,0.0,-5.1945,-5.3699,-5.4775,-5.5209,-5.5681,-5.6332,-5.7158,-5.847,-5.9099,-5.9099,-5.9099,-5.9099,-5.9219,-6.0257,-6.0894,-6.1228,-6.2279,-6.2897,-6.3079,-6.3079,-6.2667,-6.1902,-3.3984,-3.4121,0.0,0.0,-3.541,0.0,-3.5957,-3.6016,-3.6016,-3.6016,-3.6016,-3.6016,-3.6016,-3.7441,-3.9125,-4.0904,0.0,0.0,0.0,-4.624,-4.6301,-4.6301,-4.6351,-4.6351,-4.6301,-4.4607,-4.2879,-4.0988,-3.7299,-3.5644,-3.6016,-3.5625,-3.5644,-3.6016,-3.6152,-3.6152,-3.6403,-3.9888,-4.1373,-4.1693,-4.4951,-4.6301,-4.6301,-4.618,-4.5074,-4.3669,-4.3396,-4.1287,-3.8597,-3.8486,-3.7441,-3.6471,-3.8088,-3.9888,-4.1373,-4.1373,-4.3669,-4.6301,-4.6301,-4.6301,-4.6301,-4.6301,-4.6301,-4.619,-4.564,-4.506,-4.4475,-4.3908,-4.3417,-4.3042,-4.2961,-4.2036,-4.1285,-4.1235,-4.0311,-3.9473,-3.8915,0.0,0.0,0.0,0.0,0.0,0.0,-3.6689,-3.7883,0.0,0.0,0.0,0.0,0.0,-4.3944,-4.7467,-5.0591,-5.2558,-5.326,-5.4559,-5.5179,-5.5209,-5.6516,-5.7092,-5.7158,-5.847,-5.9099,-5.9099,-5.9099,-5.9099,-5.9129,-5.9789,-6.045,-6.1079,-6.1855,-6.2448,-6.2874,-6.2901,-6.1814,-6.0061,0.0,0.0,-3.5156,-3.5351,-3.5664,-3.5898,-3.5996,-3.6016,-3.6016,-3.6016,-3.6016,-3.6016,-3.6016,-3.6336,-3.7449,-3.9481,-4.2153,-4.3855,-4.4312,-4.5525,-4.6301,-4.6301,-4.6702,-4.6753,-4.6326,-4.5033,-4.2655,-3.9256,-3.6958,-3.5918,-3.6016,-3.5918,-3.5918,-3.6084,-3.7374,-3.7955,-3.8221,-4.167,-4.3083,-4.3294,-4.5464,-4.6301,-4.618,-4.4829,-4.4041,-4.3333,-4.0708,-3.93,-3.842,-3.7059,-3.726,-3.8088,-3.8486,-4.0644,-4.3083,-4.3083,-4.462,-4.6301,-4.6301,-4.6301,-4.6301,-4.6301,-4.6301,-4.6175,-4.5623,-4.5372,-4.5011,-4.4041,-4.3711,-4.3361,-4.2563,-4.1792,-4.1185,-4.0769,-3.9774,-3.8865,-3.8315,-3.799,0.0,0.0,-3.7742,-3.7916,-3.7469,-3.8416,-3.9468,0.0,0.0,0.0,0.0,-4.6528,-4.7649,-4.9463,-5.1272,-5.2752,-5.3973,-5.477,-5.5179,-5.5209,-5.6516,-5.7092,-5.7158,-5.847,-5.9099,-5.9099,-5.9099,-5.9099,-5.9129,-5.9789,-6.018,-6.0436,-6.1639,-6.1404,-6.0442,-6.0939,-6.0061,-5.835,-3.459,-3.5059,-3.5449,-3.5644,-3.5859,-3.6016,-3.6016,-3.6016,-3.6016,-3.6016,-3.6016,-3.6016,-3.6016,-3.6191,-3.6798,-3.7955,-4.0278,-4.2422,-4.4294,-4.5285,-4.6143,-4.6993,-4.733,-4.7355,-4.7054,-4.6414,-4.426,-4.0407,-3.7644,-3.6309,-3.6309,-3.6113,-3.6403,-3.726,-3.8154,-3.9059,-3.9953,-4.258,-4.3731,-4.3855,-4.5611,-4.6301,-4.6145,-4.4577,-4.3498,-4.2504,-4.0077,-3.8709,-3.7847,-3.6927,-3.7779,-3.9428,-4.0208,-4.2286,-4.4634,-4.541,-4.592,-4.6301,-4.6301,-4.6301,-4.6301,-4.6301,-4.6301,-4.6225,-4.5933,-4.5682,-4.5296,-4.4727,-4.415,-4.363,-4.3042,-4.2053,-4.1157,-4.059,-3.9799,-3.8966,-3.8091,-3.8266,0.0,-3.8358,-3.8894,-3.9318,-3.95,-4.0645,-4.1799,-4.2739,0.0,0.0,-4.7568,-4.9192,-5.0249,-5.0651,-5.193,-5.3138,-5.4179,-5.4848,-5.5319,-5.5681,-5.6658,-5.7286,-5.7587,-5.8614,-5.9099,-5.9099,-5.9099,-5.9099,-5.9129,-5.9501,-5.9789,-6.0144,-6.0371,-6.0063,-5.951,-5.9379,-5.8282,-5.6705,-3.5234,-3.5449,-3.5605,-3.5957,-3.6016,-3.6016,-3.6016,-3.6016,-3.6016,-3.6016,-3.6016,-3.6016,-3.6016,-3.6406,-3.6699,-3.6758,-3.8138,-4.055,-4.4128,-4.463,-4.5469,-4.6981,-4.7143,-4.7143,-4.7044,-4.6855,-4.5188,-4.2171,-3.8534,-3.6758,-3.6758,-3.6642,-3.7395,-3.8874,-3.9382,-4.0432,-4.1919,-4.3632,-4.4343,-4.4467,-4.5955,-4.6552,-4.6334,-4.472,-4.318,-4.1727,-4.0087,-3.8714,-3.7707,-3.7707,-3.9109,-4.1185,-4.2571,-4.4282,-4.6069,-4.7508,-4.7255,-4.6552,-4.6502,-4.6502,-4.6416,-4.6351,-4.6301,-4.6301,-4.6301,-4.5949,-4.5614,-4.5505,-4.4686,-4.3846,-4.3706,-4.2373,-4.1077,-4.0464,-3.993,-3.9222,-3.8166,0.0,-3.9171,-3.9671,-3.9829,-4.0275,-4.1241,-4.2396,-4.3724,-4.5321,-4.7036,-4.8453,0.0,-5.1266,-5.1991,-5.1528,-5.2714,-5.366,-5.4348,-5.4929,-5.554,-5.6184,-5.6828,-5.7453,-5.81,-5.8811,-5.9099,-5.9099,-5.9099,-5.9099,-5.9099,-5.8841,-5.9056,-5.9458,-5.8435,-5.8234,-5.8494,-5.7729,-5.6421,-5.5012,-3.5293,-3.5684,-3.5937,-3.6016,-3.6016,-3.6016,-3.6016,-3.6016,-3.6016,-3.6016,-3.6016,-3.6016,-3.6016,-3.6406,-3.6816,-3.7168,-3.7732,-3.8829,-4.0597,-4.2015,-4.2946,-4.3276,-4.3752,-4.3798,-4.3276,-4.1882,-4.0893,-4.0303,-3.8236,-3.7207,-3.7258,-3.8738,-3.9636,-3.9977,-4.2983,-4.4501,-4.4846,-4.6546,-4.7259,-4.7259,-4.7533,-4.7657,-4.7284,-4.4077,-4.2724,-4.206,-3.8881,-3.8575,-3.966,-3.966,-4.1837,-4.4607,-4.4866,-4.6133,-4.7571,-4.7845,-4.7782,-4.7631,-4.7641,-4.7344,-4.6835,-4.6441,-4.6301,-4.6301,-4.6301,-4.625,-4.603,-4.5579,-4.4942,-4.4209,-4.3313,-4.2127,-4.0992,-3.9998,-3.9365,-3.88,-3.8084,0.0,-3.9598,-3.97,-4.0495,-4.111,-4.1259,-4.1501,-4.2885,-4.5926,-4.644,-4.7858,-5.0743,-5.1733,-5.2412,-5.2845,-5.3655,-5.4348,-5.5039,-5.5149,-5.554,-5.6214,-5.6802,-5.7458,-5.81,-5.8811,-5.9099,-5.9099,-5.9099,-5.9099,-5.8985,-5.767,-5.7125,-5.7136,-5.6183,-5.5279,-5.4556,-5.496,-5.4332,-5.3282,-3.5605,-3.5879,-3.6016,-3.6016,-3.6016,-3.6016,-3.6016,-3.6016,-3.6016,-3.6016,-3.6016,-3.6113,-3.6348,-3.6758,-3.7187,-3.7598,-3.8027,-3.8544,-3.9161,-4.0835,-4.2264,-4.3286,-4.3577,-4.36,-4.3354,-4.1598,-4.0626,-4.0626,-3.9651,-3.9129,-3.9199,-4.0818,-4.2037,-4.3035,-4.4672,-4.5917,-4.6792,-4.7571,-4.7908,-4.7908,-4.7908,-4.7908,-4.7533,-4.4256,-4.2973,-4.2525,-3.9202,-3.8541,-3.9424,-4.0438,-4.2538,-4.4897,-4.5823,-4.7393,-4.8812,-4.8812,-4.8385,-4.7883,-4.7906,-4.7695,-4.7395,-4.6867,-4.6753,-4.6677,-4.6376,-4.6301,-4.6215,-4.5995,-4.5494,-4.4824,-4.4035,-4.2961,-4.1968,-4.1154,-4.0314,0.0,0.0,-3.9952,-4.0381,-4.0964,-4.1497,-4.1927,-4.2223,-4.2856,-4.4255,-4.6545,-4.7763,-4.9359,-5.1623,-5.273,-5.3416,-5.3758,-5.4381,-5.4899,-5.5179,-5.554,-5.6043,-5.6688,-5.7332,-5.7956,-5.8614,-5.8955,-5.9099,-5.9099,-5.9099,-5.8614,-5.773,-5.7045,-5.6194,-5.5332,-5.4348,-5.3812,-5.3565,-5.3349,-5.3097,-5.2929,-3.5859,-3.6016,-3.6016,-3.6016,-3.6016,-3.6016,-3.6016,-3.6016,-3.6016,-3.6016,-3.6016,-3.6191,-3.6621,-3.745,-3.7935,-3.7891,-3.8734,-3.9063,-3.8647,-3.989,-4.1347,-4.2731,-4.2801,-4.2801,-4.2801,-4.1418,-4.0636,-4.0636,-4.0779,-4.0822,-4.0871,-4.2794,-4.441,-4.5763,-4.6175,-4.7096,-4.8309,-4.8309,-4.8309,-4.8309,-4.8309,-4.8309,-4.7956,-4.4741,-4.3488,-4.3056,-3.9768,-3.8846,-3.9478,-4.085,-4.2849,-4.4982,-4.6331,-4.806,-4.959,-4.959,-4.8987,-4.8284,-4.8134,-4.8096,-4.7933,-4.7294,-4.7118,-4.6968,-4.6451,-4.6301,-4.6301,-4.6301,-4.5885,-4.5385,-4.4878,-4.3903,-4.2966,-4.2287,0.0,0.0,0.0,-4.1102,-4.1417,-4.2282,-4.2604,-4.2897,-4.335,-4.428,-4.5607,-4.7357,-4.8994,-5.0637,-5.2336,-5.3549,-5.4273,-5.4422,-5.4959,-5.5179,-5.5179,-5.5872,-5.6485,-5.7118,-5.7773,-5.844,-5.9099,-5.9099,-5.8917,-5.8571,-5.8571,-5.7628,-5.6148,-5.5734,-5.492,-5.371,-5.2634,-5.2576,-5.301,-5.2311,-5.2454,-5.2929,-3.5937,-3.6016,-3.6016,-3.6016,-3.6016,-3.6016,-3.6016,-3.6016,-3.6016,-3.6016,-3.6016,-3.6191,-3.6621,-3.8588,-3.9363,-3.8014,-3.9841,-4.0371,-3.872,-3.872,-3.8846,-3.8991,-3.8991,-3.8991,-3.8991,-3.8846,-3.8793,-3.8793,-4.0473,-4.1284,-4.1354,-4.4868,-4.6547,-4.677,-4.8484,-4.9336,-4.9464,-4.9464,-4.9464,-4.9464,-4.9464,-4.9464,-4.9053,-4.5411,-4.4049,-4.3567,-3.989,-3.9674,-4.1134,-4.1255,-4.3658,-4.6599,-4.6732,-4.806,-4.959,-4.959,-4.954,-4.9364,-4.8862,-4.8746,-4.848,-4.7395,-4.7095,-4.6982,-4.6391,-4.6301,-4.6301,-4.6301,-4.5885,-4.547,-4.5405,-4.4475,-4.3391,-4.2363,0.0,0.0,-4.0687,-4.1875,-4.2866,-4.2936,-4.384,-4.4425,-4.4478,-4.4591,-4.5776,-4.8559,-4.8886,-5.0195,-5.3006,-5.3781,-5.4499,-5.513,-5.517,-5.5179,-5.5179,-5.5872,-5.6517,-5.7119,-5.7754,-5.844,-5.9099,-5.9099,-5.83,-5.6866,-5.6866,-5.5973,-5.4477,-5.2988,-5.227,-5.2052,-5.101,-5.0934,-5.1498,-5.1933,-5.2454,-5.2929,-3.5937,-3.6016,-3.6016,-3.6016,-3.6016,-3.6016,-3.6016,-3.6016,-3.6016,-3.6016,-3.6016,-3.6289,-3.6973,-3.8889,-3.9605,-3.8406,-4.0126,-4.0514,-3.872,-3.8574,-3.8574,-3.8574,-3.8574,-3.8574,-3.8574,-3.8574,-3.8574,-3.8574,-4.1559,-4.3057,-4.3127,-4.6822,-4.8542,-4.8542,-4.9242,-4.959,-4.959,-4.959,-4.959,-4.959,-4.959,-4.959,-4.9177,-4.548,-4.4116,-4.3634,-3.989,-3.9063,-3.9962,-4.2241,-4.3956,-4.5524,-4.7797,-4.9047,-4.959,-4.959,-4.959,-4.954,-4.9339,-4.9325,-4.9135,-4.8347,-4.8146,-4.7996,-4.7431,-4.7054,-4.6813,-4.6793,-4.6411,-4.591,-4.5579,-4.5126,-4.4744,-4.4335,0.0,-4.3287,-4.357,-4.3551,-4.3595,-4.397,-4.4324,-4.4606,-4.459,-4.4586,-4.5429,-4.7386,-4.7918,-4.899,-5.0926,-5.2557,-5.3989,-5.5179,-5.5179,-5.5179,-5.5179,-5.6264,-5.6861,-5.7075,-5.8213,-5.8313,-5.7628,-5.7628,-5.6734,-5.5273,-5.528,-5.4393,-5.2863,-5.2269,-5.1428,-5.0484,-5.0049,-5.0247,-5.082,-5.1365,-5.1911,-5.2479,-3.5957,-3.6016,-3.6016,-3.6016,-3.6016,-3.6016,-3.6016,-3.6016,-3.6016,-3.6016,-3.6016,-3.6348,-3.7207,-3.9502,-4.0546,-3.9542,-4.1134,-4.1397,-3.955,-3.8918,-3.8574,-3.8574,-3.8574,-3.8574,-3.8574,-3.8574,-3.8846,-3.9478,-4.2591,-4.4368,-4.505,-4.815,-4.959,-4.959,-4.959,-4.959,-4.959,-4.959,-4.959,-4.959,-4.959,-4.959,-4.9177,-4.548,-4.4116,-4.3634,-3.989,-3.8991,-3.9818,-4.2382,-4.3956,-4.5389,-4.7929,-4.9112,-4.959,-4.959,-4.959,-4.959,-4.959,-4.959,-4.9464,-4.8912,-4.8761,-4.8611,-4.8033,-4.7631,-4.7367,-4.7323,-4.7061,-4.6663,-4.607,-4.5995,-4.591,-4.5519,-4.4828,-4.4529,-4.5126,-4.4719,-4.4485,-4.4822,-4.502,-4.5105,-4.5105,-4.5126,-4.5716,-4.717,-4.767,-4.8791,-5.0678,-5.218,-5.371,-5.5149,-5.5427,-5.5513,-5.5508,-5.6547,-5.7206,-5.7446,-5.8035,-5.7765,-5.6696,-5.6198,-5.5122,-5.3637,-5.3687,-5.2721,-5.1254,-5.1231,-5.0573,-4.9615,-4.9794,-5.0067,-5.0481,-5.1247,-5.1792,-5.2148,-3.6016,-3.6016,-3.6016,-3.6016,-3.6016,-3.6016,-3.6016,-3.6016,-3.6016,-3.6016,-3.6016,-3.6348,-3.7207,-4.0622,-4.2391,-4.1383,-4.3057,-4.3335,-4.1397,-3.9602,-3.8647,-3.8574,-3.8574,-3.8574,-3.8574,-3.8647,-3.9478,-4.1326,-4.3196,-4.505,-4.6865,-4.8698,-4.959,-4.959,-4.959,-4.959,-4.959,-4.959,-4.959,-4.959,-4.959,-4.959,-4.9177,-4.5548,-4.4116,-4.3634,-3.9962,-3.9818,-4.1326,-4.1326,-4.3796,-4.6798,-4.6798,-4.8126,-4.959,-4.959,-4.959,-4.959,-4.959,-4.959,-4.9464,-4.8912,-4.8786,-4.8636,-4.8058,-4.7908,-4.7908,-4.7908,-4.7881,-4.7738,-4.7202,-4.7136,-4.6743,-4.5689,-4.5494,-4.53,-4.4691,-4.5105,-4.5494,-4.5494,-4.5995,-4.6301,-4.6301,-4.6301,-4.6914,-4.8395,-4.8507,-4.9796,-5.2798,-5.299,-5.366,-5.5149,-5.5819,-5.6173,-5.6226,-5.6819,-5.7416,-5.8061,-5.7154,-5.6651,-5.6594,-5.5088,-5.3489,-5.1989,-5.1989,-5.1079,-4.959,-4.959,-4.959,-4.968,-5.0164,-5.0369,-5.0532,-5.1655,-5.2098,-5.2123,-3.6016,-3.6016,-3.6016,-3.6016,-3.6016,-3.6016,-3.6016,-3.6016,-3.6016,-3.6016,-3.6016,-3.6689,-3.8419,-4.1149,-4.2795,-4.2716,-4.4709,-4.4619,-4.1538,-4.0779,-3.9962,-3.8647,-3.8574,-3.8574,-3.8574,-3.9818,-4.0779,-4.1326,-4.4414,-4.6264,-4.6865,-4.8698,-4.959,-4.959,-4.959,-4.959,-4.959,-4.959,-4.959,-4.959,-4.959,-4.959,-4.9307,-4.6889,-4.5996,-4.5659,-4.3335,-4.2801,-4.3473,-4.4755,-4.5906,-4.7022,-4.8347,-4.9177,-4.959,-4.959,-4.959,-4.959,-4.959,-4.959,-4.9565,-4.9389,-4.9339,-4.9314,-4.9138,-4.8786,-4.851,-4.851,-4.8196,-4.7833,-4.773,-4.7668,-4.7443,-4.6743,-4.6632,-4.6436,-4.5885,-4.5935,-4.602,-4.602,-4.7102,-4.7403,-4.6431,-4.7265,-4.7637,-4.6974,-4.6939,-4.7778,-4.9737,-5.1243,-5.2776,-5.4238,-5.5952,-5.6557,-5.5949,-5.7156,-5.736,-5.6414,-5.6623,-5.555,-5.3389,-5.291,-5.1865,-5.0308,-5.0308,-5.0014,-4.959,-4.959,-4.959,-4.9615,-4.9794,-4.9819,-4.992,-5.0665,-5.0917,-5.1069,-3.6016,-3.6016,-3.6016,-3.6016,-3.6016,-3.6016,-3.6016,-3.6016,-3.6016,-3.6016,-3.6606,-3.7604,-3.9025,-4.1749,-4.3736,-4.4316,-4.5849,-4.5231,-4.1538,-4.2031,-4.1608,-3.9746,-4.0371,-4.0443,-3.9674,-4.0708,-4.201,-4.3451,-4.5704,-4.7154,-4.7929,-4.9112,-4.959,-4.959,-4.959,-4.959,-4.959,-4.959,-4.959,-4.959,-4.959,-4.959,-4.9396,-4.7485,-4.6798,-4.6532,-4.4778,-4.4573,-4.5321,-4.6398,-4.7287,-4.8126,-4.9242,-4.959,-4.959,-4.959,-4.959,-4.959,-4.959,-4.959,-4.959,-4.959,-4.959,-4.959,-4.959,-4.9339,-4.9113,-4.9113,-4.881,-4.8521,-4.8296,-4.8259,-4.8055,-4.7519,-4.741,-4.7247,-4.6718,-4.6632,-4.6743,-4.7136,-4.7945,-4.8395,-4.8053,-4.8337,-4.7877,-4.6386,-4.6491,-4.7243,-4.8756,-5.0259,-5.1763,-5.3276,-5.4826,-5.5353,-5.4853,-5.6046,-5.6164,-5.52,-5.4964,-5.3839,-5.1989,-5.133,-5.0563,-4.959,-4.959,-4.959,-4.959,-4.959,-4.959,-4.959,-4.959,-4.959,-4.964,-5.0237,-5.0392,-5.0546,-3.6016,-3.6016,-3.6016,-3.6016,-3.6016,-3.6016,-3.6016,-3.6016,-3.6016,-3.6016,-3.7508,-3.8832,-3.9298,-4.2461,-4.5007,-4.6049,-4.6687,-4.5569,-4.201,-4.3404,-4.3473,-4.1608,-4.3218,-4.3357,-4.182,-4.182,-4.3451,-4.6798,-4.6955,-4.7929,-4.959,-4.959,-4.959,-4.959,-4.959,-4.959,-4.959,-4.959,-4.959,-4.959,-4.959,-4.959,-4.9396,-4.7707,-4.7088,-4.6822,-4.5186,-4.5659,-4.7088,-4.7136,-4.8264,-4.9665,-4.9715,-4.9741,-4.9741,-4.9741,-4.9741,-4.9741,-4.969,-4.9665,-4.9665,-4.9615,-4.959,-4.959,-4.959,-4.959,-4.959,-4.959,-4.959,-4.9475,-4.8953,-4.8839,-4.87,-4.8065,-4.7995,-4.7774,-4.7243,-4.7177,-4.7554,-4.8532,-4.8763,-4.9388,-5.0765,-4.954,-4.8077,-4.6537,-4.6881,-4.7738,-4.9075,-4.9871,-5.089,-5.2233,-5.3083,-5.3402,-5.3294,-5.3904,-5.4194,-5.4168,-5.2668,-5.1927,-5.1741,-5.0245,-4.959,-4.959,-4.959,-4.959,-4.959,-4.959,-4.959,-4.959,-4.959,-4.959,-4.9665,-5.0137,-5.0373,-5.0406,-3.5957,-3.6016,-3.6016,-3.6016,-3.6016,-3.6016,-3.6016,-3.6016,-3.6016,-3.6016,-3.7508,-3.9146,-4.0604,-4.3049,-4.5372,-4.7318,-4.8387,-4.7994,-4.5771,-4.5996,-4.5389,-4.3542,-4.391,-4.4573,-4.5569,-4.5569,-4.5996,-4.6798,-4.8257,-4.9177,-4.959,-4.959,-4.959,-4.959,-4.959,-4.959,-4.959,-4.959,-4.959,-4.959,-4.959,-4.959,-4.9525,-4.9177,-4.8958,-4.8958,-4.8567,-4.8632,-4.9032,-4.9454,-4.9891,-5.0318,-5.077,-5.0921,-5.0921,-5.0921,-5.0921,-5.082,-5.0368,-5.0243,-5.0142,-4.969,-4.959,-4.959,-4.959,-4.959,-4.959,-4.959,-4.959,-4.959,-4.9475,-4.945,-4.9246,-4.87,-4.8618,-4.8432,-4.7802,-4.7716,-4.8283,-4.9714,-5.0933,-5.1822,-5.2238,-5.086,-4.9271,-4.7688,-4.7668,-4.7883,-4.8208,-4.9976,-5.1127,-5.1447,-5.3223,-5.3567,-5.2331,-5.2432,-5.2527,-5.2492,-5.2139,-5.133,-5.0142,-4.9783,-4.959,-4.959,-4.959,-4.959,-4.959,-4.959,-4.959,-4.959,-4.959,-4.959,-4.9615,-4.9741,-4.9741,-4.983,-3.5937,-3.6016,-3.6016,-3.6016,-3.6016,-3.6016,-3.6016,-3.6016,-3.6268,-3.7126,-3.8729,-4.0472,-4.2201,-4.3467,-4.4507,-4.5334,-4.6383,-4.6556,-4.5592,-4.6331,-4.6398,-4.5457,-4.6221,-4.7178,-4.8126,-4.8126,-4.8126,-4.8126,-4.9112,-4.959,-4.959,-4.959,-4.959,-4.959,-4.959,-4.959,-4.959,-4.959,-4.959,-4.959,-4.959,-4.959,-4.959,-4.959,-4.959,-4.959,-4.959,-4.9766,-5.0067,-5.0645,-5.082,-5.087,-5.1197,-5.1272,-5.1272,-5.1272,-5.1272,-5.1222,-5.0921,-5.082,-5.0695,-5.0117,-4.9992,-4.9916,-4.9665,-4.959,-4.959,-4.959,-4.959,-4.959,-4.959,-4.959,-4.95,-4.9246,-4.9157,-4.8953,-4.8407,-4.9014,-4.9929,-5.1184,-5.2743,-5.3373,-5.2683,-5.1819,-5.0393,-4.807,-4.8159,-4.836,-4.8309,-4.9698,-5.0423,-5.0459,-5.1498,-5.1704,-5.083,-5.0861,-5.0841,-5.0853,-5.0853,-5.0436,-4.959,-4.959,-4.959,-4.959,-4.959,-4.959,-4.959,-4.959,-4.959,-4.959,-4.959,-4.959,-4.959,-4.959,-4.959,-4.964,-3.582,-3.5976,-3.6016,-3.6016,-3.6016,-3.6016,-3.6016,-3.6016,-3.6539,-3.7955,-3.9693,-4.1309,-4.2706,-4.3153,-4.3194,-4.2614,-4.3737,-4.4483,-4.4573,-4.6264,-4.7287,-4.7287,-4.8763,-4.959,-4.959,-4.959,-4.959,-4.959,-4.959,-4.959,-4.959,-4.959,-4.959,-4.959,-4.959,-4.959,-4.959,-4.959,-4.959,-4.959,-4.959,-4.959,-4.959,-4.959,-4.9665,-4.9741,-4.9741,-5.0092,-5.0645,-5.1222,-5.1423,-5.1448,-5.1523,-5.1548,-5.1548,-5.1548,-5.1548,-5.1548,-5.1448,-5.1423,-5.1272,-5.072,-5.0569,-5.0419,-4.9891,-4.9665,-4.959,-4.959,-4.959,-4.959,-4.959,-4.959,-4.959,-4.959,-4.959,-4.9475,-4.9017,-5.0308,-5.1724,-5.2728,-5.4453,-5.4873,-5.2972,-5.2796,-5.1563,-4.8421,-4.8634,-4.895,-4.8913,-4.9378,-4.959,-4.959,-4.959,-4.959,-4.959,-4.959,-4.959,-4.959,-4.959,-4.959,-4.959,-4.959,-4.959,-4.959,-4.959,-4.959,-4.959,-4.959,-4.959,-4.959,-4.959,-4.959,-4.959,-4.959,-4.959,-4.959,-3.5391,-3.5762,-3.6016,-3.6016,-3.6016,-3.6016,-3.6016,-3.6016,-3.6084,-3.6336,-3.7888,-3.9059,-3.9256,-4.1042,-4.2359,-4.257,-4.4596,-4.6059,-4.6441,-4.8191,-4.9242,-4.9242,-4.9461,-4.959,-4.959,-4.959,-4.959,-4.959,-4.959,-4.959,-4.959,-4.959,-4.959,-4.959,-4.959,-4.959,-4.959,-4.959,-4.959,-4.959,-4.959,-4.959,-4.959,-4.959,-4.9891,-5.0293,-5.0293,-5.067,-5.1247,-5.18,-5.2,-5.2076,-5.2553,-5.2703,-5.2703,-5.2703,-5.2703,-5.2603,-5.2126,-5.2,-5.185,-5.1297,-5.1172,-5.1021,-5.0413,-4.9927,-4.959,-4.959,-4.959,-4.959,-4.959,-4.959,-4.959,-4.959,-4.959,-4.959,-4.95,-5.0871,-5.2466,-5.3978,-5.6753,-5.7414,-5.445,-5.4145,-5.2815,-4.9579,-4.9464,-4.9464,-4.9464,-4.954,-4.959,-4.959,-4.959,-4.959,-4.959,-4.959,-4.959,-4.959,-4.959,-4.959,-4.959,-4.959,-4.959,-4.959,-4.959,-4.959,-4.959,-4.959,-4.959,-4.959,-4.959,-4.959,-4.959,-4.959,-4.959,-4.959,-3.5254,-3.5547,-3.5742,-3.5976,-3.6016,-3.6016,-3.6016,-3.6016,-3.6336,-3.7307,-3.8154,-3.8993,-3.9953,-4.03,-4.0198,-3.9667,-4.1801,-4.3759,-4.5231,-4.7022,-4.8477,-4.9525,-4.959,-4.959,-4.959,-4.959,-4.959,-4.959,-4.959,-4.959,-4.959,-4.959,-4.959,-4.959,-4.959,-4.959,-4.959,-4.959,-4.959,-4.959,-4.959,-4.959,-4.9615,-4.9941,-5.0193,-5.0494,-5.1122,-5.1523,-5.1825,-5.2377,-5.2578,-5.2603,-5.2854,-5.2929,-5.2929,-5.2929,-5.2929,-5.2879,-5.2628,-5.2578,-5.2427,-5.1875,-5.1749,-5.1574,-5.1053,-5.0459,-4.9967,-4.9665,-4.959,-4.959,-4.959,-4.959,-4.959,-4.959,-4.959,-4.959,-4.959,-5.1773,-5.4238,-5.6727,-5.7467,-5.6874,-5.4652,-5.3571,-5.2078,-4.9794,-4.959,-4.959,-4.959,-4.959,-4.959,-4.959,-4.959,-4.959,-4.959,-4.959,-4.959,-4.959,-4.959,-4.959,-4.959,-4.959,-4.959,-4.959,-4.959,-4.959,-4.959,-4.959,-4.959,-4.959,-4.959,-4.959,-4.959,-4.959,-4.959,-4.959]}]]